<?xml version="1.0" encoding="UTF-8" standalone="no" ?>
<gpx xmlns="http://www.topografix.com/GPX/1/1" xmlns:xsi="http://www.w3.org/2001/XMLSchema-instance" xsi:schemaLocation="http://www.topografix.com/GPX/1/1 http://www.topografix.com/GPX/1/1/gpx.xsd" version="1.1" creator="VisuGPX - https://www.visugpx.com">
  <metadata>
    <name>Tersanne</name>
    <desc><![CDATA[Tersanne, Dist.76Km 3h38 Asc.749m]]></desc>
  </metadata>
  <trk>
    <name><![CDATA[Tersanne]]></name>
    <cmt><![CDATA[Gilbert, Patrick, MArtine, Brigitte]]></cmt>
    <trkseg>
      <trkpt lat="45.11544" lon="4.9645">
        <ele>195.21644592285</ele>
        <time>2009-12-09T12:11:25Z</time>
      </trkpt>
      <trkpt lat="45.11544" lon="4.9645">
        <ele>195.21644592285</ele>
        <time>2009-12-09T12:12:06Z</time>
      </trkpt>
      <trkpt lat="45.11544" lon="4.9645">
        <ele>195.21644592285</ele>
        <time>2009-12-09T12:12:07Z</time>
      </trkpt>
      <trkpt lat="45.11544" lon="4.9645">
        <ele>195.21644592285</ele>
        <time>2009-12-09T12:12:16Z</time>
      </trkpt>
      <trkpt lat="45.11581" lon="4.96435">
        <ele>197.23323059082</ele>
        <time>2009-12-09T12:12:35Z</time>
      </trkpt>
      <trkpt lat="45.11581" lon="4.96451">
        <ele>196.67193603516</ele>
        <time>2009-12-09T12:12:40Z</time>
      </trkpt>
      <trkpt lat="45.11583" lon="4.96389">
        <ele>200.31437683106</ele>
        <time>2009-12-09T12:12:44Z</time>
      </trkpt>
      <trkpt lat="45.11581" lon="4.96453">
        <ele>196.56784057617</ele>
        <time>2009-12-09T12:12:45Z</time>
      </trkpt>
      <trkpt lat="45.11558" lon="4.96472">
        <ele>194.89224243164</ele>
        <time>2009-12-09T12:12:50Z</time>
      </trkpt>
      <trkpt lat="45.11558" lon="4.96472">
        <ele>194.89224243164</ele>
        <time>2009-12-09T12:12:54Z</time>
      </trkpt>
      <trkpt lat="45.1158" lon="4.96468">
        <ele>195.99861145019</ele>
        <time>2009-12-09T12:13:02Z</time>
      </trkpt>
      <trkpt lat="45.1158" lon="4.96479">
        <ele>195.5881652832</ele>
        <time>2009-12-09T12:13:05Z</time>
      </trkpt>
      <trkpt lat="45.11579" lon="4.96499">
        <ele>194.82316589356</ele>
        <time>2009-12-09T12:13:11Z</time>
      </trkpt>
      <trkpt lat="45.11594" lon="4.96541">
        <ele>195.33389282227</ele>
        <time>2009-12-09T12:13:20Z</time>
      </trkpt>
      <trkpt lat="45.11621" lon="4.96603">
        <ele>195.11514282227</ele>
        <time>2009-12-09T12:13:31Z</time>
      </trkpt>
      <trkpt lat="45.11621" lon="4.96603">
        <ele>195.10513305664</ele>
        <time>2009-12-09T12:13:36Z</time>
      </trkpt>
      <trkpt lat="45.11656" lon="4.96694">
        <ele>194.58236694336</ele>
        <time>2009-12-09T12:13:47Z</time>
      </trkpt>
      <trkpt lat="45.11682" lon="4.96753">
        <ele>195.99357604981</ele>
        <time>2009-12-09T12:13:58Z</time>
      </trkpt>
      <trkpt lat="45.11723" lon="4.96814">
        <ele>195.47459411621</ele>
        <time>2009-12-09T12:14:11Z</time>
      </trkpt>
      <trkpt lat="45.11727" lon="4.96818">
        <ele>195.40809631348</ele>
        <time>2009-12-09T12:14:12Z</time>
      </trkpt>
      <trkpt lat="45.11737" lon="4.96831">
        <ele>195.17556762695</ele>
        <time>2009-12-09T12:14:16Z</time>
      </trkpt>
      <trkpt lat="45.11737" lon="4.96831">
        <ele>195.17556762695</ele>
        <time>2009-12-09T12:14:20Z</time>
      </trkpt>
      <trkpt lat="45.11758" lon="4.96904">
        <ele>196.74864196777</ele>
        <time>2009-12-09T12:14:25Z</time>
      </trkpt>
      <trkpt lat="45.11806" lon="4.96951">
        <ele>197.55403137207</ele>
        <time>2009-12-09T12:14:37Z</time>
      </trkpt>
      <trkpt lat="45.1185" lon="4.97014">
        <ele>198.56315612793</ele>
        <time>2009-12-09T12:14:49Z</time>
      </trkpt>
      <trkpt lat="45.11871" lon="4.97044">
        <ele>197.8857421875</ele>
        <time>2009-12-09T12:14:55Z</time>
      </trkpt>
      <trkpt lat="45.11881" lon="4.9707">
        <ele>197.43890380859</ele>
        <time>2009-12-09T12:14:59Z</time>
      </trkpt>
      <trkpt lat="45.11863" lon="4.97072">
        <ele>197.04089355469</ele>
        <time>2009-12-09T12:15:02Z</time>
      </trkpt>
      <trkpt lat="45.11852" lon="4.97069">
        <ele>196.89579772949</ele>
        <time>2009-12-09T12:15:04Z</time>
      </trkpt>
      <trkpt lat="45.1184" lon="4.97069">
        <ele>196.67416381836</ele>
        <time>2009-12-09T12:15:06Z</time>
      </trkpt>
      <trkpt lat="45.11806" lon="4.97081">
        <ele>195.76530456543</ele>
        <time>2009-12-09T12:15:12Z</time>
      </trkpt>
      <trkpt lat="45.1179" lon="4.97086">
        <ele>195.47822570801</ele>
        <time>2009-12-09T12:15:15Z</time>
      </trkpt>
      <trkpt lat="45.11781" lon="4.9709">
        <ele>195.38732910156</ele>
        <time>2009-12-09T12:15:18Z</time>
      </trkpt>
      <trkpt lat="45.11761" lon="4.97097">
        <ele>195.24839782715</ele>
        <time>2009-12-09T12:15:24Z</time>
      </trkpt>
      <trkpt lat="45.11758" lon="4.97098">
        <ele>195.23478698731</ele>
        <time>2009-12-09T12:15:25Z</time>
      </trkpt>
      <trkpt lat="45.11749" lon="4.97101">
        <ele>195.19274902344</ele>
        <time>2009-12-09T12:15:28Z</time>
      </trkpt>
      <trkpt lat="45.11764" lon="4.97223">
        <ele>195.27095031738</ele>
        <time>2009-12-09T12:15:30Z</time>
      </trkpt>
      <trkpt lat="45.11768" lon="4.97247">
        <ele>195.02842712402</ele>
        <time>2009-12-09T12:15:33Z</time>
      </trkpt>
      <trkpt lat="45.11772" lon="4.97269">
        <ele>194.83148193359</ele>
        <time>2009-12-09T12:15:36Z</time>
      </trkpt>
      <trkpt lat="45.1178" lon="4.97314">
        <ele>194.5055847168</ele>
        <time>2009-12-09T12:15:43Z</time>
      </trkpt>
      <trkpt lat="45.1179" lon="4.97334">
        <ele>194.47972106934</ele>
        <time>2009-12-09T12:15:47Z</time>
      </trkpt>
      <trkpt lat="45.11803" lon="4.9735">
        <ele>194.77188110352</ele>
        <time>2009-12-09T12:15:51Z</time>
      </trkpt>
      <trkpt lat="45.11827" lon="4.97391">
        <ele>195.56501770019</ele>
        <time>2009-12-09T12:16:00Z</time>
      </trkpt>
      <trkpt lat="45.11852" lon="4.97446">
        <ele>196</ele>
        <time>2009-12-09T12:16:10Z</time>
      </trkpt>
      <trkpt lat="45.11874" lon="4.97491">
        <ele>196</ele>
        <time>2009-12-09T12:16:18Z</time>
      </trkpt>
      <trkpt lat="45.11898" lon="4.97534">
        <ele>195.68774414062</ele>
        <time>2009-12-09T12:16:26Z</time>
      </trkpt>
      <trkpt lat="45.11901" lon="4.97539">
        <ele>195.6241607666</ele>
        <time>2009-12-09T12:16:27Z</time>
      </trkpt>
      <trkpt lat="45.11909" lon="4.97552">
        <ele>195.43353271484</ele>
        <time>2009-12-09T12:16:31Z</time>
      </trkpt>
      <trkpt lat="45.11932" lon="4.9758">
        <ele>195.96870422363</ele>
        <time>2009-12-09T12:16:37Z</time>
      </trkpt>
      <trkpt lat="45.11941" lon="4.97582">
        <ele>196.45069885254</ele>
        <time>2009-12-09T12:16:39Z</time>
      </trkpt>
      <trkpt lat="45.11958" lon="4.97618">
        <ele>196.82424926758</ele>
        <time>2009-12-09T12:16:44Z</time>
      </trkpt>
      <trkpt lat="45.11969" lon="4.97685">
        <ele>196.73686218262</ele>
        <time>2009-12-09T12:16:54Z</time>
      </trkpt>
      <trkpt lat="45.11982" lon="4.97753">
        <ele>197.78669738769</ele>
        <time>2009-12-09T12:17:04Z</time>
      </trkpt>
      <trkpt lat="45.11996" lon="4.97832">
        <ele>197.99952697754</ele>
        <time>2009-12-09T12:17:16Z</time>
      </trkpt>
      <trkpt lat="45.1201" lon="4.97904">
        <ele>199.21572875977</ele>
        <time>2009-12-09T12:17:27Z</time>
      </trkpt>
      <trkpt lat="45.12022" lon="4.97963">
        <ele>200.75451660156</ele>
        <time>2009-12-09T12:17:36Z</time>
      </trkpt>
      <trkpt lat="45.12034" lon="4.98023">
        <ele>202.26159667969</ele>
        <time>2009-12-09T12:17:45Z</time>
      </trkpt>
      <trkpt lat="45.12046" lon="4.98076">
        <ele>203.42541503906</ele>
        <time>2009-12-09T12:17:53Z</time>
      </trkpt>
      <trkpt lat="45.12057" lon="4.9813">
        <ele>205.15791320801</ele>
        <time>2009-12-09T12:18:01Z</time>
      </trkpt>
      <trkpt lat="45.12065" lon="4.98184">
        <ele>205.96067810059</ele>
        <time>2009-12-09T12:18:09Z</time>
      </trkpt>
      <trkpt lat="45.12064" lon="4.98255">
        <ele>204.93104553223</ele>
        <time>2009-12-09T12:18:19Z</time>
      </trkpt>
      <trkpt lat="45.12056" lon="4.98319">
        <ele>203.90682983398</ele>
        <time>2009-12-09T12:18:28Z</time>
      </trkpt>
      <trkpt lat="45.12048" lon="4.98378">
        <ele>204.65414428711</ele>
        <time>2009-12-09T12:18:37Z</time>
      </trkpt>
      <trkpt lat="45.12032" lon="4.98403">
        <ele>205.06498718262</ele>
        <time>2009-12-09T12:18:42Z</time>
      </trkpt>
      <trkpt lat="45.11998" lon="4.98394">
        <ele>204.39457702637</ele>
        <time>2009-12-09T12:18:47Z</time>
      </trkpt>
      <trkpt lat="45.1198" lon="4.98386">
        <ele>203.71699523926</ele>
        <time>2009-12-09T12:18:50Z</time>
      </trkpt>
      <trkpt lat="45.11978" lon="4.98404">
        <ele>203.97636413574</ele>
        <time>2009-12-09T12:18:53Z</time>
      </trkpt>
      <trkpt lat="45.11982" lon="4.98387">
        <ele>203.78569030762</ele>
        <time>2009-12-09T12:18:55Z</time>
      </trkpt>
      <trkpt lat="45.11978" lon="4.98403">
        <ele>203.96293640137</ele>
        <time>2009-12-09T12:18:58Z</time>
      </trkpt>
      <trkpt lat="45.11978" lon="4.98403">
        <ele>203.96293640137</ele>
        <time>2009-12-09T12:24:56Z</time>
      </trkpt>
      <trkpt lat="45.11985" lon="4.98388">
        <ele>203.88391113281</ele>
        <time>2009-12-09T12:28:00Z</time>
      </trkpt>
      <trkpt lat="45.11985" lon="4.98388">
        <ele>203.91261291504</ele>
        <time>2009-12-09T12:28:01Z</time>
      </trkpt>
      <trkpt lat="45.11987" lon="4.98389">
        <ele>203.97148132324</ele>
        <time>2009-12-09T12:28:06Z</time>
      </trkpt>
      <trkpt lat="45.1199" lon="4.98391">
        <ele>204.08831787109</ele>
        <time>2009-12-09T12:28:09Z</time>
      </trkpt>
      <trkpt lat="45.11991" lon="4.98391">
        <ele>204.11920166016</ele>
        <time>2009-12-09T12:28:12Z</time>
      </trkpt>
      <trkpt lat="45.11991" lon="4.98391">
        <ele>204.11920166016</ele>
        <time>2009-12-09T12:29:39Z</time>
      </trkpt>
      <trkpt lat="45.11994" lon="4.98393">
        <ele>204.25256347656</ele>
        <time>2009-12-09T12:30:12Z</time>
      </trkpt>
      <trkpt lat="45.11994" lon="4.98393">
        <ele>204.25256347656</ele>
        <time>2009-12-09T12:30:13Z</time>
      </trkpt>
      <trkpt lat="45.1199" lon="4.98391">
        <ele>204.08831787109</ele>
        <time>2009-12-09T12:31:26Z</time>
      </trkpt>
      <trkpt lat="45.11978" lon="4.98399">
        <ele>203.89413452148</ele>
        <time>2009-12-09T12:31:31Z</time>
      </trkpt>
      <trkpt lat="45.11978" lon="4.98399">
        <ele>203.89413452148</ele>
        <time>2009-12-09T12:34:49Z</time>
      </trkpt>
      <trkpt lat="45.11978" lon="4.98399">
        <ele>203.89413452148</ele>
        <time>2009-12-09T12:34:50Z</time>
      </trkpt>
      <trkpt lat="45.1198" lon="4.98386">
        <ele>203.73081970215</ele>
        <time>2009-12-09T12:34:54Z</time>
      </trkpt>
      <trkpt lat="45.11978" lon="4.98393">
        <ele>203.78672790527</ele>
        <time>2009-12-09T12:34:57Z</time>
      </trkpt>
      <trkpt lat="45.11978" lon="4.98396">
        <ele>203.83036804199</ele>
        <time>2009-12-09T12:35:01Z</time>
      </trkpt>
      <trkpt lat="45.11978" lon="4.98399">
        <ele>203.89245605469</ele>
        <time>2009-12-09T12:35:03Z</time>
      </trkpt>
      <trkpt lat="45.11978" lon="4.98401">
        <ele>203.92015075684</ele>
        <time>2009-12-09T12:35:04Z</time>
      </trkpt>
      <trkpt lat="45.1202" lon="4.98462">
        <ele>205.24591064453</ele>
        <time>2009-12-09T12:35:09Z</time>
      </trkpt>
      <trkpt lat="45.11978" lon="4.98399">
        <ele>203.8849029541</ele>
        <time>2009-12-09T12:35:11Z</time>
      </trkpt>
      <trkpt lat="45.11985" lon="4.98388">
        <ele>203.88391113281</ele>
        <time>2009-12-09T12:35:16Z</time>
      </trkpt>
      <trkpt lat="45.11987" lon="4.98389">
        <ele>203.96954345703</ele>
        <time>2009-12-09T12:35:17Z</time>
      </trkpt>
      <trkpt lat="45.12005" lon="4.98398">
        <ele>204.60836791992</ele>
        <time>2009-12-09T12:35:25Z</time>
      </trkpt>
      <trkpt lat="45.12022" lon="4.98407">
        <ele>205.03179931641</ele>
        <time>2009-12-09T12:35:32Z</time>
      </trkpt>
      <trkpt lat="45.12029" lon="4.9841">
        <ele>205.1954498291</ele>
        <time>2009-12-09T12:35:37Z</time>
      </trkpt>
      <trkpt lat="45.12029" lon="4.9841">
        <ele>205.1954498291</ele>
        <time>2009-12-09T12:35:40Z</time>
      </trkpt>
      <trkpt lat="45.12053" lon="4.98427">
        <ele>205.63043212891</ele>
        <time>2009-12-09T12:35:44Z</time>
      </trkpt>
      <trkpt lat="45.12056" lon="4.98419">
        <ele>205.67163085938</ele>
        <time>2009-12-09T12:35:46Z</time>
      </trkpt>
      <trkpt lat="45.12078" lon="4.9841">
        <ele>205.78596496582</ele>
        <time>2009-12-09T12:35:52Z</time>
      </trkpt>
      <trkpt lat="45.12114" lon="4.9841">
        <ele>206.21168518066</ele>
        <time>2009-12-09T12:36:01Z</time>
      </trkpt>
      <trkpt lat="45.12143" lon="4.9841">
        <ele>206.55500793457</ele>
        <time>2009-12-09T12:36:08Z</time>
      </trkpt>
      <trkpt lat="45.12171" lon="4.9841">
        <ele>206.96925354004</ele>
        <time>2009-12-09T12:36:15Z</time>
      </trkpt>
      <trkpt lat="45.12175" lon="4.9841">
        <ele>207.08564758301</ele>
        <time>2009-12-09T12:36:16Z</time>
      </trkpt>
      <trkpt lat="45.12184" lon="4.9841">
        <ele>207.31843566894</ele>
        <time>2009-12-09T12:36:22Z</time>
      </trkpt>
      <trkpt lat="45.12222" lon="4.98415">
        <ele>208.35224914551</ele>
        <time>2009-12-09T12:36:29Z</time>
      </trkpt>
      <trkpt lat="45.12261" lon="4.98415">
        <ele>209.05506896973</ele>
        <time>2009-12-09T12:36:36Z</time>
      </trkpt>
      <trkpt lat="45.12274" lon="4.98415">
        <ele>209.05908203125</ele>
        <time>2009-12-09T12:36:39Z</time>
      </trkpt>
      <trkpt lat="45.12296" lon="4.98416">
        <ele>209.03511047363</ele>
        <time>2009-12-09T12:36:44Z</time>
      </trkpt>
      <trkpt lat="45.12318" lon="4.98418">
        <ele>208.99699401856</ele>
        <time>2009-12-09T12:36:49Z</time>
      </trkpt>
      <trkpt lat="45.1234" lon="4.98412">
        <ele>209.25231933594</ele>
        <time>2009-12-09T12:36:54Z</time>
      </trkpt>
      <trkpt lat="45.12351" lon="4.98397">
        <ele>209.75944519043</ele>
        <time>2009-12-09T12:37:01Z</time>
      </trkpt>
      <trkpt lat="45.12372" lon="4.98368">
        <ele>210.40896606445</ele>
        <time>2009-12-09T12:37:04Z</time>
      </trkpt>
      <trkpt lat="45.12406" lon="4.98345">
        <ele>210.20448303223</ele>
        <time>2009-12-09T12:37:12Z</time>
      </trkpt>
      <trkpt lat="45.12415" lon="4.9834">
        <ele>210.03678894043</ele>
        <time>2009-12-09T12:37:14Z</time>
      </trkpt>
      <trkpt lat="45.12445" lon="4.98321">
        <ele>210.39260864258</ele>
        <time>2009-12-09T12:37:21Z</time>
      </trkpt>
      <trkpt lat="45.12478" lon="4.98304">
        <ele>210.80400085449</ele>
        <time>2009-12-09T12:37:28Z</time>
      </trkpt>
      <trkpt lat="45.12516" lon="4.98287">
        <ele>211.19921875</ele>
        <time>2009-12-09T12:37:36Z</time>
      </trkpt>
      <trkpt lat="45.12559" lon="4.98274">
        <ele>211.62698364258</ele>
        <time>2009-12-09T12:37:45Z</time>
      </trkpt>
      <trkpt lat="45.12607" lon="4.9826">
        <ele>212.9588470459</ele>
        <time>2009-12-09T12:37:56Z</time>
      </trkpt>
      <trkpt lat="45.12645" lon="4.98248">
        <ele>215.24450683594</ele>
        <time>2009-12-09T12:38:05Z</time>
      </trkpt>
      <trkpt lat="45.12681" lon="4.98243">
        <ele>218.04560852051</ele>
        <time>2009-12-09T12:38:13Z</time>
      </trkpt>
      <trkpt lat="45.12699" lon="4.98243">
        <ele>218.91093444824</ele>
        <time>2009-12-09T12:38:20Z</time>
      </trkpt>
      <trkpt lat="45.12747" lon="4.98248">
        <ele>219.40168762207</ele>
        <time>2009-12-09T12:38:28Z</time>
      </trkpt>
      <trkpt lat="45.12796" lon="4.98254">
        <ele>224.59436035156</ele>
        <time>2009-12-09T12:38:39Z</time>
      </trkpt>
      <trkpt lat="45.1281" lon="4.98256">
        <ele>226.22224426269</ele>
        <time>2009-12-09T12:38:47Z</time>
      </trkpt>
      <trkpt lat="45.12868" lon="4.98273">
        <ele>227.15585327148</ele>
        <time>2009-12-09T12:38:56Z</time>
      </trkpt>
      <trkpt lat="45.12912" lon="4.98291">
        <ele>225.05769348144</ele>
        <time>2009-12-09T12:39:06Z</time>
      </trkpt>
      <trkpt lat="45.12953" lon="4.98307">
        <ele>224.64569091797</ele>
        <time>2009-12-09T12:39:15Z</time>
      </trkpt>
      <trkpt lat="45.12998" lon="4.9831">
        <ele>227.00967407227</ele>
        <time>2009-12-09T12:39:24Z</time>
      </trkpt>
      <trkpt lat="45.13033" lon="4.98303">
        <ele>228.34104919434</ele>
        <time>2009-12-09T12:39:31Z</time>
      </trkpt>
      <trkpt lat="45.13068" lon="4.98294">
        <ele>230.17774963379</ele>
        <time>2009-12-09T12:39:38Z</time>
      </trkpt>
      <trkpt lat="45.13115" lon="4.98266">
        <ele>232.43927001953</ele>
        <time>2009-12-09T12:39:48Z</time>
      </trkpt>
      <trkpt lat="45.13171" lon="4.98236">
        <ele>233.38288879394</ele>
        <time>2009-12-09T12:40:00Z</time>
      </trkpt>
      <trkpt lat="45.13195" lon="4.98227">
        <ele>233.12216186523</ele>
        <time>2009-12-09T12:40:05Z</time>
      </trkpt>
      <trkpt lat="45.13232" lon="4.98213">
        <ele>231.90632629394</ele>
        <time>2009-12-09T12:40:13Z</time>
      </trkpt>
      <trkpt lat="45.13292" lon="4.98195">
        <ele>231.05043029785</ele>
        <time>2009-12-09T12:40:25Z</time>
      </trkpt>
      <trkpt lat="45.13346" lon="4.98181">
        <ele>230.02755737305</ele>
        <time>2009-12-09T12:40:36Z</time>
      </trkpt>
      <trkpt lat="45.134" lon="4.98167">
        <ele>229.00335693359</ele>
        <time>2009-12-09T12:40:47Z</time>
      </trkpt>
      <trkpt lat="45.13445" lon="4.98155">
        <ele>229.00335693359</ele>
        <time>2009-12-09T12:40:56Z</time>
      </trkpt>
      <trkpt lat="45.135" lon="4.9814">
        <ele>230.74911499023</ele>
        <time>2009-12-09T12:41:07Z</time>
      </trkpt>
      <trkpt lat="45.13533" lon="4.98127">
        <ele>231.39091491699</ele>
        <time>2009-12-09T12:41:14Z</time>
      </trkpt>
      <trkpt lat="45.13561" lon="4.98116">
        <ele>231.26625061035</ele>
        <time>2009-12-09T12:41:20Z</time>
      </trkpt>
      <trkpt lat="45.13571" lon="4.98112">
        <ele>231.09918212891</ele>
        <time>2009-12-09T12:41:22Z</time>
      </trkpt>
      <trkpt lat="45.13613" lon="4.98088">
        <ele>230.53887939453</ele>
        <time>2009-12-09T12:41:31Z</time>
      </trkpt>
      <trkpt lat="45.13654" lon="4.98057">
        <ele>230.7897644043</ele>
        <time>2009-12-09T12:41:40Z</time>
      </trkpt>
      <trkpt lat="45.13697" lon="4.9803">
        <ele>234.43658447266</ele>
        <time>2009-12-09T12:41:49Z</time>
      </trkpt>
      <trkpt lat="45.13756" lon="4.98003">
        <ele>238.48896789551</ele>
        <time>2009-12-09T12:42:01Z</time>
      </trkpt>
      <trkpt lat="45.13804" lon="4.97982">
        <ele>240.32243347168</ele>
        <time>2009-12-09T12:42:11Z</time>
      </trkpt>
      <trkpt lat="45.13857" lon="4.97958">
        <ele>240.6242980957</ele>
        <time>2009-12-09T12:42:22Z</time>
      </trkpt>
      <trkpt lat="45.1392" lon="4.97929">
        <ele>238.32032775879</ele>
        <time>2009-12-09T12:42:35Z</time>
      </trkpt>
      <trkpt lat="45.13995" lon="4.97895">
        <ele>233.72834777832</ele>
        <time>2009-12-09T12:42:51Z</time>
      </trkpt>
      <trkpt lat="45.14055" lon="4.97868">
        <ele>233.07218933106</ele>
        <time>2009-12-09T12:43:03Z</time>
      </trkpt>
      <trkpt lat="45.14118" lon="4.97838">
        <ele>232.84269714356</ele>
        <time>2009-12-09T12:43:16Z</time>
      </trkpt>
      <trkpt lat="45.14187" lon="4.97805">
        <ele>238.49963378906</ele>
        <time>2009-12-09T12:43:31Z</time>
      </trkpt>
      <trkpt lat="45.14257" lon="4.97771">
        <ele>244.7663269043</ele>
        <time>2009-12-09T12:43:46Z</time>
      </trkpt>
      <trkpt lat="45.14311" lon="4.97742">
        <ele>247.09663391113</ele>
        <time>2009-12-09T12:43:58Z</time>
      </trkpt>
      <trkpt lat="45.14349" lon="4.97714">
        <ele>247.76652526856</ele>
        <time>2009-12-09T12:44:07Z</time>
      </trkpt>
      <trkpt lat="45.14386" lon="4.97681">
        <ele>244.46423339844</ele>
        <time>2009-12-09T12:44:16Z</time>
      </trkpt>
      <trkpt lat="45.14426" lon="4.97647">
        <ele>239.06855773926</ele>
        <time>2009-12-09T12:44:25Z</time>
      </trkpt>
      <trkpt lat="45.14479" lon="4.97602">
        <ele>238.22663879394</ele>
        <time>2009-12-09T12:44:37Z</time>
      </trkpt>
      <trkpt lat="45.14523" lon="4.97565">
        <ele>237.46333312988</ele>
        <time>2009-12-09T12:44:47Z</time>
      </trkpt>
      <trkpt lat="45.14573" lon="4.97532">
        <ele>239.77854919434</ele>
        <time>2009-12-09T12:44:58Z</time>
      </trkpt>
      <trkpt lat="45.14626" lon="4.97505">
        <ele>242.66044616699</ele>
        <time>2009-12-09T12:45:09Z</time>
      </trkpt>
      <trkpt lat="45.14674" lon="4.97486">
        <ele>246.59925842285</ele>
        <time>2009-12-09T12:45:19Z</time>
      </trkpt>
      <trkpt lat="45.14721" lon="4.9747">
        <ele>250.15559387207</ele>
        <time>2009-12-09T12:45:29Z</time>
      </trkpt>
      <trkpt lat="45.14759" lon="4.97456">
        <ele>253.53085327148</ele>
        <time>2009-12-09T12:45:37Z</time>
      </trkpt>
      <trkpt lat="45.14802" lon="4.97452">
        <ele>254.44638061523</ele>
        <time>2009-12-09T12:45:46Z</time>
      </trkpt>
      <trkpt lat="45.14848" lon="4.97451">
        <ele>254.7013092041</ele>
        <time>2009-12-09T12:45:56Z</time>
      </trkpt>
      <trkpt lat="45.14895" lon="4.9745">
        <ele>254.86953735352</ele>
        <time>2009-12-09T12:46:06Z</time>
      </trkpt>
      <trkpt lat="45.14934" lon="4.97449">
        <ele>253.30911254883</ele>
        <time>2009-12-09T12:46:14Z</time>
      </trkpt>
      <trkpt lat="45.14983" lon="4.97453">
        <ele>248.15606689453</ele>
        <time>2009-12-09T12:46:24Z</time>
      </trkpt>
      <trkpt lat="45.15027" lon="4.97442">
        <ele>246.46060180664</ele>
        <time>2009-12-09T12:46:33Z</time>
      </trkpt>
      <trkpt lat="45.15074" lon="4.97424">
        <ele>245.28015136719</ele>
        <time>2009-12-09T12:46:43Z</time>
      </trkpt>
      <trkpt lat="45.1512" lon="4.97398">
        <ele>246.05758666992</ele>
        <time>2009-12-09T12:46:53Z</time>
      </trkpt>
      <trkpt lat="45.15166" lon="4.97372">
        <ele>246.62178039551</ele>
        <time>2009-12-09T12:47:03Z</time>
      </trkpt>
      <trkpt lat="45.15166" lon="4.97372">
        <ele>246.62178039551</ele>
        <time>2009-12-09T12:47:06Z</time>
      </trkpt>
      <trkpt lat="45.15228" lon="4.97333">
        <ele>248.01319885254</ele>
        <time>2009-12-09T12:47:16Z</time>
      </trkpt>
      <trkpt lat="45.15269" lon="4.97307">
        <ele>251.18507385254</ele>
        <time>2009-12-09T12:47:25Z</time>
      </trkpt>
      <trkpt lat="45.15281" lon="4.97299">
        <ele>252.68406677246</ele>
        <time>2009-12-09T12:47:28Z</time>
      </trkpt>
      <trkpt lat="45.15283" lon="4.97316">
        <ele>253.66665649414</ele>
        <time>2009-12-09T12:47:30Z</time>
      </trkpt>
      <trkpt lat="45.15289" lon="4.97367">
        <ele>254.95994567871</ele>
        <time>2009-12-09T12:47:37Z</time>
      </trkpt>
      <trkpt lat="45.15292" lon="4.97396">
        <ele>255.39788818359</ele>
        <time>2009-12-09T12:47:41Z</time>
      </trkpt>
      <trkpt lat="45.153" lon="4.97427">
        <ele>255.99127197266</ele>
        <time>2009-12-09T12:47:46Z</time>
      </trkpt>
      <trkpt lat="45.15305" lon="4.97445">
        <ele>255.35250854492</ele>
        <time>2009-12-09T12:47:49Z</time>
      </trkpt>
      <trkpt lat="45.15316" lon="4.97465">
        <ele>255.01878356934</ele>
        <time>2009-12-09T12:47:53Z</time>
      </trkpt>
      <trkpt lat="45.15358" lon="4.975">
        <ele>255.99365234375</ele>
        <time>2009-12-09T12:48:04Z</time>
      </trkpt>
      <trkpt lat="45.15393" lon="4.97521">
        <ele>257.27874755859</ele>
        <time>2009-12-09T12:48:12Z</time>
      </trkpt>
      <trkpt lat="45.15461" lon="4.97563">
        <ele>256.13198852539</ele>
        <time>2009-12-09T12:48:27Z</time>
      </trkpt>
      <trkpt lat="45.1547" lon="4.97568">
        <ele>255.7395324707</ele>
        <time>2009-12-09T12:48:29Z</time>
      </trkpt>
      <trkpt lat="45.1549" lon="4.97598">
        <ele>253.55386352539</ele>
        <time>2009-12-09T12:48:34Z</time>
      </trkpt>
      <trkpt lat="45.15529" lon="4.97659">
        <ele>250.55705261231</ele>
        <time>2009-12-09T12:48:43Z</time>
      </trkpt>
      <trkpt lat="45.15566" lon="4.97705">
        <ele>249.63565063477</ele>
        <time>2009-12-09T12:48:51Z</time>
      </trkpt>
      <trkpt lat="45.15602" lon="4.9774">
        <ele>249.59446716309</ele>
        <time>2009-12-09T12:48:59Z</time>
      </trkpt>
      <trkpt lat="45.15645" lon="4.97767">
        <ele>250.33016967773</ele>
        <time>2009-12-09T12:49:08Z</time>
      </trkpt>
      <trkpt lat="45.1569" lon="4.97781">
        <ele>251.40547180176</ele>
        <time>2009-12-09T12:49:17Z</time>
      </trkpt>
      <trkpt lat="45.15754" lon="4.97799">
        <ele>253.60981750488</ele>
        <time>2009-12-09T12:49:30Z</time>
      </trkpt>
      <trkpt lat="45.15816" lon="4.97817">
        <ele>253.95971679688</ele>
        <time>2009-12-09T12:49:43Z</time>
      </trkpt>
      <trkpt lat="45.15868" lon="4.97832">
        <ele>254.43290710449</ele>
        <time>2009-12-09T12:49:54Z</time>
      </trkpt>
      <trkpt lat="45.15919" lon="4.97845">
        <ele>255.33563232422</ele>
        <time>2009-12-09T12:50:05Z</time>
      </trkpt>
      <trkpt lat="45.15957" lon="4.97851">
        <ele>256.18804931641</ele>
        <time>2009-12-09T12:50:13Z</time>
      </trkpt>
      <trkpt lat="45.16" lon="4.97857">
        <ele>257.00314331055</ele>
        <time>2009-12-09T12:50:22Z</time>
      </trkpt>
      <trkpt lat="45.16039" lon="4.97862">
        <ele>257.30157470703</ele>
        <time>2009-12-09T12:50:30Z</time>
      </trkpt>
      <trkpt lat="45.16083" lon="4.97869">
        <ele>257.57452392578</ele>
        <time>2009-12-09T12:50:39Z</time>
      </trkpt>
      <trkpt lat="45.16119" lon="4.97874">
        <ele>258.16290283203</ele>
        <time>2009-12-09T12:50:48Z</time>
      </trkpt>
      <trkpt lat="45.16165" lon="4.9788">
        <ele>258.86575317383</ele>
        <time>2009-12-09T12:50:56Z</time>
      </trkpt>
      <trkpt lat="45.16188" lon="4.97882">
        <ele>258.8669128418</ele>
        <time>2009-12-09T12:51:04Z</time>
      </trkpt>
      <trkpt lat="45.16232" lon="4.97884">
        <ele>258.95272827148</ele>
        <time>2009-12-09T12:51:10Z</time>
      </trkpt>
      <trkpt lat="45.16282" lon="4.97869">
        <ele>259.43502807617</ele>
        <time>2009-12-09T12:51:20Z</time>
      </trkpt>
      <trkpt lat="45.16347" lon="4.97851">
        <ele>260.81491088867</ele>
        <time>2009-12-09T12:51:33Z</time>
      </trkpt>
      <trkpt lat="45.16401" lon="4.97838">
        <ele>261.78234863281</ele>
        <time>2009-12-09T12:51:44Z</time>
      </trkpt>
      <trkpt lat="45.1642" lon="4.97834">
        <ele>262</ele>
        <time>2009-12-09T12:51:48Z</time>
      </trkpt>
      <trkpt lat="45.16484" lon="4.97821">
        <ele>262.24267578125</ele>
        <time>2009-12-09T12:52:01Z</time>
      </trkpt>
      <trkpt lat="45.16543" lon="4.97809">
        <ele>263.31619262695</ele>
        <time>2009-12-09T12:52:13Z</time>
      </trkpt>
      <trkpt lat="45.16604" lon="4.97796">
        <ele>264.38870239258</ele>
        <time>2009-12-09T12:52:25Z</time>
      </trkpt>
      <trkpt lat="45.16661" lon="4.97782">
        <ele>265.28991699219</ele>
        <time>2009-12-09T12:52:36Z</time>
      </trkpt>
      <trkpt lat="45.16705" lon="4.97771">
        <ele>266.15542602539</ele>
        <time>2009-12-09T12:52:45Z</time>
      </trkpt>
      <trkpt lat="45.16751" lon="4.97754">
        <ele>267.17373657227</ele>
        <time>2009-12-09T12:52:55Z</time>
      </trkpt>
      <trkpt lat="45.16797" lon="4.97737">
        <ele>270.57305908203</ele>
        <time>2009-12-09T12:53:05Z</time>
      </trkpt>
      <trkpt lat="45.1684" lon="4.97723">
        <ele>273.54321289062</ele>
        <time>2009-12-09T12:53:15Z</time>
      </trkpt>
      <trkpt lat="45.16875" lon="4.97708">
        <ele>276.68969726562</ele>
        <time>2009-12-09T12:53:24Z</time>
      </trkpt>
      <trkpt lat="45.16909" lon="4.97694">
        <ele>278.45227050781</ele>
        <time>2009-12-09T12:53:33Z</time>
      </trkpt>
      <trkpt lat="45.16943" lon="4.97686">
        <ele>279.31359863281</ele>
        <time>2009-12-09T12:53:42Z</time>
      </trkpt>
      <trkpt lat="45.16973" lon="4.97679">
        <ele>279.49545288086</ele>
        <time>2009-12-09T12:53:49Z</time>
      </trkpt>
      <trkpt lat="45.17007" lon="4.97672">
        <ele>279.09289550781</ele>
        <time>2009-12-09T12:53:56Z</time>
      </trkpt>
      <trkpt lat="45.17068" lon="4.97662">
        <ele>277.80618286133</ele>
        <time>2009-12-09T12:54:08Z</time>
      </trkpt>
      <trkpt lat="45.17123" lon="4.97655">
        <ele>277.64477539062</ele>
        <time>2009-12-09T12:54:20Z</time>
      </trkpt>
      <trkpt lat="45.17169" lon="4.97638">
        <ele>277.38739013672</ele>
        <time>2009-12-09T12:54:28Z</time>
      </trkpt>
      <trkpt lat="45.17208" lon="4.97623">
        <ele>278.40481567383</ele>
        <time>2009-12-09T12:54:36Z</time>
      </trkpt>
      <trkpt lat="45.17232" lon="4.97622">
        <ele>279.23693847656</ele>
        <time>2009-12-09T12:54:41Z</time>
      </trkpt>
      <trkpt lat="45.17287" lon="4.97627">
        <ele>280.28503417969</ele>
        <time>2009-12-09T12:54:52Z</time>
      </trkpt>
      <trkpt lat="45.17342" lon="4.97632">
        <ele>280.66555786133</ele>
        <time>2009-12-09T12:55:03Z</time>
      </trkpt>
      <trkpt lat="45.17379" lon="4.97632">
        <ele>281.0442199707</ele>
        <time>2009-12-09T12:55:11Z</time>
      </trkpt>
      <trkpt lat="45.17384" lon="4.97631">
        <ele>281.08731079102</ele>
        <time>2009-12-09T12:55:12Z</time>
      </trkpt>
      <trkpt lat="45.17406" lon="4.97629">
        <ele>281.33938598633</ele>
        <time>2009-12-09T12:55:18Z</time>
      </trkpt>
      <trkpt lat="45.1743" lon="4.97632">
        <ele>281.80041503906</ele>
        <time>2009-12-09T12:55:25Z</time>
      </trkpt>
      <trkpt lat="45.17463" lon="4.97587">
        <ele>283.60110473633</ele>
        <time>2009-12-09T12:55:34Z</time>
      </trkpt>
      <trkpt lat="45.17492" lon="4.97576">
        <ele>284.89266967773</ele>
        <time>2009-12-09T12:55:42Z</time>
      </trkpt>
      <trkpt lat="45.17514" lon="4.9757">
        <ele>286.62817382812</ele>
        <time>2009-12-09T12:55:48Z</time>
      </trkpt>
      <trkpt lat="45.17543" lon="4.97558">
        <ele>289.23376464844</ele>
        <time>2009-12-09T12:55:56Z</time>
      </trkpt>
      <trkpt lat="45.17553" lon="4.97552">
        <ele>290.14929199219</ele>
        <time>2009-12-09T12:55:59Z</time>
      </trkpt>
      <trkpt lat="45.17578" lon="4.97539">
        <ele>292.06771850586</ele>
        <time>2009-12-09T12:56:07Z</time>
      </trkpt>
      <trkpt lat="45.17618" lon="4.97517">
        <ele>294.97692871094</ele>
        <time>2009-12-09T12:56:17Z</time>
      </trkpt>
      <trkpt lat="45.17644" lon="4.97503">
        <ele>296.49114990234</ele>
        <time>2009-12-09T12:56:24Z</time>
      </trkpt>
      <trkpt lat="45.17662" lon="4.97493">
        <ele>297.52648925781</ele>
        <time>2009-12-09T12:56:29Z</time>
      </trkpt>
      <trkpt lat="45.17673" lon="4.97488">
        <ele>297.85079956055</ele>
        <time>2009-12-09T12:56:32Z</time>
      </trkpt>
      <trkpt lat="45.17673" lon="4.97488">
        <ele>297.85079956055</ele>
        <time>2009-12-09T12:56:38Z</time>
      </trkpt>
      <trkpt lat="45.17723" lon="4.97501">
        <ele>298.75299072266</ele>
        <time>2009-12-09T12:56:44Z</time>
      </trkpt>
      <trkpt lat="45.17749" lon="4.97508">
        <ele>299.53619384766</ele>
        <time>2009-12-09T12:56:50Z</time>
      </trkpt>
      <trkpt lat="45.17768" lon="4.97525">
        <ele>302.45672607422</ele>
        <time>2009-12-09T12:56:55Z</time>
      </trkpt>
      <trkpt lat="45.17782" lon="4.9754">
        <ele>304.59613037109</ele>
        <time>2009-12-09T12:56:59Z</time>
      </trkpt>
      <trkpt lat="45.17821" lon="4.97548">
        <ele>308.15225219727</ele>
        <time>2009-12-09T12:57:07Z</time>
      </trkpt>
      <trkpt lat="45.17841" lon="4.97545">
        <ele>310.26525878906</ele>
        <time>2009-12-09T12:57:11Z</time>
      </trkpt>
      <trkpt lat="45.17844" lon="4.97527">
        <ele>310.31884765625</ele>
        <time>2009-12-09T12:57:14Z</time>
      </trkpt>
      <trkpt lat="45.17837" lon="4.97519">
        <ele>308.9684753418</ele>
        <time>2009-12-09T12:57:16Z</time>
      </trkpt>
      <trkpt lat="45.17814" lon="4.97499">
        <ele>306</ele>
        <time>2009-12-09T12:57:21Z</time>
      </trkpt>
      <trkpt lat="45.17794" lon="4.97477">
        <ele>305.50213623047</ele>
        <time>2009-12-09T12:57:26Z</time>
      </trkpt>
      <trkpt lat="45.17788" lon="4.97445">
        <ele>307.03735351562</ele>
        <time>2009-12-09T12:57:31Z</time>
      </trkpt>
      <trkpt lat="45.17793" lon="4.97434">
        <ele>308.42175292969</ele>
        <time>2009-12-09T12:57:33Z</time>
      </trkpt>
      <trkpt lat="45.17805" lon="4.97437">
        <ele>309.66787719727</ele>
        <time>2009-12-09T12:57:36Z</time>
      </trkpt>
      <trkpt lat="45.17813" lon="4.97451">
        <ele>309.66174316406</ele>
        <time>2009-12-09T12:57:39Z</time>
      </trkpt>
      <trkpt lat="45.17833" lon="4.97468">
        <ele>310.67181396484</ele>
        <time>2009-12-09T12:57:44Z</time>
      </trkpt>
      <trkpt lat="45.17842" lon="4.9747">
        <ele>311.60943603516</ele>
        <time>2009-12-09T12:57:46Z</time>
      </trkpt>
      <trkpt lat="45.17852" lon="4.97469">
        <ele>312.76095581055</ele>
        <time>2009-12-09T12:57:48Z</time>
      </trkpt>
      <trkpt lat="45.17869" lon="4.97466">
        <ele>315.04293823242</ele>
        <time>2009-12-09T12:57:52Z</time>
      </trkpt>
      <trkpt lat="45.17877" lon="4.97462">
        <ele>316.26904296875</ele>
        <time>2009-12-09T12:57:54Z</time>
      </trkpt>
      <trkpt lat="45.17907" lon="4.97445">
        <ele>320.55657958984</ele>
        <time>2009-12-09T12:58:02Z</time>
      </trkpt>
      <trkpt lat="45.17918" lon="4.97438">
        <ele>322.03829956055</ele>
        <time>2009-12-09T12:58:05Z</time>
      </trkpt>
      <trkpt lat="45.17941" lon="4.97446">
        <ele>323.54449462891</ele>
        <time>2009-12-09T12:58:12Z</time>
      </trkpt>
      <trkpt lat="45.17959" lon="4.97454">
        <ele>324.36468505859</ele>
        <time>2009-12-09T12:58:17Z</time>
      </trkpt>
      <trkpt lat="45.17985" lon="4.97459">
        <ele>325.88021850586</ele>
        <time>2009-12-09T12:58:24Z</time>
      </trkpt>
      <trkpt lat="45.18003" lon="4.97462">
        <ele>327.03253173828</ele>
        <time>2009-12-09T12:58:29Z</time>
      </trkpt>
      <trkpt lat="45.18019" lon="4.97465">
        <ele>329.08187866211</ele>
        <time>2009-12-09T12:58:34Z</time>
      </trkpt>
      <trkpt lat="45.18023" lon="4.97466">
        <ele>329.44189453125</ele>
        <time>2009-12-09T12:58:35Z</time>
      </trkpt>
      <trkpt lat="45.18024" lon="4.97453">
        <ele>331.0837097168</ele>
        <time>2009-12-09T12:58:39Z</time>
      </trkpt>
      <trkpt lat="45.18022" lon="4.9745">
        <ele>331.09481811523</ele>
        <time>2009-12-09T12:58:40Z</time>
      </trkpt>
      <trkpt lat="45.18" lon="4.9742">
        <ele>330.6171875</ele>
        <time>2009-12-09T12:58:48Z</time>
      </trkpt>
      <trkpt lat="45.17988" lon="4.97387">
        <ele>332.48217773438</ele>
        <time>2009-12-09T12:58:55Z</time>
      </trkpt>
      <trkpt lat="45.17986" lon="4.97343">
        <ele>336.00845336914</ele>
        <time>2009-12-09T12:59:04Z</time>
      </trkpt>
      <trkpt lat="45.17982" lon="4.97294">
        <ele>338.33111572266</ele>
        <time>2009-12-09T12:59:13Z</time>
      </trkpt>
      <trkpt lat="45.17976" lon="4.97247">
        <ele>340.24215698242</ele>
        <time>2009-12-09T12:59:22Z</time>
      </trkpt>
      <trkpt lat="45.17976" lon="4.97222">
        <ele>341.90307617188</ele>
        <time>2009-12-09T12:59:27Z</time>
      </trkpt>
      <trkpt lat="45.17989" lon="4.97205">
        <ele>343.54083251953</ele>
        <time>2009-12-09T12:59:32Z</time>
      </trkpt>
      <trkpt lat="45.18004" lon="4.97203">
        <ele>344.56362915039</ele>
        <time>2009-12-09T12:59:37Z</time>
      </trkpt>
      <trkpt lat="45.18014" lon="4.97202">
        <ele>345.74533081055</ele>
        <time>2009-12-09T12:59:40Z</time>
      </trkpt>
      <trkpt lat="45.18044" lon="4.97198">
        <ele>348.95236206055</ele>
        <time>2009-12-09T12:59:48Z</time>
      </trkpt>
      <trkpt lat="45.18051" lon="4.97195">
        <ele>349.64877319336</ele>
        <time>2009-12-09T12:59:50Z</time>
      </trkpt>
      <trkpt lat="45.18081" lon="4.97186">
        <ele>352.10668945312</ele>
        <time>2009-12-09T12:59:58Z</time>
      </trkpt>
      <trkpt lat="45.18097" lon="4.97169">
        <ele>353.86059570312</ele>
        <time>2009-12-09T13:00:04Z</time>
      </trkpt>
      <trkpt lat="45.18108" lon="4.97137">
        <ele>357.52737426758</ele>
        <time>2009-12-09T13:00:12Z</time>
      </trkpt>
      <trkpt lat="45.18112" lon="4.97107">
        <ele>359.65484619141</ele>
        <time>2009-12-09T13:00:18Z</time>
      </trkpt>
      <trkpt lat="45.18114" lon="4.97086">
        <ele>361.00714111328</ele>
        <time>2009-12-09T13:00:22Z</time>
      </trkpt>
      <trkpt lat="45.18127" lon="4.97076">
        <ele>363.40060424805</ele>
        <time>2009-12-09T13:00:26Z</time>
      </trkpt>
      <trkpt lat="45.18139" lon="4.97086">
        <ele>364.22924804688</ele>
        <time>2009-12-09T13:00:30Z</time>
      </trkpt>
      <trkpt lat="45.18142" lon="4.97095">
        <ele>364.44128417969</ele>
        <time>2009-12-09T13:00:32Z</time>
      </trkpt>
      <trkpt lat="45.1815" lon="4.97139">
        <ele>364.927734375</ele>
        <time>2009-12-09T13:00:40Z</time>
      </trkpt>
      <trkpt lat="45.18157" lon="4.9718">
        <ele>366.03472900391</ele>
        <time>2009-12-09T13:00:48Z</time>
      </trkpt>
      <trkpt lat="45.18161" lon="4.97209">
        <ele>366.51617431641</ele>
        <time>2009-12-09T13:00:54Z</time>
      </trkpt>
      <trkpt lat="45.18165" lon="4.97247">
        <ele>366.80630493164</ele>
        <time>2009-12-09T13:01:02Z</time>
      </trkpt>
      <trkpt lat="45.18169" lon="4.97271">
        <ele>366.69903564453</ele>
        <time>2009-12-09T13:01:07Z</time>
      </trkpt>
      <trkpt lat="45.18171" lon="4.97277">
        <ele>366.70428466797</ele>
        <time>2009-12-09T13:01:11Z</time>
      </trkpt>
      <trkpt lat="45.18208" lon="4.97281">
        <ele>369.79373168945</ele>
        <time>2009-12-09T13:01:18Z</time>
      </trkpt>
      <trkpt lat="45.18209" lon="4.97282">
        <ele>369.90991210938</ele>
        <time>2009-12-09T13:01:24Z</time>
      </trkpt>
      <trkpt lat="45.18239" lon="4.97273">
        <ele>373.61923217773</ele>
        <time>2009-12-09T13:01:29Z</time>
      </trkpt>
      <trkpt lat="45.1825" lon="4.97293">
        <ele>371.90313720703</ele>
        <time>2009-12-09T13:01:33Z</time>
      </trkpt>
      <trkpt lat="45.18258" lon="4.97304">
        <ele>371.29202270508</ele>
        <time>2009-12-09T13:01:35Z</time>
      </trkpt>
      <trkpt lat="45.18305" lon="4.97345">
        <ele>372.07098388672</ele>
        <time>2009-12-09T13:01:44Z</time>
      </trkpt>
      <trkpt lat="45.18315" lon="4.97354">
        <ele>371.98587036133</ele>
        <time>2009-12-09T13:01:46Z</time>
      </trkpt>
      <trkpt lat="45.1833" lon="4.97374">
        <ele>370.3498840332</ele>
        <time>2009-12-09T13:01:50Z</time>
      </trkpt>
      <trkpt lat="45.18339" lon="4.97393">
        <ele>368.77319335938</ele>
        <time>2009-12-09T13:01:54Z</time>
      </trkpt>
      <trkpt lat="45.18341" lon="4.97398">
        <ele>368.46255493164</ele>
        <time>2009-12-09T13:01:55Z</time>
      </trkpt>
      <trkpt lat="45.18349" lon="4.97414">
        <ele>367.69305419922</ele>
        <time>2009-12-09T13:01:58Z</time>
      </trkpt>
      <trkpt lat="45.18365" lon="4.9745">
        <ele>368.56655883789</ele>
        <time>2009-12-09T13:02:04Z</time>
      </trkpt>
      <trkpt lat="45.18368" lon="4.97457">
        <ele>368.69598388672</ele>
        <time>2009-12-09T13:02:05Z</time>
      </trkpt>
      <trkpt lat="45.1838" lon="4.97483">
        <ele>368.83755493164</ele>
        <time>2009-12-09T13:02:10Z</time>
      </trkpt>
      <trkpt lat="45.18393" lon="4.97511">
        <ele>369.02313232422</ele>
        <time>2009-12-09T13:02:17Z</time>
      </trkpt>
      <trkpt lat="45.18409" lon="4.97541">
        <ele>369.78112792969</ele>
        <time>2009-12-09T13:02:25Z</time>
      </trkpt>
      <trkpt lat="45.18412" lon="4.97547">
        <ele>369.79669189453</ele>
        <time>2009-12-09T13:02:27Z</time>
      </trkpt>
      <trkpt lat="45.18418" lon="4.97555">
        <ele>369.91998291016</ele>
        <time>2009-12-09T13:02:31Z</time>
      </trkpt>
      <trkpt lat="45.18416" lon="4.97553">
        <ele>369.78134155273</ele>
        <time>2009-12-09T13:02:35Z</time>
      </trkpt>
      <trkpt lat="45.18407" lon="4.97537">
        <ele>369.71667480469</ele>
        <time>2009-12-09T13:02:40Z</time>
      </trkpt>
      <trkpt lat="45.18394" lon="4.97513">
        <ele>369.11614990234</ele>
        <time>2009-12-09T13:02:44Z</time>
      </trkpt>
      <trkpt lat="45.18373" lon="4.97469">
        <ele>368.79275512695</ele>
        <time>2009-12-09T13:02:49Z</time>
      </trkpt>
      <trkpt lat="45.18353" lon="4.97424">
        <ele>367.88763427734</ele>
        <time>2009-12-09T13:02:54Z</time>
      </trkpt>
      <trkpt lat="45.1834" lon="4.97394">
        <ele>368.69665527344</ele>
        <time>2009-12-09T13:02:58Z</time>
      </trkpt>
      <trkpt lat="45.18322" lon="4.97361">
        <ele>371.67535400391</ele>
        <time>2009-12-09T13:03:03Z</time>
      </trkpt>
      <trkpt lat="45.18317" lon="4.97356">
        <ele>371.9416809082</ele>
        <time>2009-12-09T13:03:04Z</time>
      </trkpt>
      <trkpt lat="45.1827" lon="4.97315">
        <ele>371.49801635742</ele>
        <time>2009-12-09T13:03:13Z</time>
      </trkpt>
      <trkpt lat="45.1826" lon="4.97306">
        <ele>371.36068725586</ele>
        <time>2009-12-09T13:03:15Z</time>
      </trkpt>
      <trkpt lat="45.18249" lon="4.9729">
        <ele>372.17526245117</ele>
        <time>2009-12-09T13:03:18Z</time>
      </trkpt>
      <trkpt lat="45.18242" lon="4.97277">
        <ele>373.30517578125</ele>
        <time>2009-12-09T13:03:21Z</time>
      </trkpt>
      <trkpt lat="45.18239" lon="4.97273">
        <ele>373.61923217773</ele>
        <time>2009-12-09T13:03:23Z</time>
      </trkpt>
      <trkpt lat="45.1824" lon="4.97235">
        <ele>378.31622314453</ele>
        <time>2009-12-09T13:03:28Z</time>
      </trkpt>
      <trkpt lat="45.18225" lon="4.9719">
        <ele>379.86331176758</ele>
        <time>2009-12-09T13:03:35Z</time>
      </trkpt>
      <trkpt lat="45.18221" lon="4.97141">
        <ele>382.34509277344</ele>
        <time>2009-12-09T13:03:42Z</time>
      </trkpt>
      <trkpt lat="45.18218" lon="4.97088">
        <ele>384.44931030273</ele>
        <time>2009-12-09T13:03:49Z</time>
      </trkpt>
      <trkpt lat="45.18216" lon="4.97026">
        <ele>383.19473266602</ele>
        <time>2009-12-09T13:03:58Z</time>
      </trkpt>
      <trkpt lat="45.18214" lon="4.96968">
        <ele>382.32788085938</ele>
        <time>2009-12-09T13:04:06Z</time>
      </trkpt>
      <trkpt lat="45.18216" lon="4.96915">
        <ele>382.48348999023</ele>
        <time>2009-12-09T13:04:14Z</time>
      </trkpt>
      <trkpt lat="45.18217" lon="4.96878">
        <ele>383.36679077148</ele>
        <time>2009-12-09T13:04:21Z</time>
      </trkpt>
      <trkpt lat="45.18217" lon="4.96858">
        <ele>383.74450683594</ele>
        <time>2009-12-09T13:04:27Z</time>
      </trkpt>
      <trkpt lat="45.18217" lon="4.96853">
        <ele>383.82333374023</ele>
        <time>2009-12-09T13:04:30Z</time>
      </trkpt>
      <trkpt lat="45.18217" lon="4.96854">
        <ele>383.80572509766</ele>
        <time>2009-12-09T13:04:36Z</time>
      </trkpt>
      <trkpt lat="45.18217" lon="4.96854">
        <ele>383.80572509766</ele>
        <time>2009-12-09T13:05:18Z</time>
      </trkpt>
      <trkpt lat="45.18217" lon="4.96858">
        <ele>383.74450683594</ele>
        <time>2009-12-09T13:05:19Z</time>
      </trkpt>
      <trkpt lat="45.18242" lon="4.96875">
        <ele>384.6008605957</ele>
        <time>2009-12-09T13:05:24Z</time>
      </trkpt>
      <trkpt lat="45.18264" lon="4.96888">
        <ele>384.54949951172</ele>
        <time>2009-12-09T13:05:29Z</time>
      </trkpt>
      <trkpt lat="45.1829" lon="4.96903">
        <ele>384.36669921875</ele>
        <time>2009-12-09T13:05:34Z</time>
      </trkpt>
      <trkpt lat="45.18307" lon="4.96915">
        <ele>385.34692382812</ele>
        <time>2009-12-09T13:05:37Z</time>
      </trkpt>
      <trkpt lat="45.18326" lon="4.9693">
        <ele>387.55960083008</ele>
        <time>2009-12-09T13:05:40Z</time>
      </trkpt>
      <trkpt lat="45.18365" lon="4.96947">
        <ele>386.97937011719</ele>
        <time>2009-12-09T13:05:45Z</time>
      </trkpt>
      <trkpt lat="45.18399" lon="4.96951">
        <ele>384.01837158203</ele>
        <time>2009-12-09T13:05:49Z</time>
      </trkpt>
      <trkpt lat="45.18431" lon="4.96955">
        <ele>383.29257202148</ele>
        <time>2009-12-09T13:05:53Z</time>
      </trkpt>
      <trkpt lat="45.18481" lon="4.96939">
        <ele>379.89584350586</ele>
        <time>2009-12-09T13:06:00Z</time>
      </trkpt>
      <trkpt lat="45.18502" lon="4.96927">
        <ele>377.46682739258</ele>
        <time>2009-12-09T13:06:03Z</time>
      </trkpt>
      <trkpt lat="45.18529" lon="4.96918">
        <ele>374.29681396484</ele>
        <time>2009-12-09T13:06:07Z</time>
      </trkpt>
      <trkpt lat="45.18542" lon="4.96921">
        <ele>374.44787597656</ele>
        <time>2009-12-09T13:06:09Z</time>
      </trkpt>
      <trkpt lat="45.18577" lon="4.96943">
        <ele>378.57690429688</ele>
        <time>2009-12-09T13:06:15Z</time>
      </trkpt>
      <trkpt lat="45.18593" lon="4.96954">
        <ele>379.48013305664</ele>
        <time>2009-12-09T13:06:18Z</time>
      </trkpt>
      <trkpt lat="45.18608" lon="4.96964">
        <ele>379.3713684082</ele>
        <time>2009-12-09T13:06:23Z</time>
      </trkpt>
      <trkpt lat="45.18645" lon="4.96979">
        <ele>376.21688842773</ele>
        <time>2009-12-09T13:06:29Z</time>
      </trkpt>
      <trkpt lat="45.1865" lon="4.9698">
        <ele>375.69607543945</ele>
        <time>2009-12-09T13:06:30Z</time>
      </trkpt>
      <trkpt lat="45.18682" lon="4.9702">
        <ele>377.74893188477</ele>
        <time>2009-12-09T13:06:38Z</time>
      </trkpt>
      <trkpt lat="45.18719" lon="4.97065">
        <ele>381.98263549805</ele>
        <time>2009-12-09T13:06:46Z</time>
      </trkpt>
      <trkpt lat="45.1873" lon="4.97075">
        <ele>382.63153076172</ele>
        <time>2009-12-09T13:06:48Z</time>
      </trkpt>
      <trkpt lat="45.18742" lon="4.97082">
        <ele>382.67532348633</ele>
        <time>2009-12-09T13:06:50Z</time>
      </trkpt>
      <trkpt lat="45.18773" lon="4.97087">
        <ele>385.177734375</ele>
        <time>2009-12-09T13:06:55Z</time>
      </trkpt>
      <trkpt lat="45.18784" lon="4.97079">
        <ele>384.75152587891</ele>
        <time>2009-12-09T13:06:57Z</time>
      </trkpt>
      <trkpt lat="45.18821" lon="4.97051">
        <ele>383.32864379883</ele>
        <time>2009-12-09T13:07:05Z</time>
      </trkpt>
      <trkpt lat="45.18852" lon="4.97028">
        <ele>381.51870727539</ele>
        <time>2009-12-09T13:07:12Z</time>
      </trkpt>
      <trkpt lat="45.18884" lon="4.97019">
        <ele>381.93649291992</ele>
        <time>2009-12-09T13:07:19Z</time>
      </trkpt>
      <trkpt lat="45.18922" lon="4.97011">
        <ele>382.61514282227</ele>
        <time>2009-12-09T13:07:27Z</time>
      </trkpt>
      <trkpt lat="45.18955" lon="4.97013">
        <ele>381.19409179688</ele>
        <time>2009-12-09T13:07:33Z</time>
      </trkpt>
      <trkpt lat="45.18968" lon="4.97017">
        <ele>381.03924560547</ele>
        <time>2009-12-09T13:07:35Z</time>
      </trkpt>
      <trkpt lat="45.19016" lon="4.97046">
        <ele>381.58221435547</ele>
        <time>2009-12-09T13:07:42Z</time>
      </trkpt>
      <trkpt lat="45.19024" lon="4.97051">
        <ele>381.53515625</ele>
        <time>2009-12-09T13:07:43Z</time>
      </trkpt>
      <trkpt lat="45.19057" lon="4.97056">
        <ele>379.12609863281</ele>
        <time>2009-12-09T13:07:47Z</time>
      </trkpt>
      <trkpt lat="45.19113" lon="4.9704">
        <ele>373.3551940918</ele>
        <time>2009-12-09T13:07:53Z</time>
      </trkpt>
      <trkpt lat="45.19146" lon="4.97042">
        <ele>372.07345581055</ele>
        <time>2009-12-09T13:07:57Z</time>
      </trkpt>
      <trkpt lat="45.19159" lon="4.97057">
        <ele>373.23043823242</ele>
        <time>2009-12-09T13:07:59Z</time>
      </trkpt>
      <trkpt lat="45.19186" lon="4.97084">
        <ele>374.95263671875</ele>
        <time>2009-12-09T13:08:03Z</time>
      </trkpt>
      <trkpt lat="45.19221" lon="4.97105">
        <ele>375.88101196289</ele>
        <time>2009-12-09T13:08:08Z</time>
      </trkpt>
      <trkpt lat="45.19255" lon="4.97108">
        <ele>374.1731262207</ele>
        <time>2009-12-09T13:08:13Z</time>
      </trkpt>
      <trkpt lat="45.19291" lon="4.971">
        <ele>373.07415771484</ele>
        <time>2009-12-09T13:08:19Z</time>
      </trkpt>
      <trkpt lat="45.19322" lon="4.9709">
        <ele>371.85818481445</ele>
        <time>2009-12-09T13:08:24Z</time>
      </trkpt>
      <trkpt lat="45.19351" lon="4.97076">
        <ele>369.21768188477</ele>
        <time>2009-12-09T13:08:28Z</time>
      </trkpt>
      <trkpt lat="45.19386" lon="4.9705">
        <ele>364.82528686523</ele>
        <time>2009-12-09T13:08:32Z</time>
      </trkpt>
      <trkpt lat="45.19397" lon="4.97049">
        <ele>364.3596496582</ele>
        <time>2009-12-09T13:08:33Z</time>
      </trkpt>
      <trkpt lat="45.19451" lon="4.97034">
        <ele>362.19766235352</ele>
        <time>2009-12-09T13:08:38Z</time>
      </trkpt>
      <trkpt lat="45.19474" lon="4.97028">
        <ele>361.68365478516</ele>
        <time>2009-12-09T13:08:41Z</time>
      </trkpt>
      <trkpt lat="45.19504" lon="4.9702">
        <ele>360.95440673828</ele>
        <time>2009-12-09T13:08:47Z</time>
      </trkpt>
      <trkpt lat="45.19534" lon="4.97016">
        <ele>359.09289550781</ele>
        <time>2009-12-09T13:08:53Z</time>
      </trkpt>
      <trkpt lat="45.1957" lon="4.97011">
        <ele>357.25802612305</ele>
        <time>2009-12-09T13:08:58Z</time>
      </trkpt>
      <trkpt lat="45.19585" lon="4.97009">
        <ele>356.53253173828</ele>
        <time>2009-12-09T13:09:00Z</time>
      </trkpt>
      <trkpt lat="45.19598" lon="4.97008">
        <ele>355.81756591797</ele>
        <time>2009-12-09T13:09:02Z</time>
      </trkpt>
      <trkpt lat="45.19601" lon="4.97007">
        <ele>355.623046875</ele>
        <time>2009-12-09T13:09:03Z</time>
      </trkpt>
      <trkpt lat="45.19598" lon="4.97019">
        <ele>355.29699707031</ele>
        <time>2009-12-09T13:09:06Z</time>
      </trkpt>
      <trkpt lat="45.19578" lon="4.97065">
        <ele>355.28118896484</ele>
        <time>2009-12-09T13:09:13Z</time>
      </trkpt>
      <trkpt lat="45.19567" lon="4.97091">
        <ele>355.74850463867</ele>
        <time>2009-12-09T13:09:17Z</time>
      </trkpt>
      <trkpt lat="45.19548" lon="4.97135">
        <ele>356.31176757812</ele>
        <time>2009-12-09T13:09:25Z</time>
      </trkpt>
      <trkpt lat="45.19541" lon="4.97153">
        <ele>356.66494750977</ele>
        <time>2009-12-09T13:09:28Z</time>
      </trkpt>
      <trkpt lat="45.19535" lon="4.97184">
        <ele>356.69219970703</ele>
        <time>2009-12-09T13:09:33Z</time>
      </trkpt>
      <trkpt lat="45.19535" lon="4.97248">
        <ele>354.61187744141</ele>
        <time>2009-12-09T13:09:42Z</time>
      </trkpt>
      <trkpt lat="45.19535" lon="4.97298">
        <ele>353.24249267578</ele>
        <time>2009-12-09T13:09:49Z</time>
      </trkpt>
      <trkpt lat="45.19529" lon="4.97322">
        <ele>353.01736450195</ele>
        <time>2009-12-09T13:09:53Z</time>
      </trkpt>
      <trkpt lat="45.19517" lon="4.97329">
        <ele>353.42825317383</ele>
        <time>2009-12-09T13:09:56Z</time>
      </trkpt>
      <trkpt lat="45.195" lon="4.97328">
        <ele>354.42218017578</ele>
        <time>2009-12-09T13:10:00Z</time>
      </trkpt>
      <trkpt lat="45.19471" lon="4.97326">
        <ele>357.94857788086</ele>
        <time>2009-12-09T13:10:07Z</time>
      </trkpt>
      <trkpt lat="45.19453" lon="4.97325">
        <ele>360.13763427734</ele>
        <time>2009-12-09T13:10:14Z</time>
      </trkpt>
      <trkpt lat="45.19453" lon="4.97325">
        <ele>360.13763427734</ele>
        <time>2009-12-09T13:10:18Z</time>
      </trkpt>
      <trkpt lat="45.19395" lon="4.97331">
        <ele>365.64273071289</ele>
        <time>2009-12-09T13:10:26Z</time>
      </trkpt>
      <trkpt lat="45.19372" lon="4.97342">
        <ele>366.66275024414</ele>
        <time>2009-12-09T13:10:33Z</time>
      </trkpt>
      <trkpt lat="45.1933" lon="4.97366">
        <ele>368.08654785156</ele>
        <time>2009-12-09T13:10:41Z</time>
      </trkpt>
      <trkpt lat="45.19309" lon="4.97382">
        <ele>370.36102294922</ele>
        <time>2009-12-09T13:10:45Z</time>
      </trkpt>
      <trkpt lat="45.19308" lon="4.97415">
        <ele>366.19918823242</ele>
        <time>2009-12-09T13:10:48Z</time>
      </trkpt>
      <trkpt lat="45.19311" lon="4.97424">
        <ele>365.91363525391</ele>
        <time>2009-12-09T13:10:49Z</time>
      </trkpt>
      <trkpt lat="45.19312" lon="4.97455">
        <ele>368.08917236328</ele>
        <time>2009-12-09T13:10:52Z</time>
      </trkpt>
      <trkpt lat="45.19321" lon="4.97497">
        <ele>369.71493530273</ele>
        <time>2009-12-09T13:10:56Z</time>
      </trkpt>
      <trkpt lat="45.19327" lon="4.97501">
        <ele>369.06317138672</ele>
        <time>2009-12-09T13:10:57Z</time>
      </trkpt>
      <trkpt lat="45.19354" lon="4.97519">
        <ele>365.06781005859</ele>
        <time>2009-12-09T13:11:02Z</time>
      </trkpt>
      <trkpt lat="45.19377" lon="4.97537">
        <ele>361.56314086914</ele>
        <time>2009-12-09T13:11:06Z</time>
      </trkpt>
      <trkpt lat="45.19381" lon="4.97563">
        <ele>361.47271728516</ele>
        <time>2009-12-09T13:11:09Z</time>
      </trkpt>
      <trkpt lat="45.19374" lon="4.97586">
        <ele>362.9508972168</ele>
        <time>2009-12-09T13:11:12Z</time>
      </trkpt>
      <trkpt lat="45.19344" lon="4.97622">
        <ele>364.92947387695</ele>
        <time>2009-12-09T13:11:19Z</time>
      </trkpt>
      <trkpt lat="45.19315" lon="4.97639">
        <ele>369.06484985352</ele>
        <time>2009-12-09T13:11:25Z</time>
      </trkpt>
      <trkpt lat="45.19271" lon="4.9767">
        <ele>376.5813293457</ele>
        <time>2009-12-09T13:11:34Z</time>
      </trkpt>
      <trkpt lat="45.19251" lon="4.97703">
        <ele>377.91641235352</ele>
        <time>2009-12-09T13:11:40Z</time>
      </trkpt>
      <trkpt lat="45.19221" lon="4.97773">
        <ele>382.33276367188</ele>
        <time>2009-12-09T13:11:51Z</time>
      </trkpt>
      <trkpt lat="45.19215" lon="4.978">
        <ele>382.50759887695</ele>
        <time>2009-12-09T13:11:55Z</time>
      </trkpt>
      <trkpt lat="45.19215" lon="4.97841">
        <ele>380.25659179688</ele>
        <time>2009-12-09T13:12:01Z</time>
      </trkpt>
      <trkpt lat="45.19221" lon="4.97899">
        <ele>381.43356323242</ele>
        <time>2009-12-09T13:12:09Z</time>
      </trkpt>
      <trkpt lat="45.19232" lon="4.97927">
        <ele>381.40896606445</ele>
        <time>2009-12-09T13:12:14Z</time>
      </trkpt>
      <trkpt lat="45.19238" lon="4.97933">
        <ele>381.05572509766</ele>
        <time>2009-12-09T13:12:16Z</time>
      </trkpt>
      <trkpt lat="45.19289" lon="4.97937">
        <ele>376.49682617188</ele>
        <time>2009-12-09T13:12:27Z</time>
      </trkpt>
      <trkpt lat="45.19304" lon="4.97938">
        <ele>375.59936523438</ele>
        <time>2009-12-09T13:12:30Z</time>
      </trkpt>
      <trkpt lat="45.19304" lon="4.97938">
        <ele>375.59936523438</ele>
        <time>2009-12-09T13:12:33Z</time>
      </trkpt>
      <trkpt lat="45.19338" lon="4.97955">
        <ele>375.07330322266</ele>
        <time>2009-12-09T13:12:38Z</time>
      </trkpt>
      <trkpt lat="45.19342" lon="4.9796">
        <ele>375.11953735352</ele>
        <time>2009-12-09T13:12:42Z</time>
      </trkpt>
      <trkpt lat="45.19355" lon="4.98026">
        <ele>381.43936157227</ele>
        <time>2009-12-09T13:12:48Z</time>
      </trkpt>
      <trkpt lat="45.19365" lon="4.9807">
        <ele>384.16616821289</ele>
        <time>2009-12-09T13:12:54Z</time>
      </trkpt>
      <trkpt lat="45.1938" lon="4.98115">
        <ele>386.04940795898</ele>
        <time>2009-12-09T13:13:00Z</time>
      </trkpt>
      <trkpt lat="45.19393" lon="4.98143">
        <ele>386.28128051758</ele>
        <time>2009-12-09T13:13:04Z</time>
      </trkpt>
      <trkpt lat="45.19409" lon="4.98157">
        <ele>383.78732299805</ele>
        <time>2009-12-09T13:13:07Z</time>
      </trkpt>
      <trkpt lat="45.19421" lon="4.98157">
        <ele>381.50189208984</ele>
        <time>2009-12-09T13:13:09Z</time>
      </trkpt>
      <trkpt lat="45.19473" lon="4.98149">
        <ele>378.84036254883</ele>
        <time>2009-12-09T13:13:17Z</time>
      </trkpt>
      <trkpt lat="45.1953" lon="4.98135">
        <ele>378.01843261719</ele>
        <time>2009-12-09T13:13:26Z</time>
      </trkpt>
      <trkpt lat="45.19539" lon="4.98131">
        <ele>378.31011962891</ele>
        <time>2009-12-09T13:13:28Z</time>
      </trkpt>
      <trkpt lat="45.19592" lon="4.98082">
        <ele>374.5751953125</ele>
        <time>2009-12-09T13:13:38Z</time>
      </trkpt>
      <trkpt lat="45.19629" lon="4.98039">
        <ele>373.974609375</ele>
        <time>2009-12-09T13:13:46Z</time>
      </trkpt>
      <trkpt lat="45.19659" lon="4.97979">
        <ele>373.9753112793</ele>
        <time>2009-12-09T13:13:55Z</time>
      </trkpt>
      <trkpt lat="45.19665" lon="4.97965">
        <ele>374.21179199219</ele>
        <time>2009-12-09T13:13:57Z</time>
      </trkpt>
      <trkpt lat="45.19685" lon="4.97951">
        <ele>372.92175292969</ele>
        <time>2009-12-09T13:14:01Z</time>
      </trkpt>
      <trkpt lat="45.19702" lon="4.97959">
        <ele>372.77188110352</ele>
        <time>2009-12-09T13:14:04Z</time>
      </trkpt>
      <trkpt lat="45.19721" lon="4.9798">
        <ele>372.59857177734</ele>
        <time>2009-12-09T13:14:08Z</time>
      </trkpt>
      <trkpt lat="45.19724" lon="4.97987">
        <ele>372.55239868164</ele>
        <time>2009-12-09T13:14:09Z</time>
      </trkpt>
      <trkpt lat="45.19727" lon="4.97995">
        <ele>372.58807373047</ele>
        <time>2009-12-09T13:14:10Z</time>
      </trkpt>
      <trkpt lat="45.19746" lon="4.98072">
        <ele>372.35647583008</ele>
        <time>2009-12-09T13:14:19Z</time>
      </trkpt>
      <trkpt lat="45.1975" lon="4.98126">
        <ele>372.53802490234</ele>
        <time>2009-12-09T13:14:25Z</time>
      </trkpt>
      <trkpt lat="45.1975" lon="4.98194">
        <ele>373.02349853516</ele>
        <time>2009-12-09T13:14:32Z</time>
      </trkpt>
      <trkpt lat="45.1975" lon="4.98212">
        <ele>373.02307128906</ele>
        <time>2009-12-09T13:14:34Z</time>
      </trkpt>
      <trkpt lat="45.19744" lon="4.98257">
        <ele>374.09259033203</ele>
        <time>2009-12-09T13:14:39Z</time>
      </trkpt>
      <trkpt lat="45.19725" lon="4.9828">
        <ele>377.63583374023</ele>
        <time>2009-12-09T13:14:43Z</time>
      </trkpt>
      <trkpt lat="45.19711" lon="4.98296">
        <ele>380.12451171875</ele>
        <time>2009-12-09T13:14:46Z</time>
      </trkpt>
      <trkpt lat="45.19711" lon="4.98312">
        <ele>380.79330444336</ele>
        <time>2009-12-09T13:14:48Z</time>
      </trkpt>
      <trkpt lat="45.19723" lon="4.98329">
        <ele>380.0969543457</ele>
        <time>2009-12-09T13:14:51Z</time>
      </trkpt>
      <trkpt lat="45.19733" lon="4.98332">
        <ele>379.01397705078</ele>
        <time>2009-12-09T13:14:53Z</time>
      </trkpt>
      <trkpt lat="45.19756" lon="4.98338">
        <ele>376.41729736328</ele>
        <time>2009-12-09T13:14:58Z</time>
      </trkpt>
      <trkpt lat="45.19777" lon="4.9835">
        <ele>373.78256225586</ele>
        <time>2009-12-09T13:15:04Z</time>
      </trkpt>
      <trkpt lat="45.1978" lon="4.98369">
        <ele>373.39416503906</ele>
        <time>2009-12-09T13:15:08Z</time>
      </trkpt>
      <trkpt lat="45.19775" lon="4.98386">
        <ele>374.18725585938</ele>
        <time>2009-12-09T13:15:12Z</time>
      </trkpt>
      <trkpt lat="45.19746" lon="4.98417">
        <ele>379.57217407227</ele>
        <time>2009-12-09T13:15:21Z</time>
      </trkpt>
      <trkpt lat="45.19716" lon="4.98446">
        <ele>382.15521240234</ele>
        <time>2009-12-09T13:15:30Z</time>
      </trkpt>
      <trkpt lat="45.1969" lon="4.98466">
        <ele>385.41690063477</ele>
        <time>2009-12-09T13:15:37Z</time>
      </trkpt>
      <trkpt lat="45.1967" lon="4.98481">
        <ele>388.02465820312</ele>
        <time>2009-12-09T13:15:42Z</time>
      </trkpt>
      <trkpt lat="45.19653" lon="4.98495">
        <ele>389.53768920898</ele>
        <time>2009-12-09T13:15:47Z</time>
      </trkpt>
      <trkpt lat="45.19632" lon="4.98499">
        <ele>391.36071777344</ele>
        <time>2009-12-09T13:15:52Z</time>
      </trkpt>
      <trkpt lat="45.19599" lon="4.98494">
        <ele>394.70068359375</ele>
        <time>2009-12-09T13:16:00Z</time>
      </trkpt>
      <trkpt lat="45.19574" lon="4.98487">
        <ele>397.68701171875</ele>
        <time>2009-12-09T13:16:07Z</time>
      </trkpt>
      <trkpt lat="45.19551" lon="4.98485">
        <ele>400.54415893555</ele>
        <time>2009-12-09T13:16:13Z</time>
      </trkpt>
      <trkpt lat="45.19545" lon="4.98487">
        <ele>401.31497192383</ele>
        <time>2009-12-09T13:16:15Z</time>
      </trkpt>
      <trkpt lat="45.1954" lon="4.98504">
        <ele>401.46685791016</ele>
        <time>2009-12-09T13:16:18Z</time>
      </trkpt>
      <trkpt lat="45.19547" lon="4.98523">
        <ele>399.61978149414</ele>
        <time>2009-12-09T13:16:21Z</time>
      </trkpt>
      <trkpt lat="45.19562" lon="4.9856">
        <ele>395.72845458984</ele>
        <time>2009-12-09T13:16:28Z</time>
      </trkpt>
      <trkpt lat="45.19562" lon="4.9856">
        <ele>395.72845458984</ele>
        <time>2009-12-09T13:16:29Z</time>
      </trkpt>
      <trkpt lat="45.19563" lon="4.98592">
        <ele>393.88171386719</ele>
        <time>2009-12-09T13:16:34Z</time>
      </trkpt>
      <trkpt lat="45.19563" lon="4.98597">
        <ele>393.66525268555</ele>
        <time>2009-12-09T13:16:35Z</time>
      </trkpt>
      <trkpt lat="45.1956" lon="4.98608">
        <ele>393.28173828125</ele>
        <time>2009-12-09T13:16:41Z</time>
      </trkpt>
      <trkpt lat="45.19558" lon="4.98608">
        <ele>393.43533325195</ele>
        <time>2009-12-09T13:16:42Z</time>
      </trkpt>
      <trkpt lat="45.19553" lon="4.98609">
        <ele>393.8766784668</ele>
        <time>2009-12-09T13:16:47Z</time>
      </trkpt>
      <trkpt lat="45.19537" lon="4.98611">
        <ele>395.12622070312</ele>
        <time>2009-12-09T13:16:55Z</time>
      </trkpt>
      <trkpt lat="45.19513" lon="4.9861">
        <ele>397.31127929688</ele>
        <time>2009-12-09T13:17:02Z</time>
      </trkpt>
      <trkpt lat="45.19485" lon="4.98606">
        <ele>400.10900878906</ele>
        <time>2009-12-09T13:17:10Z</time>
      </trkpt>
      <trkpt lat="45.19455" lon="4.98602">
        <ele>403.02096557617</ele>
        <time>2009-12-09T13:17:19Z</time>
      </trkpt>
      <trkpt lat="45.19423" lon="4.98598">
        <ele>406.15338134766</ele>
        <time>2009-12-09T13:17:28Z</time>
      </trkpt>
      <trkpt lat="45.19386" lon="4.98596">
        <ele>411.35443115234</ele>
        <time>2009-12-09T13:17:38Z</time>
      </trkpt>
      <trkpt lat="45.19378" lon="4.98598">
        <ele>412.287109375</ele>
        <time>2009-12-09T13:17:40Z</time>
      </trkpt>
      <trkpt lat="45.1937" lon="4.98599">
        <ele>413.23825073242</ele>
        <time>2009-12-09T13:17:42Z</time>
      </trkpt>
      <trkpt lat="45.19341" lon="4.98629">
        <ele>414.32568359375</ele>
        <time>2009-12-09T13:17:51Z</time>
      </trkpt>
      <trkpt lat="45.1932" lon="4.98661">
        <ele>416.28173828125</ele>
        <time>2009-12-09T13:17:59Z</time>
      </trkpt>
      <trkpt lat="45.19312" lon="4.9869">
        <ele>416.7165222168</ele>
        <time>2009-12-09T13:18:05Z</time>
      </trkpt>
      <trkpt lat="45.19307" lon="4.98712">
        <ele>416.48617553711</ele>
        <time>2009-12-09T13:18:09Z</time>
      </trkpt>
      <trkpt lat="45.193" lon="4.98751">
        <ele>415.59594726562</ele>
        <time>2009-12-09T13:18:16Z</time>
      </trkpt>
      <trkpt lat="45.19282" lon="4.98777">
        <ele>417.69519042969</ele>
        <time>2009-12-09T13:18:23Z</time>
      </trkpt>
      <trkpt lat="45.19265" lon="4.98802">
        <ele>419.2502746582</ele>
        <time>2009-12-09T13:18:30Z</time>
      </trkpt>
      <trkpt lat="45.19252" lon="4.98833">
        <ele>418.72674560547</ele>
        <time>2009-12-09T13:18:37Z</time>
      </trkpt>
      <trkpt lat="45.19244" lon="4.98881">
        <ele>421.66229248047</ele>
        <time>2009-12-09T13:18:46Z</time>
      </trkpt>
      <trkpt lat="45.19248" lon="4.98916">
        <ele>423.83639526367</ele>
        <time>2009-12-09T13:18:53Z</time>
      </trkpt>
      <trkpt lat="45.19252" lon="4.98947">
        <ele>425.41430664062</ele>
        <time>2009-12-09T13:19:00Z</time>
      </trkpt>
      <trkpt lat="45.19246" lon="4.98956">
        <ele>426.10968017578</ele>
        <time>2009-12-09T13:19:04Z</time>
      </trkpt>
      <trkpt lat="45.19239" lon="4.98947">
        <ele>425.16268920898</ele>
        <time>2009-12-09T13:19:07Z</time>
      </trkpt>
      <trkpt lat="45.1923" lon="4.98928">
        <ele>423.44320678711</ele>
        <time>2009-12-09T13:19:13Z</time>
      </trkpt>
      <trkpt lat="45.19226" lon="4.98921">
        <ele>422.81951904297</ele>
        <time>2009-12-09T13:19:16Z</time>
      </trkpt>
      <trkpt lat="45.19214" lon="4.98925">
        <ele>422.33312988281</ele>
        <time>2009-12-09T13:19:22Z</time>
      </trkpt>
      <trkpt lat="45.19213" lon="4.98935">
        <ele>422.93395996094</ele>
        <time>2009-12-09T13:19:26Z</time>
      </trkpt>
      <trkpt lat="45.19215" lon="4.98943">
        <ele>423.44033813477</ele>
        <time>2009-12-09T13:19:29Z</time>
      </trkpt>
      <trkpt lat="45.19219" lon="4.9897">
        <ele>425.36581420898</ele>
        <time>2009-12-09T13:19:36Z</time>
      </trkpt>
      <trkpt lat="45.1922" lon="4.98999">
        <ele>427.14251708984</ele>
        <time>2009-12-09T13:19:42Z</time>
      </trkpt>
      <trkpt lat="45.19217" lon="4.99025">
        <ele>427.66638183594</ele>
        <time>2009-12-09T13:19:47Z</time>
      </trkpt>
      <trkpt lat="45.19202" lon="4.99053">
        <ele>428.41430664062</ele>
        <time>2009-12-09T13:19:53Z</time>
      </trkpt>
      <trkpt lat="45.19174" lon="4.99084">
        <ele>430.83792114258</ele>
        <time>2009-12-09T13:19:59Z</time>
      </trkpt>
      <trkpt lat="45.19153" lon="4.99093">
        <ele>430.88034057617</ele>
        <time>2009-12-09T13:20:02Z</time>
      </trkpt>
      <trkpt lat="45.1911" lon="4.99111">
        <ele>429.2321472168</ele>
        <time>2009-12-09T13:20:08Z</time>
      </trkpt>
      <trkpt lat="45.19071" lon="4.99127">
        <ele>428.87115478516</ele>
        <time>2009-12-09T13:20:14Z</time>
      </trkpt>
      <trkpt lat="45.19038" lon="4.99143">
        <ele>429.92120361328</ele>
        <time>2009-12-09T13:20:20Z</time>
      </trkpt>
      <trkpt lat="45.19009" lon="4.99163">
        <ele>431.84231567383</ele>
        <time>2009-12-09T13:20:26Z</time>
      </trkpt>
      <trkpt lat="45.18982" lon="4.99183">
        <ele>433.40982055664</ele>
        <time>2009-12-09T13:20:36Z</time>
      </trkpt>
      <trkpt lat="45.1893" lon="4.99205">
        <ele>434.17376708984</ele>
        <time>2009-12-09T13:20:43Z</time>
      </trkpt>
      <trkpt lat="45.18886" lon="4.99215">
        <ele>434.47909545898</ele>
        <time>2009-12-09T13:20:53Z</time>
      </trkpt>
      <trkpt lat="45.18848" lon="4.99229">
        <ele>435.71850585938</ele>
        <time>2009-12-09T13:21:01Z</time>
      </trkpt>
      <trkpt lat="45.18813" lon="4.99244">
        <ele>437.05554199219</ele>
        <time>2009-12-09T13:21:09Z</time>
      </trkpt>
      <trkpt lat="45.18794" lon="4.9925">
        <ele>437.46994018555</ele>
        <time>2009-12-09T13:21:13Z</time>
      </trkpt>
      <trkpt lat="45.18746" lon="4.99259">
        <ele>437.16381835938</ele>
        <time>2009-12-09T13:21:23Z</time>
      </trkpt>
      <trkpt lat="45.18708" lon="4.99267">
        <ele>436.59802246094</ele>
        <time>2009-12-09T13:21:31Z</time>
      </trkpt>
      <trkpt lat="45.18678" lon="4.99274">
        <ele>435.96841430664</ele>
        <time>2009-12-09T13:21:38Z</time>
      </trkpt>
      <trkpt lat="45.18657" lon="4.99287">
        <ele>435.21087646484</ele>
        <time>2009-12-09T13:21:45Z</time>
      </trkpt>
      <trkpt lat="45.1864" lon="4.99293">
        <ele>434.52514648438</ele>
        <time>2009-12-09T13:21:52Z</time>
      </trkpt>
      <trkpt lat="45.18627" lon="4.99297">
        <ele>434.07498168945</ele>
        <time>2009-12-09T13:21:58Z</time>
      </trkpt>
      <trkpt lat="45.18624" lon="4.99297">
        <ele>433.9826965332</ele>
        <time>2009-12-09T13:22:00Z</time>
      </trkpt>
      <trkpt lat="45.18604" lon="4.99303">
        <ele>433.30862426758</ele>
        <time>2009-12-09T13:22:04Z</time>
      </trkpt>
      <trkpt lat="45.18604" lon="4.99303">
        <ele>433.30862426758</ele>
        <time>2009-12-09T13:22:10Z</time>
      </trkpt>
      <trkpt lat="45.18604" lon="4.99303">
        <ele>433.30862426758</ele>
        <time>2009-12-09T13:22:11Z</time>
      </trkpt>
      <trkpt lat="45.18604" lon="4.99303">
        <ele>433.30862426758</ele>
        <time>2009-12-09T13:22:14Z</time>
      </trkpt>
      <trkpt lat="45.18604" lon="4.99303">
        <ele>433.30862426758</ele>
        <time>2009-12-09T13:25:13Z</time>
      </trkpt>
      <trkpt lat="45.18604" lon="4.99303">
        <ele>433.30862426758</ele>
        <time>2009-12-09T13:25:16Z</time>
      </trkpt>
      <trkpt lat="45.18604" lon="4.99303">
        <ele>433.30862426758</ele>
        <time>2009-12-09T13:25:34Z</time>
      </trkpt>
      <trkpt lat="45.18604" lon="4.99303">
        <ele>433.30862426758</ele>
        <time>2009-12-09T13:25:35Z</time>
      </trkpt>
      <trkpt lat="45.18596" lon="4.99319">
        <ele>433.1809387207</ele>
        <time>2009-12-09T13:25:53Z</time>
      </trkpt>
      <trkpt lat="45.18592" lon="4.99326">
        <ele>433.14416503906</ele>
        <time>2009-12-09T13:25:54Z</time>
      </trkpt>
      <trkpt lat="45.18578" lon="4.99356">
        <ele>430.50967407227</ele>
        <time>2009-12-09T13:25:58Z</time>
      </trkpt>
      <trkpt lat="45.18568" lon="4.99375">
        <ele>428.3567199707</ele>
        <time>2009-12-09T13:26:01Z</time>
      </trkpt>
      <trkpt lat="45.18566" lon="4.99385">
        <ele>427.22213745117</ele>
        <time>2009-12-09T13:26:02Z</time>
      </trkpt>
      <trkpt lat="45.18559" lon="4.99408">
        <ele>424.35723876953</ele>
        <time>2009-12-09T13:26:04Z</time>
      </trkpt>
      <trkpt lat="45.18534" lon="4.99467">
        <ele>417.25570678711</ele>
        <time>2009-12-09T13:26:08Z</time>
      </trkpt>
      <trkpt lat="45.18502" lon="4.99503">
        <ele>412.32656860352</ele>
        <time>2009-12-09T13:26:11Z</time>
      </trkpt>
      <trkpt lat="45.18441" lon="4.99549">
        <ele>403.18148803711</ele>
        <time>2009-12-09T13:26:16Z</time>
      </trkpt>
      <trkpt lat="45.18402" lon="4.99568">
        <ele>397.6330871582</ele>
        <time>2009-12-09T13:26:19Z</time>
      </trkpt>
      <trkpt lat="45.18383" lon="4.99577">
        <ele>393.05282592773</ele>
        <time>2009-12-09T13:26:21Z</time>
      </trkpt>
      <trkpt lat="45.18369" lon="4.99589">
        <ele>388.78067016602</ele>
        <time>2009-12-09T13:26:24Z</time>
      </trkpt>
      <trkpt lat="45.18373" lon="4.99613">
        <ele>386.21603393555</ele>
        <time>2009-12-09T13:26:27Z</time>
      </trkpt>
      <trkpt lat="45.18388" lon="4.99634">
        <ele>385.31726074219</ele>
        <time>2009-12-09T13:26:30Z</time>
      </trkpt>
      <trkpt lat="45.18394" lon="4.99639">
        <ele>385.43099975586</ele>
        <time>2009-12-09T13:26:31Z</time>
      </trkpt>
      <trkpt lat="45.18404" lon="4.99646">
        <ele>385.55755615234</ele>
        <time>2009-12-09T13:26:33Z</time>
      </trkpt>
      <trkpt lat="45.18406" lon="4.99648">
        <ele>385.58404541016</ele>
        <time>2009-12-09T13:26:34Z</time>
      </trkpt>
      <trkpt lat="45.18405" lon="4.99652">
        <ele>384.8469543457</ele>
        <time>2009-12-09T13:26:38Z</time>
      </trkpt>
      <trkpt lat="45.18403" lon="4.99651">
        <ele>384.68469238281</ele>
        <time>2009-12-09T13:26:39Z</time>
      </trkpt>
      <trkpt lat="45.18388" lon="4.99647">
        <ele>383.34756469727</ele>
        <time>2009-12-09T13:26:45Z</time>
      </trkpt>
      <trkpt lat="45.1838" lon="4.99642">
        <ele>383.15859985352</ele>
        <time>2009-12-09T13:26:49Z</time>
      </trkpt>
      <trkpt lat="45.18385" lon="4.99631">
        <ele>385.20947265625</ele>
        <time>2009-12-09T13:26:54Z</time>
      </trkpt>
      <trkpt lat="45.18395" lon="4.99639">
        <ele>385.43942260742</ele>
        <time>2009-12-09T13:27:00Z</time>
      </trkpt>
      <trkpt lat="45.18412" lon="4.99652">
        <ele>385.62658691406</ele>
        <time>2009-12-09T13:27:07Z</time>
      </trkpt>
      <trkpt lat="45.18415" lon="4.99655">
        <ele>385.64862060547</ele>
        <time>2009-12-09T13:27:10Z</time>
      </trkpt>
      <trkpt lat="45.18438" lon="4.99661">
        <ele>384.17816162109</ele>
        <time>2009-12-09T13:27:13Z</time>
      </trkpt>
      <trkpt lat="45.18478" lon="4.99672">
        <ele>381.20666503906</ele>
        <time>2009-12-09T13:27:20Z</time>
      </trkpt>
      <trkpt lat="45.18484" lon="4.99674">
        <ele>380.78045654297</ele>
        <time>2009-12-09T13:27:21Z</time>
      </trkpt>
      <trkpt lat="45.18509" lon="4.99681">
        <ele>378.05517578125</ele>
        <time>2009-12-09T13:27:25Z</time>
      </trkpt>
      <trkpt lat="45.18523" lon="4.9967">
        <ele>377.29663085938</ele>
        <time>2009-12-09T13:27:28Z</time>
      </trkpt>
      <trkpt lat="45.1854" lon="4.9963">
        <ele>383.46194458008</ele>
        <time>2009-12-09T13:27:33Z</time>
      </trkpt>
      <trkpt lat="45.18547" lon="4.99615">
        <ele>386.24490356445</ele>
        <time>2009-12-09T13:27:35Z</time>
      </trkpt>
      <trkpt lat="45.18565" lon="4.99599">
        <ele>388.86764526367</ele>
        <time>2009-12-09T13:27:39Z</time>
      </trkpt>
      <trkpt lat="45.1857" lon="4.99599">
        <ele>388.59060668945</ele>
        <time>2009-12-09T13:27:40Z</time>
      </trkpt>
      <trkpt lat="45.18605" lon="4.99598">
        <ele>385.72134399414</ele>
        <time>2009-12-09T13:27:46Z</time>
      </trkpt>
      <trkpt lat="45.18624" lon="4.99587">
        <ele>386.62646484375</ele>
        <time>2009-12-09T13:27:50Z</time>
      </trkpt>
      <trkpt lat="45.18654" lon="4.9957">
        <ele>388.09405517578</ele>
        <time>2009-12-09T13:27:56Z</time>
      </trkpt>
      <trkpt lat="45.18684" lon="4.9957">
        <ele>388.89459228516</ele>
        <time>2009-12-09T13:28:02Z</time>
      </trkpt>
      <trkpt lat="45.18694" lon="4.99577">
        <ele>388.27093505859</ele>
        <time>2009-12-09T13:28:04Z</time>
      </trkpt>
      <trkpt lat="45.18733" lon="4.99605">
        <ele>386.1533203125</ele>
        <time>2009-12-09T13:28:12Z</time>
      </trkpt>
      <trkpt lat="45.18737" lon="4.99608">
        <ele>385.85153198242</ele>
        <time>2009-12-09T13:28:13Z</time>
      </trkpt>
      <trkpt lat="45.18773" lon="4.99625">
        <ele>385.11514282227</ele>
        <time>2009-12-09T13:28:21Z</time>
      </trkpt>
      <trkpt lat="45.18816" lon="4.99635">
        <ele>386.48272705078</ele>
        <time>2009-12-09T13:28:30Z</time>
      </trkpt>
      <trkpt lat="45.18858" lon="4.99645">
        <ele>387.74264526367</ele>
        <time>2009-12-09T13:28:39Z</time>
      </trkpt>
      <trkpt lat="45.18877" lon="4.99646">
        <ele>388.93591308594</ele>
        <time>2009-12-09T13:28:43Z</time>
      </trkpt>
      <trkpt lat="45.18895" lon="4.99638">
        <ele>392.3586730957</ele>
        <time>2009-12-09T13:28:47Z</time>
      </trkpt>
      <trkpt lat="45.18918" lon="4.99635">
        <ele>394.94540405273</ele>
        <time>2009-12-09T13:28:52Z</time>
      </trkpt>
      <trkpt lat="45.18925" lon="4.99643">
        <ele>394.42791748047</ele>
        <time>2009-12-09T13:28:54Z</time>
      </trkpt>
      <trkpt lat="45.18962" lon="4.99691">
        <ele>389.83047485352</ele>
        <time>2009-12-09T13:29:02Z</time>
      </trkpt>
      <trkpt lat="45.19003" lon="4.99744">
        <ele>382.98477172852</ele>
        <time>2009-12-09T13:29:10Z</time>
      </trkpt>
      <trkpt lat="45.19028" lon="4.99777">
        <ele>382.6091003418</ele>
        <time>2009-12-09T13:29:15Z</time>
      </trkpt>
      <trkpt lat="45.19048" lon="4.9982">
        <ele>380.21694946289</ele>
        <time>2009-12-09T13:29:21Z</time>
      </trkpt>
      <trkpt lat="45.1905" lon="4.99826">
        <ele>379.88070678711</ele>
        <time>2009-12-09T13:29:24Z</time>
      </trkpt>
      <trkpt lat="45.19078" lon="4.99876">
        <ele>381.00338745117</ele>
        <time>2009-12-09T13:29:31Z</time>
      </trkpt>
      <trkpt lat="45.19087" lon="4.99881">
        <ele>381.7541809082</ele>
        <time>2009-12-09T13:29:33Z</time>
      </trkpt>
      <trkpt lat="45.19116" lon="4.99892">
        <ele>382.4352722168</ele>
        <time>2009-12-09T13:29:39Z</time>
      </trkpt>
      <trkpt lat="45.19123" lon="4.99895">
        <ele>382.48919677734</ele>
        <time>2009-12-09T13:29:44Z</time>
      </trkpt>
      <trkpt lat="45.19161" lon="4.9992">
        <ele>380.32339477539</ele>
        <time>2009-12-09T13:29:49Z</time>
      </trkpt>
      <trkpt lat="45.1919" lon="4.99933">
        <ele>378.73248291016</ele>
        <time>2009-12-09T13:29:54Z</time>
      </trkpt>
      <trkpt lat="45.19197" lon="4.99932">
        <ele>379.01498413086</ele>
        <time>2009-12-09T13:29:55Z</time>
      </trkpt>
      <trkpt lat="45.19238" lon="4.99934">
        <ele>378.79275512695</ele>
        <time>2009-12-09T13:30:00Z</time>
      </trkpt>
      <trkpt lat="45.19246" lon="4.99941">
        <ele>377.65307617188</ele>
        <time>2009-12-09T13:30:01Z</time>
      </trkpt>
      <trkpt lat="45.19296" lon="4.99982">
        <ele>369.16616821289</ele>
        <time>2009-12-09T13:30:07Z</time>
      </trkpt>
      <trkpt lat="45.19346" lon="5.00015">
        <ele>368.41598510742</ele>
        <time>2009-12-09T13:30:12Z</time>
      </trkpt>
      <trkpt lat="45.1939" lon="5.00026">
        <ele>362.17956542969</ele>
        <time>2009-12-09T13:30:16Z</time>
      </trkpt>
      <trkpt lat="45.19425" lon="5.00028">
        <ele>359.69906616211</ele>
        <time>2009-12-09T13:30:19Z</time>
      </trkpt>
      <trkpt lat="45.19432" lon="5.00028">
        <ele>359.42340087891</ele>
        <time>2009-12-09T13:30:22Z</time>
      </trkpt>
      <trkpt lat="45.19481" lon="5.00049">
        <ele>356.93850708008</ele>
        <time>2009-12-09T13:30:24Z</time>
      </trkpt>
      <trkpt lat="45.19505" lon="5.00086">
        <ele>354.73733520508</ele>
        <time>2009-12-09T13:30:27Z</time>
      </trkpt>
      <trkpt lat="45.1955" lon="5.00157">
        <ele>352.93099975586</ele>
        <time>2009-12-09T13:30:33Z</time>
      </trkpt>
      <trkpt lat="45.19581" lon="5.00207">
        <ele>353.40994262695</ele>
        <time>2009-12-09T13:30:38Z</time>
      </trkpt>
      <trkpt lat="45.19612" lon="5.00255">
        <ele>354.07275390625</ele>
        <time>2009-12-09T13:30:44Z</time>
      </trkpt>
      <trkpt lat="45.19642" lon="5.00302">
        <ele>354.53094482422</ele>
        <time>2009-12-09T13:30:51Z</time>
      </trkpt>
      <trkpt lat="45.19657" lon="5.00326">
        <ele>348.83917236328</ele>
        <time>2009-12-09T13:30:55Z</time>
      </trkpt>
      <trkpt lat="45.19671" lon="5.00348">
        <ele>347.05569458008</ele>
        <time>2009-12-09T13:30:59Z</time>
      </trkpt>
      <trkpt lat="45.19685" lon="5.00369">
        <ele>348.59722900391</ele>
        <time>2009-12-09T13:31:03Z</time>
      </trkpt>
      <trkpt lat="45.19691" lon="5.0038">
        <ele>349.36627197266</ele>
        <time>2009-12-09T13:31:05Z</time>
      </trkpt>
      <trkpt lat="45.19704" lon="5.00401">
        <ele>351.99359130859</ele>
        <time>2009-12-09T13:31:09Z</time>
      </trkpt>
      <trkpt lat="45.1972" lon="5.00426">
        <ele>355.48712158203</ele>
        <time>2009-12-09T13:31:14Z</time>
      </trkpt>
      <trkpt lat="45.19726" lon="5.00435">
        <ele>356.44668579102</ele>
        <time>2009-12-09T13:31:16Z</time>
      </trkpt>
      <trkpt lat="45.19751" lon="5.00474">
        <ele>360.07632446289</ele>
        <time>2009-12-09T13:31:24Z</time>
      </trkpt>
      <trkpt lat="45.19768" lon="5.00511">
        <ele>361.78332519531</ele>
        <time>2009-12-09T13:31:31Z</time>
      </trkpt>
      <trkpt lat="45.19775" lon="5.00528">
        <ele>363.09320068359</ele>
        <time>2009-12-09T13:31:34Z</time>
      </trkpt>
      <trkpt lat="45.19783" lon="5.00549">
        <ele>363.24185180664</ele>
        <time>2009-12-09T13:31:38Z</time>
      </trkpt>
      <trkpt lat="45.19792" lon="5.0058">
        <ele>364.68936157227</ele>
        <time>2009-12-09T13:31:44Z</time>
      </trkpt>
      <trkpt lat="45.19801" lon="5.00624">
        <ele>367.31036376953</ele>
        <time>2009-12-09T13:31:53Z</time>
      </trkpt>
      <trkpt lat="45.19807" lon="5.00658">
        <ele>370.00122070312</ele>
        <time>2009-12-09T13:32:01Z</time>
      </trkpt>
      <trkpt lat="45.19807" lon="5.00679">
        <ele>371.75390625</ele>
        <time>2009-12-09T13:32:07Z</time>
      </trkpt>
      <trkpt lat="45.19806" lon="5.00685">
        <ele>372.2991027832</ele>
        <time>2009-12-09T13:32:12Z</time>
      </trkpt>
      <trkpt lat="45.19807" lon="5.0068">
        <ele>371.87408447266</ele>
        <time>2009-12-09T13:33:09Z</time>
      </trkpt>
      <trkpt lat="45.19807" lon="5.0068">
        <ele>371.84661865234</ele>
        <time>2009-12-09T13:33:10Z</time>
      </trkpt>
      <trkpt lat="45.19812" lon="5.00687">
        <ele>371.99078369141</ele>
        <time>2009-12-09T13:34:55Z</time>
      </trkpt>
      <trkpt lat="45.19815" lon="5.00688">
        <ele>371.84317016602</ele>
        <time>2009-12-09T13:34:57Z</time>
      </trkpt>
      <trkpt lat="45.19834" lon="5.00694">
        <ele>370.93334960938</ele>
        <time>2009-12-09T13:35:03Z</time>
      </trkpt>
      <trkpt lat="45.19846" lon="5.007">
        <ele>370.61138916016</ele>
        <time>2009-12-09T13:35:06Z</time>
      </trkpt>
      <trkpt lat="45.19879" lon="5.00725">
        <ele>372.88861083984</ele>
        <time>2009-12-09T13:35:14Z</time>
      </trkpt>
      <trkpt lat="45.19904" lon="5.00745">
        <ele>375.99630737305</ele>
        <time>2009-12-09T13:35:20Z</time>
      </trkpt>
      <trkpt lat="45.19947" lon="5.00762">
        <ele>373.99224853516</ele>
        <time>2009-12-09T13:35:27Z</time>
      </trkpt>
      <trkpt lat="45.19983" lon="5.00785">
        <ele>372.21133422852</ele>
        <time>2009-12-09T13:35:34Z</time>
      </trkpt>
      <trkpt lat="45.2001" lon="5.00812">
        <ele>370.63293457031</ele>
        <time>2009-12-09T13:35:40Z</time>
      </trkpt>
      <trkpt lat="45.20029" lon="5.00831">
        <ele>369.63000488281</ele>
        <time>2009-12-09T13:35:44Z</time>
      </trkpt>
      <trkpt lat="45.20074" lon="5.00852">
        <ele>371.30407714844</ele>
        <time>2009-12-09T13:35:52Z</time>
      </trkpt>
      <trkpt lat="45.20096" lon="5.00865">
        <ele>372.50256347656</ele>
        <time>2009-12-09T13:35:57Z</time>
      </trkpt>
      <trkpt lat="45.20118" lon="5.00879">
        <ele>375.05392456055</ele>
        <time>2009-12-09T13:36:03Z</time>
      </trkpt>
      <trkpt lat="45.2014" lon="5.0089">
        <ele>378.15573120117</ele>
        <time>2009-12-09T13:36:09Z</time>
      </trkpt>
      <trkpt lat="45.20157" lon="5.00898">
        <ele>378.81155395508</ele>
        <time>2009-12-09T13:36:14Z</time>
      </trkpt>
      <trkpt lat="45.20174" lon="5.00907">
        <ele>380.19738769531</ele>
        <time>2009-12-09T13:36:19Z</time>
      </trkpt>
      <trkpt lat="45.20206" lon="5.00922">
        <ele>383.72857666016</ele>
        <time>2009-12-09T13:36:28Z</time>
      </trkpt>
      <trkpt lat="45.20241" lon="5.00931">
        <ele>388.25552368164</ele>
        <time>2009-12-09T13:36:37Z</time>
      </trkpt>
      <trkpt lat="45.20272" lon="5.00938">
        <ele>394.76586914062</ele>
        <time>2009-12-09T13:36:45Z</time>
      </trkpt>
      <trkpt lat="45.20279" lon="5.00944">
        <ele>396.11108398438</ele>
        <time>2009-12-09T13:36:47Z</time>
      </trkpt>
      <trkpt lat="45.20299" lon="5.0097">
        <ele>398.65646362305</ele>
        <time>2009-12-09T13:36:54Z</time>
      </trkpt>
      <trkpt lat="45.2032" lon="5.00999">
        <ele>400</ele>
        <time>2009-12-09T13:37:00Z</time>
      </trkpt>
      <trkpt lat="45.2033" lon="5.0103">
        <ele>399.3190612793</ele>
        <time>2009-12-09T13:37:04Z</time>
      </trkpt>
      <trkpt lat="45.2033" lon="5.01059">
        <ele>394.84515380859</ele>
        <time>2009-12-09T13:37:07Z</time>
      </trkpt>
      <trkpt lat="45.20328" lon="5.01068">
        <ele>392.79202270508</ele>
        <time>2009-12-09T13:37:08Z</time>
      </trkpt>
      <trkpt lat="45.20315" lon="5.01084">
        <ele>389.56304931641</ele>
        <time>2009-12-09T13:37:10Z</time>
      </trkpt>
      <trkpt lat="45.20299" lon="5.01101">
        <ele>389.11944580078</ele>
        <time>2009-12-09T13:37:12Z</time>
      </trkpt>
      <trkpt lat="45.20286" lon="5.01126">
        <ele>388.69241333008</ele>
        <time>2009-12-09T13:37:15Z</time>
      </trkpt>
      <trkpt lat="45.2029" lon="5.01142">
        <ele>387.66796875</ele>
        <time>2009-12-09T13:37:17Z</time>
      </trkpt>
      <trkpt lat="45.20301" lon="5.01148">
        <ele>386.22592163086</ele>
        <time>2009-12-09T13:37:19Z</time>
      </trkpt>
      <trkpt lat="45.20317" lon="5.01143">
        <ele>384.18499755859</ele>
        <time>2009-12-09T13:37:21Z</time>
      </trkpt>
      <trkpt lat="45.20352" lon="5.01129">
        <ele>380.29547119141</ele>
        <time>2009-12-09T13:37:26Z</time>
      </trkpt>
      <trkpt lat="45.20378" lon="5.01105">
        <ele>378.37420654297</ele>
        <time>2009-12-09T13:37:32Z</time>
      </trkpt>
      <trkpt lat="45.20386" lon="5.01098">
        <ele>378.09954833984</ele>
        <time>2009-12-09T13:37:34Z</time>
      </trkpt>
      <trkpt lat="45.20402" lon="5.01084">
        <ele>376.60949707031</ele>
        <time>2009-12-09T13:37:38Z</time>
      </trkpt>
      <trkpt lat="45.2041" lon="5.01079">
        <ele>376.01605224609</ele>
        <time>2009-12-09T13:37:40Z</time>
      </trkpt>
      <trkpt lat="45.20432" lon="5.01074">
        <ele>374.74722290039</ele>
        <time>2009-12-09T13:37:45Z</time>
      </trkpt>
      <trkpt lat="45.20442" lon="5.01087">
        <ele>373.18908691406</ele>
        <time>2009-12-09T13:37:48Z</time>
      </trkpt>
      <trkpt lat="45.20441" lon="5.01101">
        <ele>373.271484375</ele>
        <time>2009-12-09T13:37:51Z</time>
      </trkpt>
      <trkpt lat="45.20434" lon="5.01115">
        <ele>373.88827514648</ele>
        <time>2009-12-09T13:37:53Z</time>
      </trkpt>
      <trkpt lat="45.20435" lon="5.01157">
        <ele>375.36972045898</ele>
        <time>2009-12-09T13:37:57Z</time>
      </trkpt>
      <trkpt lat="45.20443" lon="5.01169">
        <ele>375.15707397461</ele>
        <time>2009-12-09T13:37:59Z</time>
      </trkpt>
      <trkpt lat="45.20456" lon="5.01174">
        <ele>374.86489868164</ele>
        <time>2009-12-09T13:38:01Z</time>
      </trkpt>
      <trkpt lat="45.20495" lon="5.01175">
        <ele>373.47787475586</ele>
        <time>2009-12-09T13:38:07Z</time>
      </trkpt>
      <trkpt lat="45.20541" lon="5.0119">
        <ele>372.75341796875</ele>
        <time>2009-12-09T13:38:15Z</time>
      </trkpt>
      <trkpt lat="45.20581" lon="5.0121">
        <ele>374.28665161133</ele>
        <time>2009-12-09T13:38:23Z</time>
      </trkpt>
      <trkpt lat="45.20612" lon="5.0123">
        <ele>375.54748535156</ele>
        <time>2009-12-09T13:38:29Z</time>
      </trkpt>
      <trkpt lat="45.20635" lon="5.01264">
        <ele>377.14700317383</ele>
        <time>2009-12-09T13:38:35Z</time>
      </trkpt>
      <trkpt lat="45.20655" lon="5.01294">
        <ele>377.84072875977</ele>
        <time>2009-12-09T13:38:42Z</time>
      </trkpt>
      <trkpt lat="45.20675" lon="5.01337">
        <ele>378.62072753906</ele>
        <time>2009-12-09T13:38:46Z</time>
      </trkpt>
      <trkpt lat="45.20688" lon="5.01356">
        <ele>378.44760131836</ele>
        <time>2009-12-09T13:38:49Z</time>
      </trkpt>
      <trkpt lat="45.2073" lon="5.01389">
        <ele>374.33908081055</ele>
        <time>2009-12-09T13:38:57Z</time>
      </trkpt>
      <trkpt lat="45.20766" lon="5.01417">
        <ele>370.15368652344</ele>
        <time>2009-12-09T13:39:04Z</time>
      </trkpt>
      <trkpt lat="45.20796" lon="5.01441">
        <ele>366.42364501953</ele>
        <time>2009-12-09T13:39:10Z</time>
      </trkpt>
      <trkpt lat="45.20832" lon="5.01469">
        <ele>364.5788269043</ele>
        <time>2009-12-09T13:39:17Z</time>
      </trkpt>
      <trkpt lat="45.20876" lon="5.01493">
        <ele>362.98956298828</ele>
        <time>2009-12-09T13:39:25Z</time>
      </trkpt>
      <trkpt lat="45.20926" lon="5.01521">
        <ele>362.51287841797</ele>
        <time>2009-12-09T13:39:34Z</time>
      </trkpt>
      <trkpt lat="45.20936" lon="5.01527">
        <ele>362.00369262695</ele>
        <time>2009-12-09T13:39:36Z</time>
      </trkpt>
      <trkpt lat="45.20957" lon="5.01552">
        <ele>362.24118041992</ele>
        <time>2009-12-09T13:39:41Z</time>
      </trkpt>
      <trkpt lat="45.20965" lon="5.01571">
        <ele>363.76321411133</ele>
        <time>2009-12-09T13:39:44Z</time>
      </trkpt>
      <trkpt lat="45.20989" lon="5.01643">
        <ele>368.19451904297</ele>
        <time>2009-12-09T13:39:54Z</time>
      </trkpt>
      <trkpt lat="45.20997" lon="5.01691">
        <ele>371.15093994141</ele>
        <time>2009-12-09T13:40:00Z</time>
      </trkpt>
      <trkpt lat="45.21001" lon="5.01716">
        <ele>373.26541137695</ele>
        <time>2009-12-09T13:40:03Z</time>
      </trkpt>
      <trkpt lat="45.21008" lon="5.0175">
        <ele>375.72094726562</ele>
        <time>2009-12-09T13:40:07Z</time>
      </trkpt>
      <trkpt lat="45.21027" lon="5.01769">
        <ele>377.10968017578</ele>
        <time>2009-12-09T13:40:11Z</time>
      </trkpt>
      <trkpt lat="45.21067" lon="5.01783">
        <ele>377.21224975586</ele>
        <time>2009-12-09T13:40:18Z</time>
      </trkpt>
      <trkpt lat="45.21107" lon="5.01788">
        <ele>375.98690795898</ele>
        <time>2009-12-09T13:40:25Z</time>
      </trkpt>
      <trkpt lat="45.21118" lon="5.0179">
        <ele>373.97702026367</ele>
        <time>2009-12-09T13:40:27Z</time>
      </trkpt>
      <trkpt lat="45.21146" lon="5.01798">
        <ele>368.95764160156</ele>
        <time>2009-12-09T13:40:32Z</time>
      </trkpt>
      <trkpt lat="45.21159" lon="5.01812">
        <ele>369.30868530273</ele>
        <time>2009-12-09T13:40:35Z</time>
      </trkpt>
      <trkpt lat="45.21168" lon="5.01845">
        <ele>371.55166625977</ele>
        <time>2009-12-09T13:40:40Z</time>
      </trkpt>
      <trkpt lat="45.21169" lon="5.01888">
        <ele>375.23706054688</ele>
        <time>2009-12-09T13:40:46Z</time>
      </trkpt>
      <trkpt lat="45.21168" lon="5.01951">
        <ele>380.89459228516</ele>
        <time>2009-12-09T13:40:53Z</time>
      </trkpt>
      <trkpt lat="45.21166" lon="5.02014">
        <ele>382.04724121094</ele>
        <time>2009-12-09T13:40:59Z</time>
      </trkpt>
      <trkpt lat="45.21163" lon="5.02086">
        <ele>379.20404052734</ele>
        <time>2009-12-09T13:41:05Z</time>
      </trkpt>
      <trkpt lat="45.21162" lon="5.02124">
        <ele>376.10589599609</ele>
        <time>2009-12-09T13:41:08Z</time>
      </trkpt>
      <trkpt lat="45.21169" lon="5.02146">
        <ele>373.18832397461</ele>
        <time>2009-12-09T13:41:10Z</time>
      </trkpt>
      <trkpt lat="45.21185" lon="5.02151">
        <ele>370.89782714844</ele>
        <time>2009-12-09T13:41:12Z</time>
      </trkpt>
      <trkpt lat="45.21208" lon="5.02156">
        <ele>367.44982910156</ele>
        <time>2009-12-09T13:41:15Z</time>
      </trkpt>
      <trkpt lat="45.21244" lon="5.02172">
        <ele>364.54968261719</ele>
        <time>2009-12-09T13:41:20Z</time>
      </trkpt>
      <trkpt lat="45.21289" lon="5.02205">
        <ele>362.47637939453</ele>
        <time>2009-12-09T13:41:27Z</time>
      </trkpt>
      <trkpt lat="45.21315" lon="5.02222">
        <ele>360.31896972656</ele>
        <time>2009-12-09T13:41:31Z</time>
      </trkpt>
      <trkpt lat="45.21349" lon="5.02227">
        <ele>359.37979125977</ele>
        <time>2009-12-09T13:41:36Z</time>
      </trkpt>
      <trkpt lat="45.21368" lon="5.0222">
        <ele>359</ele>
        <time>2009-12-09T13:41:39Z</time>
      </trkpt>
      <trkpt lat="45.21387" lon="5.02208">
        <ele>359</ele>
        <time>2009-12-09T13:41:42Z</time>
      </trkpt>
      <trkpt lat="45.21442" lon="5.02182">
        <ele>359</ele>
        <time>2009-12-09T13:41:50Z</time>
      </trkpt>
      <trkpt lat="45.21479" lon="5.02165">
        <ele>359</ele>
        <time>2009-12-09T13:41:57Z</time>
      </trkpt>
      <trkpt lat="45.21542" lon="5.02152">
        <ele>356.21304321289</ele>
        <time>2009-12-09T13:42:04Z</time>
      </trkpt>
      <trkpt lat="45.21563" lon="5.02147">
        <ele>355.01547241211</ele>
        <time>2009-12-09T13:42:07Z</time>
      </trkpt>
      <trkpt lat="45.21587" lon="5.02133">
        <ele>353.54080200195</ele>
        <time>2009-12-09T13:42:11Z</time>
      </trkpt>
      <trkpt lat="45.216" lon="5.02113">
        <ele>352.10571289062</ele>
        <time>2009-12-09T13:42:14Z</time>
      </trkpt>
      <trkpt lat="45.21616" lon="5.02079">
        <ele>350.72305297852</ele>
        <time>2009-12-09T13:42:19Z</time>
      </trkpt>
      <trkpt lat="45.2165" lon="5.02042">
        <ele>347.61322021484</ele>
        <time>2009-12-09T13:42:25Z</time>
      </trkpt>
      <trkpt lat="45.21687" lon="5.02015">
        <ele>345.29159545898</ele>
        <time>2009-12-09T13:42:32Z</time>
      </trkpt>
      <trkpt lat="45.21721" lon="5.0199">
        <ele>345.12091064453</ele>
        <time>2009-12-09T13:42:39Z</time>
      </trkpt>
      <trkpt lat="45.21738" lon="5.01976">
        <ele>346.03753662109</ele>
        <time>2009-12-09T13:42:43Z</time>
      </trkpt>
      <trkpt lat="45.21782" lon="5.01944">
        <ele>346.12530517578</ele>
        <time>2009-12-09T13:42:53Z</time>
      </trkpt>
      <trkpt lat="45.2183" lon="5.01916">
        <ele>347.47161865234</ele>
        <time>2009-12-09T13:43:04Z</time>
      </trkpt>
      <trkpt lat="45.21852" lon="5.01908">
        <ele>346.61773681641</ele>
        <time>2009-12-09T13:43:09Z</time>
      </trkpt>
      <trkpt lat="45.21877" lon="5.01917">
        <ele>346.99514770508</ele>
        <time>2009-12-09T13:43:15Z</time>
      </trkpt>
      <trkpt lat="45.21891" lon="5.01937">
        <ele>347.86181640625</ele>
        <time>2009-12-09T13:43:19Z</time>
      </trkpt>
      <trkpt lat="45.21892" lon="5.01942">
        <ele>348.16564941406</ele>
        <time>2009-12-09T13:43:20Z</time>
      </trkpt>
      <trkpt lat="45.2191" lon="5.02017">
        <ele>353.97180175781</ele>
        <time>2009-12-09T13:43:30Z</time>
      </trkpt>
      <trkpt lat="45.21926" lon="5.02083">
        <ele>357.98397827148</ele>
        <time>2009-12-09T13:43:38Z</time>
      </trkpt>
      <trkpt lat="45.21928" lon="5.02091">
        <ele>358.28381347656</ele>
        <time>2009-12-09T13:43:39Z</time>
      </trkpt>
      <trkpt lat="45.21946" lon="5.02123">
        <ele>360.54794311523</ele>
        <time>2009-12-09T13:43:44Z</time>
      </trkpt>
      <trkpt lat="45.21966" lon="5.02125">
        <ele>363.96469116211</ele>
        <time>2009-12-09T13:43:48Z</time>
      </trkpt>
      <trkpt lat="45.21976" lon="5.02121">
        <ele>365.71963500977</ele>
        <time>2009-12-09T13:43:50Z</time>
      </trkpt>
      <trkpt lat="45.2202" lon="5.02107">
        <ele>373.21340942383</ele>
        <time>2009-12-09T13:43:59Z</time>
      </trkpt>
      <trkpt lat="45.22033" lon="5.02102">
        <ele>374.87359619141</ele>
        <time>2009-12-09T13:44:02Z</time>
      </trkpt>
      <trkpt lat="45.22047" lon="5.02078">
        <ele>376.54675292969</ele>
        <time>2009-12-09T13:44:07Z</time>
      </trkpt>
      <trkpt lat="45.22047" lon="5.02072">
        <ele>376.02536010742</ele>
        <time>2009-12-09T13:44:08Z</time>
      </trkpt>
      <trkpt lat="45.22049" lon="5.02047">
        <ele>374.52014160156</ele>
        <time>2009-12-09T13:44:12Z</time>
      </trkpt>
      <trkpt lat="45.22056" lon="5.02019">
        <ele>374.20510864258</ele>
        <time>2009-12-09T13:44:17Z</time>
      </trkpt>
      <trkpt lat="45.22062" lon="5.02008">
        <ele>374.24850463867</ele>
        <time>2009-12-09T13:44:19Z</time>
      </trkpt>
      <trkpt lat="45.22075" lon="5.01994">
        <ele>376.7048034668</ele>
        <time>2009-12-09T13:44:23Z</time>
      </trkpt>
      <trkpt lat="45.22096" lon="5.01974">
        <ele>378.955078125</ele>
        <time>2009-12-09T13:44:29Z</time>
      </trkpt>
      <trkpt lat="45.22099" lon="5.01953">
        <ele>377.74401855469</ele>
        <time>2009-12-09T13:44:33Z</time>
      </trkpt>
      <trkpt lat="45.22102" lon="5.01927">
        <ele>376.70367431641</ele>
        <time>2009-12-09T13:44:37Z</time>
      </trkpt>
      <trkpt lat="45.22105" lon="5.01902">
        <ele>375.99639892578</ele>
        <time>2009-12-09T13:44:41Z</time>
      </trkpt>
      <trkpt lat="45.22106" lon="5.01889">
        <ele>375.6513671875</ele>
        <time>2009-12-09T13:44:43Z</time>
      </trkpt>
      <trkpt lat="45.22116" lon="5.01863">
        <ele>374.51364135742</ele>
        <time>2009-12-09T13:44:47Z</time>
      </trkpt>
      <trkpt lat="45.22148" lon="5.01839">
        <ele>374.66879272461</ele>
        <time>2009-12-09T13:44:55Z</time>
      </trkpt>
      <trkpt lat="45.22191" lon="5.01816">
        <ele>374.63562011719</ele>
        <time>2009-12-09T13:45:05Z</time>
      </trkpt>
      <trkpt lat="45.22213" lon="5.01822">
        <ele>377.28533935547</ele>
        <time>2009-12-09T13:45:10Z</time>
      </trkpt>
      <trkpt lat="45.2222" lon="5.01829">
        <ele>379.02200317383</ele>
        <time>2009-12-09T13:45:12Z</time>
      </trkpt>
      <trkpt lat="45.22234" lon="5.01844">
        <ele>381.99465942383</ele>
        <time>2009-12-09T13:45:16Z</time>
      </trkpt>
      <trkpt lat="45.22234" lon="5.01844">
        <ele>381.99465942383</ele>
        <time>2009-12-09T13:45:20Z</time>
      </trkpt>
      <trkpt lat="45.22271" lon="5.01842">
        <ele>383.13381958008</ele>
        <time>2009-12-09T13:45:25Z</time>
      </trkpt>
      <trkpt lat="45.22301" lon="5.01822">
        <ele>384.56555175781</ele>
        <time>2009-12-09T13:45:33Z</time>
      </trkpt>
      <trkpt lat="45.22338" lon="5.01806">
        <ele>385.17565917969</ele>
        <time>2009-12-09T13:45:42Z</time>
      </trkpt>
      <trkpt lat="45.22342" lon="5.01805">
        <ele>385.25329589844</ele>
        <time>2009-12-09T13:45:49Z</time>
      </trkpt>
      <trkpt lat="45.22398" lon="5.0182">
        <ele>392.21105957031</ele>
        <time>2009-12-09T13:45:57Z</time>
      </trkpt>
      <trkpt lat="45.22429" lon="5.01807">
        <ele>394.96405029297</ele>
        <time>2009-12-09T13:46:05Z</time>
      </trkpt>
      <trkpt lat="45.22458" lon="5.01794">
        <ele>396.75137329102</ele>
        <time>2009-12-09T13:46:12Z</time>
      </trkpt>
      <trkpt lat="45.22474" lon="5.01767">
        <ele>398.07440185547</ele>
        <time>2009-12-09T13:46:18Z</time>
      </trkpt>
      <trkpt lat="45.22477" lon="5.01762">
        <ele>398.15679931641</ele>
        <time>2009-12-09T13:46:19Z</time>
      </trkpt>
      <trkpt lat="45.22486" lon="5.01743">
        <ele>398.3876953125</ele>
        <time>2009-12-09T13:46:23Z</time>
      </trkpt>
      <trkpt lat="45.22505" lon="5.01727">
        <ele>399.17303466797</ele>
        <time>2009-12-09T13:46:28Z</time>
      </trkpt>
      <trkpt lat="45.22541" lon="5.01701">
        <ele>399.88690185547</ele>
        <time>2009-12-09T13:46:38Z</time>
      </trkpt>
      <trkpt lat="45.22561" lon="5.01693">
        <ele>399.82931518555</ele>
        <time>2009-12-09T13:46:44Z</time>
      </trkpt>
      <trkpt lat="45.22562" lon="5.01693">
        <ele>399.76263427734</ele>
        <time>2009-12-09T13:46:45Z</time>
      </trkpt>
      <trkpt lat="45.22561" lon="5.01683">
        <ele>399.88989257812</ele>
        <time>2009-12-09T13:46:48Z</time>
      </trkpt>
      <trkpt lat="45.22562" lon="5.01667">
        <ele>399.9990234375</ele>
        <time>2009-12-09T13:46:54Z</time>
      </trkpt>
      <trkpt lat="45.22564" lon="5.0165">
        <ele>400</ele>
        <time>2009-12-09T13:46:59Z</time>
      </trkpt>
      <trkpt lat="45.22566" lon="5.01623">
        <ele>400</ele>
        <time>2009-12-09T13:47:04Z</time>
      </trkpt>
      <trkpt lat="45.22569" lon="5.01584">
        <ele>400</ele>
        <time>2009-12-09T13:47:10Z</time>
      </trkpt>
      <trkpt lat="45.22564" lon="5.01564">
        <ele>400</ele>
        <time>2009-12-09T13:47:13Z</time>
      </trkpt>
      <trkpt lat="45.22561" lon="5.01549">
        <ele>400</ele>
        <time>2009-12-09T13:47:15Z</time>
      </trkpt>
      <trkpt lat="45.22553" lon="5.0151">
        <ele>400</ele>
        <time>2009-12-09T13:47:20Z</time>
      </trkpt>
      <trkpt lat="45.22548" lon="5.01485">
        <ele>400</ele>
        <time>2009-12-09T13:47:24Z</time>
      </trkpt>
      <trkpt lat="45.22543" lon="5.01466">
        <ele>398.97308349609</ele>
        <time>2009-12-09T13:47:30Z</time>
      </trkpt>
      <trkpt lat="45.22543" lon="5.01466">
        <ele>398.97308349609</ele>
        <time>2009-12-09T13:47:35Z</time>
      </trkpt>
      <trkpt lat="45.22554" lon="5.01421">
        <ele>393.3525390625</ele>
        <time>2009-12-09T13:47:39Z</time>
      </trkpt>
      <trkpt lat="45.22559" lon="5.01421">
        <ele>393.72863769531</ele>
        <time>2009-12-09T13:47:41Z</time>
      </trkpt>
      <trkpt lat="45.22543" lon="5.01466">
        <ele>398.97308349609</ele>
        <time>2009-12-09T13:47:46Z</time>
      </trkpt>
      <trkpt lat="45.22543" lon="5.01466">
        <ele>398.97308349609</ele>
        <time>2009-12-09T13:47:51Z</time>
      </trkpt>
      <trkpt lat="45.22557" lon="5.01458">
        <ele>397.97702026367</ele>
        <time>2009-12-09T13:47:54Z</time>
      </trkpt>
      <trkpt lat="45.22543" lon="5.01466">
        <ele>398.97308349609</ele>
        <time>2009-12-09T13:47:58Z</time>
      </trkpt>
      <trkpt lat="45.22544" lon="5.01471">
        <ele>399.76034545898</ele>
        <time>2009-12-09T13:48:00Z</time>
      </trkpt>
      <trkpt lat="45.22551" lon="5.01502">
        <ele>400</ele>
        <time>2009-12-09T13:48:07Z</time>
      </trkpt>
      <trkpt lat="45.22554" lon="5.01514">
        <ele>400</ele>
        <time>2009-12-09T13:48:09Z</time>
      </trkpt>
      <trkpt lat="45.22559" lon="5.01537">
        <ele>400</ele>
        <time>2009-12-09T13:48:12Z</time>
      </trkpt>
      <trkpt lat="45.22565" lon="5.01566">
        <ele>400</ele>
        <time>2009-12-09T13:48:15Z</time>
      </trkpt>
      <trkpt lat="45.22565" lon="5.01627">
        <ele>400</ele>
        <time>2009-12-09T13:48:20Z</time>
      </trkpt>
      <trkpt lat="45.22563" lon="5.01654">
        <ele>400</ele>
        <time>2009-12-09T13:48:22Z</time>
      </trkpt>
      <trkpt lat="45.22561" lon="5.01686">
        <ele>399.87728881836</ele>
        <time>2009-12-09T13:48:25Z</time>
      </trkpt>
      <trkpt lat="45.22574" lon="5.01695">
        <ele>399.32479858398</ele>
        <time>2009-12-09T13:48:28Z</time>
      </trkpt>
      <trkpt lat="45.22585" lon="5.01696">
        <ele>398.94305419922</ele>
        <time>2009-12-09T13:48:30Z</time>
      </trkpt>
      <trkpt lat="45.22615" lon="5.01691">
        <ele>398.09735107422</ele>
        <time>2009-12-09T13:48:36Z</time>
      </trkpt>
      <trkpt lat="45.2262" lon="5.01689">
        <ele>398.12811279297</ele>
        <time>2009-12-09T13:48:37Z</time>
      </trkpt>
      <trkpt lat="45.22632" lon="5.0167">
        <ele>398.21969604492</ele>
        <time>2009-12-09T13:48:40Z</time>
      </trkpt>
      <trkpt lat="45.22659" lon="5.01626">
        <ele>397.07238769531</ele>
        <time>2009-12-09T13:48:46Z</time>
      </trkpt>
      <trkpt lat="45.22684" lon="5.01587">
        <ele>393.51000976562</ele>
        <time>2009-12-09T13:48:51Z</time>
      </trkpt>
      <trkpt lat="45.22697" lon="5.0156">
        <ele>391.69403076172</ele>
        <time>2009-12-09T13:48:54Z</time>
      </trkpt>
      <trkpt lat="45.2272" lon="5.01513">
        <ele>387.10638427734</ele>
        <time>2009-12-09T13:48:59Z</time>
      </trkpt>
      <trkpt lat="45.22737" lon="5.01472">
        <ele>383.89038085938</ele>
        <time>2009-12-09T13:49:03Z</time>
      </trkpt>
      <trkpt lat="45.22764" lon="5.01401">
        <ele>379.20959472656</ele>
        <time>2009-12-09T13:49:09Z</time>
      </trkpt>
      <trkpt lat="45.22779" lon="5.01362">
        <ele>378.01446533203</ele>
        <time>2009-12-09T13:49:12Z</time>
      </trkpt>
      <trkpt lat="45.228" lon="5.01305">
        <ele>378</ele>
        <time>2009-12-09T13:49:16Z</time>
      </trkpt>
      <trkpt lat="45.22813" lon="5.01241">
        <ele>376.43408203125</ele>
        <time>2009-12-09T13:49:20Z</time>
      </trkpt>
      <trkpt lat="45.22814" lon="5.01238">
        <ele>376.40661621094</ele>
        <time>2009-12-09T13:49:21Z</time>
      </trkpt>
      <trkpt lat="45.22814" lon="5.01238">
        <ele>376.40661621094</ele>
        <time>2009-12-09T13:49:23Z</time>
      </trkpt>
      <trkpt lat="45.22827" lon="5.0111">
        <ele>373.70916748047</ele>
        <time>2009-12-09T13:49:31Z</time>
      </trkpt>
      <trkpt lat="45.22834" lon="5.00986">
        <ele>374.95864868164</ele>
        <time>2009-12-09T13:49:36Z</time>
      </trkpt>
      <trkpt lat="45.22837" lon="5.0094">
        <ele>379.11376953125</ele>
        <time>2009-12-09T13:49:40Z</time>
      </trkpt>
      <trkpt lat="45.22838" lon="5.0092">
        <ele>380.4287109375</ele>
        <time>2009-12-09T13:49:42Z</time>
      </trkpt>
      <trkpt lat="45.22846" lon="5.00884">
        <ele>383.61972045898</ele>
        <time>2009-12-09T13:49:46Z</time>
      </trkpt>
      <trkpt lat="45.22851" lon="5.00882">
        <ele>383.47894287109</ele>
        <time>2009-12-09T13:49:47Z</time>
      </trkpt>
      <trkpt lat="45.22883" lon="5.00869">
        <ele>382.56399536133</ele>
        <time>2009-12-09T13:49:53Z</time>
      </trkpt>
      <trkpt lat="45.22906" lon="5.00865">
        <ele>380.85562133789</ele>
        <time>2009-12-09T13:49:57Z</time>
      </trkpt>
      <trkpt lat="45.22937" lon="5.00859">
        <ele>377.98059082031</ele>
        <time>2009-12-09T13:50:02Z</time>
      </trkpt>
      <trkpt lat="45.22972" lon="5.00862">
        <ele>374.92907714844</ele>
        <time>2009-12-09T13:50:07Z</time>
      </trkpt>
      <trkpt lat="45.23038" lon="5.00877">
        <ele>368.56829833984</ele>
        <time>2009-12-09T13:50:14Z</time>
      </trkpt>
      <trkpt lat="45.23078" lon="5.00886">
        <ele>365.45944213867</ele>
        <time>2009-12-09T13:50:18Z</time>
      </trkpt>
      <trkpt lat="45.23151" lon="5.00904">
        <ele>359.99060058594</ele>
        <time>2009-12-09T13:50:25Z</time>
      </trkpt>
      <trkpt lat="45.23214" lon="5.00919">
        <ele>358.08428955078</ele>
        <time>2009-12-09T13:50:31Z</time>
      </trkpt>
      <trkpt lat="45.23223" lon="5.00921">
        <ele>358.16668701172</ele>
        <time>2009-12-09T13:50:32Z</time>
      </trkpt>
      <trkpt lat="45.23281" lon="5.00941">
        <ele>358.86877441406</ele>
        <time>2009-12-09T13:50:38Z</time>
      </trkpt>
      <trkpt lat="45.23309" lon="5.00946">
        <ele>359</ele>
        <time>2009-12-09T13:50:41Z</time>
      </trkpt>
      <trkpt lat="45.23335" lon="5.00951">
        <ele>359</ele>
        <time>2009-12-09T13:50:44Z</time>
      </trkpt>
      <trkpt lat="45.23352" lon="5.00954">
        <ele>359</ele>
        <time>2009-12-09T13:50:46Z</time>
      </trkpt>
      <trkpt lat="45.23389" lon="5.00961">
        <ele>356.57968139648</ele>
        <time>2009-12-09T13:50:51Z</time>
      </trkpt>
      <trkpt lat="45.23435" lon="5.00969">
        <ele>355.10931396484</ele>
        <time>2009-12-09T13:50:58Z</time>
      </trkpt>
      <trkpt lat="45.23461" lon="5.00974">
        <ele>354.51879882812</ele>
        <time>2009-12-09T13:51:02Z</time>
      </trkpt>
      <trkpt lat="45.23514" lon="5.00985">
        <ele>354.43176269531</ele>
        <time>2009-12-09T13:51:11Z</time>
      </trkpt>
      <trkpt lat="45.23556" lon="5.01007">
        <ele>356.93713378906</ele>
        <time>2009-12-09T13:51:19Z</time>
      </trkpt>
      <trkpt lat="45.23601" lon="5.01028">
        <ele>360</ele>
        <time>2009-12-09T13:51:28Z</time>
      </trkpt>
      <trkpt lat="45.23641" lon="5.01041">
        <ele>359.95510864258</ele>
        <time>2009-12-09T13:51:36Z</time>
      </trkpt>
      <trkpt lat="45.23678" lon="5.01047">
        <ele>359.81350708008</ele>
        <time>2009-12-09T13:51:43Z</time>
      </trkpt>
      <trkpt lat="45.23727" lon="5.01055">
        <ele>360</ele>
        <time>2009-12-09T13:51:52Z</time>
      </trkpt>
      <trkpt lat="45.23782" lon="5.01075">
        <ele>360</ele>
        <time>2009-12-09T13:52:02Z</time>
      </trkpt>
      <trkpt lat="45.2384" lon="5.01086">
        <ele>360</ele>
        <time>2009-12-09T13:52:12Z</time>
      </trkpt>
      <trkpt lat="45.23877" lon="5.01092">
        <ele>360</ele>
        <time>2009-12-09T13:52:19Z</time>
      </trkpt>
      <trkpt lat="45.23887" lon="5.01092">
        <ele>360</ele>
        <time>2009-12-09T13:52:21Z</time>
      </trkpt>
      <trkpt lat="45.23928" lon="5.01084">
        <ele>360</ele>
        <time>2009-12-09T13:52:30Z</time>
      </trkpt>
      <trkpt lat="45.23955" lon="5.01079">
        <ele>360</ele>
        <time>2009-12-09T13:52:36Z</time>
      </trkpt>
      <trkpt lat="45.23961" lon="5.01078">
        <ele>360</ele>
        <time>2009-12-09T13:52:37Z</time>
      </trkpt>
      <trkpt lat="45.24008" lon="5.01068">
        <ele>360</ele>
        <time>2009-12-09T13:52:44Z</time>
      </trkpt>
      <trkpt lat="45.24023" lon="5.01065">
        <ele>360</ele>
        <time>2009-12-09T13:52:46Z</time>
      </trkpt>
      <trkpt lat="45.24075" lon="5.01056">
        <ele>359.28686523438</ele>
        <time>2009-12-09T13:52:52Z</time>
      </trkpt>
      <trkpt lat="45.24084" lon="5.01054">
        <ele>358.77310180664</ele>
        <time>2009-12-09T13:52:53Z</time>
      </trkpt>
      <trkpt lat="45.24163" lon="5.01039">
        <ele>347.04644775391</ele>
        <time>2009-12-09T13:53:01Z</time>
      </trkpt>
      <trkpt lat="45.24198" lon="5.01017">
        <ele>341.68655395508</ele>
        <time>2009-12-09T13:53:05Z</time>
      </trkpt>
      <trkpt lat="45.24204" lon="5.01006">
        <ele>341.24688720703</ele>
        <time>2009-12-09T13:53:06Z</time>
      </trkpt>
      <trkpt lat="45.24208" lon="5.00983">
        <ele>340.99157714844</ele>
        <time>2009-12-09T13:53:08Z</time>
      </trkpt>
      <trkpt lat="45.24208" lon="5.00968">
        <ele>340.99157714844</ele>
        <time>2009-12-09T13:53:09Z</time>
      </trkpt>
      <trkpt lat="45.24202" lon="5.00944">
        <ele>341.45504760742</ele>
        <time>2009-12-09T13:53:11Z</time>
      </trkpt>
      <trkpt lat="45.24205" lon="5.00896">
        <ele>340.51916503906</ele>
        <time>2009-12-09T13:53:14Z</time>
      </trkpt>
      <trkpt lat="45.24213" lon="5.00893">
        <ele>339.47076416016</ele>
        <time>2009-12-09T13:53:15Z</time>
      </trkpt>
      <trkpt lat="45.24226" lon="5.009">
        <ele>337.65951538086</ele>
        <time>2009-12-09T13:53:17Z</time>
      </trkpt>
      <trkpt lat="45.24234" lon="5.00921">
        <ele>336.45571899414</ele>
        <time>2009-12-09T13:53:19Z</time>
      </trkpt>
      <trkpt lat="45.24236" lon="5.00956">
        <ele>336.64526367188</ele>
        <time>2009-12-09T13:53:22Z</time>
      </trkpt>
      <trkpt lat="45.24249" lon="5.01">
        <ele>333.37680053711</ele>
        <time>2009-12-09T13:53:26Z</time>
      </trkpt>
      <trkpt lat="45.24266" lon="5.0103">
        <ele>329.36630249023</ele>
        <time>2009-12-09T13:53:29Z</time>
      </trkpt>
      <trkpt lat="45.24284" lon="5.01041">
        <ele>325.34616088867</ele>
        <time>2009-12-09T13:53:31Z</time>
      </trkpt>
      <trkpt lat="45.24304" lon="5.01048">
        <ele>321.57818603516</ele>
        <time>2009-12-09T13:53:33Z</time>
      </trkpt>
      <trkpt lat="45.24347" lon="5.0105">
        <ele>312.83972167969</ele>
        <time>2009-12-09T13:53:37Z</time>
      </trkpt>
      <trkpt lat="45.2439" lon="5.0106">
        <ele>301.83557128906</ele>
        <time>2009-12-09T13:53:41Z</time>
      </trkpt>
      <trkpt lat="45.24415" lon="5.01093">
        <ele>299.19885253906</ele>
        <time>2009-12-09T13:53:44Z</time>
      </trkpt>
      <trkpt lat="45.24425" lon="5.0112">
        <ele>298.69549560547</ele>
        <time>2009-12-09T13:53:46Z</time>
      </trkpt>
      <trkpt lat="45.24424" lon="5.01153">
        <ele>298.86856079102</ele>
        <time>2009-12-09T13:53:48Z</time>
      </trkpt>
      <trkpt lat="45.24416" lon="5.01162">
        <ele>299.08428955078</ele>
        <time>2009-12-09T13:53:49Z</time>
      </trkpt>
      <trkpt lat="45.24394" lon="5.01176">
        <ele>300.64318847656</ele>
        <time>2009-12-09T13:53:51Z</time>
      </trkpt>
      <trkpt lat="45.24374" lon="5.01196">
        <ele>305.94494628906</ele>
        <time>2009-12-09T13:53:53Z</time>
      </trkpt>
      <trkpt lat="45.24347" lon="5.01257">
        <ele>313.39056396484</ele>
        <time>2009-12-09T13:53:57Z</time>
      </trkpt>
      <trkpt lat="45.24321" lon="5.01294">
        <ele>316.65631103516</ele>
        <time>2009-12-09T13:54:00Z</time>
      </trkpt>
      <trkpt lat="45.24299" lon="5.01326">
        <ele>317.80908203125</ele>
        <time>2009-12-09T13:54:03Z</time>
      </trkpt>
      <trkpt lat="45.24302" lon="5.01353">
        <ele>315.80569458008</ele>
        <time>2009-12-09T13:54:05Z</time>
      </trkpt>
      <trkpt lat="45.24324" lon="5.01382">
        <ele>309.31616210938</ele>
        <time>2009-12-09T13:54:08Z</time>
      </trkpt>
      <trkpt lat="45.24366" lon="5.01408">
        <ele>303.02917480469</ele>
        <time>2009-12-09T13:54:12Z</time>
      </trkpt>
      <trkpt lat="45.24378" lon="5.01409">
        <ele>301.32458496094</ele>
        <time>2009-12-09T13:54:13Z</time>
      </trkpt>
      <trkpt lat="45.24389" lon="5.01409">
        <ele>299.72790527344</ele>
        <time>2009-12-09T13:54:14Z</time>
      </trkpt>
      <trkpt lat="45.24419" lon="5.01406">
        <ele>299</ele>
        <time>2009-12-09T13:54:19Z</time>
      </trkpt>
      <trkpt lat="45.2448" lon="5.01404">
        <ele>298.40286254883</ele>
        <time>2009-12-09T13:54:23Z</time>
      </trkpt>
      <trkpt lat="45.24488" lon="5.01427">
        <ele>298.62878417969</ele>
        <time>2009-12-09T13:54:25Z</time>
      </trkpt>
      <trkpt lat="45.24496" lon="5.0147">
        <ele>300.05352783203</ele>
        <time>2009-12-09T13:54:31Z</time>
      </trkpt>
      <trkpt lat="45.24509" lon="5.0154">
        <ele>304.60400390625</ele>
        <time>2009-12-09T13:54:36Z</time>
      </trkpt>
      <trkpt lat="45.24518" lon="5.01607">
        <ele>309.49517822266</ele>
        <time>2009-12-09T13:54:44Z</time>
      </trkpt>
      <trkpt lat="45.24521" lon="5.01631">
        <ele>311.37756347656</ele>
        <time>2009-12-09T13:54:47Z</time>
      </trkpt>
      <trkpt lat="45.24529" lon="5.01705">
        <ele>316.85299682617</ele>
        <time>2009-12-09T13:54:57Z</time>
      </trkpt>
      <trkpt lat="45.24538" lon="5.01783">
        <ele>319.41592407227</ele>
        <time>2009-12-09T13:55:08Z</time>
      </trkpt>
      <trkpt lat="45.2455" lon="5.01828">
        <ele>320.42102050781</ele>
        <time>2009-12-09T13:55:15Z</time>
      </trkpt>
      <trkpt lat="45.24565" lon="5.01869">
        <ele>318.89099121094</ele>
        <time>2009-12-09T13:55:21Z</time>
      </trkpt>
      <trkpt lat="45.24587" lon="5.01932">
        <ele>319.37432861328</ele>
        <time>2009-12-09T13:55:30Z</time>
      </trkpt>
      <trkpt lat="45.24609" lon="5.01996">
        <ele>316.40133666992</ele>
        <time>2009-12-09T13:55:39Z</time>
      </trkpt>
      <trkpt lat="45.24635" lon="5.0206">
        <ele>309.49761962891</ele>
        <time>2009-12-09T13:55:48Z</time>
      </trkpt>
      <trkpt lat="45.24657" lon="5.02119">
        <ele>303.97805786133</ele>
        <time>2009-12-09T13:55:57Z</time>
      </trkpt>
      <trkpt lat="45.24675" lon="5.0217">
        <ele>302.06011962891</ele>
        <time>2009-12-09T13:56:04Z</time>
      </trkpt>
      <trkpt lat="45.24701" lon="5.02242">
        <ele>298.90167236328</ele>
        <time>2009-12-09T13:56:12Z</time>
      </trkpt>
      <trkpt lat="45.24704" lon="5.02252">
        <ele>298.15112304688</ele>
        <time>2009-12-09T13:56:13Z</time>
      </trkpt>
      <trkpt lat="45.24723" lon="5.02306">
        <ele>296.00842285156</ele>
        <time>2009-12-09T13:56:18Z</time>
      </trkpt>
      <trkpt lat="45.2474" lon="5.0235">
        <ele>296.73971557617</ele>
        <time>2009-12-09T13:56:22Z</time>
      </trkpt>
      <trkpt lat="45.24763" lon="5.02388">
        <ele>297</ele>
        <time>2009-12-09T13:56:27Z</time>
      </trkpt>
      <trkpt lat="45.24788" lon="5.0243">
        <ele>298</ele>
        <time>2009-12-09T13:56:34Z</time>
      </trkpt>
      <trkpt lat="45.24808" lon="5.0247">
        <ele>298</ele>
        <time>2009-12-09T13:56:40Z</time>
      </trkpt>
      <trkpt lat="45.24826" lon="5.0251">
        <ele>299</ele>
        <time>2009-12-09T13:56:47Z</time>
      </trkpt>
      <trkpt lat="45.24841" lon="5.02544">
        <ele>299</ele>
        <time>2009-12-09T13:56:54Z</time>
      </trkpt>
      <trkpt lat="45.24846" lon="5.02556">
        <ele>299.05368041992</ele>
        <time>2009-12-09T13:56:59Z</time>
      </trkpt>
      <trkpt lat="45.24847" lon="5.02558">
        <ele>299.19744873047</ele>
        <time>2009-12-09T13:57:01Z</time>
      </trkpt>
      <trkpt lat="45.24847" lon="5.02559">
        <ele>299.22543334961</ele>
        <time>2009-12-09T13:57:03Z</time>
      </trkpt>
      <trkpt lat="45.24852" lon="5.02555">
        <ele>299</ele>
        <time>2009-12-09T13:57:12Z</time>
      </trkpt>
      <trkpt lat="45.24864" lon="5.02541">
        <ele>299</ele>
        <time>2009-12-09T13:57:16Z</time>
      </trkpt>
      <trkpt lat="45.24882" lon="5.0253">
        <ele>299</ele>
        <time>2009-12-09T13:57:19Z</time>
      </trkpt>
      <trkpt lat="45.24902" lon="5.02534">
        <ele>299</ele>
        <time>2009-12-09T13:57:22Z</time>
      </trkpt>
      <trkpt lat="45.24916" lon="5.02557">
        <ele>299.00088500977</ele>
        <time>2009-12-09T13:57:25Z</time>
      </trkpt>
      <trkpt lat="45.24923" lon="5.02574">
        <ele>298.92343139648</ele>
        <time>2009-12-09T13:57:27Z</time>
      </trkpt>
      <trkpt lat="45.24929" lon="5.02604">
        <ele>299</ele>
        <time>2009-12-09T13:57:30Z</time>
      </trkpt>
      <trkpt lat="45.24938" lon="5.02644">
        <ele>299.31909179688</ele>
        <time>2009-12-09T13:57:34Z</time>
      </trkpt>
      <trkpt lat="45.24962" lon="5.02691">
        <ele>299.32421875</ele>
        <time>2009-12-09T13:57:39Z</time>
      </trkpt>
      <trkpt lat="45.24993" lon="5.02735">
        <ele>296.78277587891</ele>
        <time>2009-12-09T13:57:44Z</time>
      </trkpt>
      <trkpt lat="45.25045" lon="5.02787">
        <ele>297.62048339844</ele>
        <time>2009-12-09T13:57:51Z</time>
      </trkpt>
      <trkpt lat="45.25059" lon="5.02801">
        <ele>298</ele>
        <time>2009-12-09T13:57:53Z</time>
      </trkpt>
      <trkpt lat="45.2509" lon="5.02809">
        <ele>298.22723388672</ele>
        <time>2009-12-09T13:57:57Z</time>
      </trkpt>
      <trkpt lat="45.25112" lon="5.02805">
        <ele>298.98718261719</ele>
        <time>2009-12-09T13:58:00Z</time>
      </trkpt>
      <trkpt lat="45.25117" lon="5.02802">
        <ele>298.90908813477</ele>
        <time>2009-12-09T13:58:01Z</time>
      </trkpt>
      <trkpt lat="45.25159" lon="5.02764">
        <ele>299</ele>
        <time>2009-12-09T13:58:08Z</time>
      </trkpt>
      <trkpt lat="45.25169" lon="5.02754">
        <ele>299</ele>
        <time>2009-12-09T13:58:10Z</time>
      </trkpt>
      <trkpt lat="45.25171" lon="5.02752">
        <ele>299</ele>
        <time>2009-12-09T13:58:11Z</time>
      </trkpt>
      <trkpt lat="45.25177" lon="5.0277">
        <ele>299</ele>
        <time>2009-12-09T13:58:13Z</time>
      </trkpt>
      <trkpt lat="45.25186" lon="5.02792">
        <ele>299</ele>
        <time>2009-12-09T13:58:18Z</time>
      </trkpt>
      <trkpt lat="45.25194" lon="5.02812">
        <ele>299</ele>
        <time>2009-12-09T13:58:23Z</time>
      </trkpt>
      <trkpt lat="45.25202" lon="5.02832">
        <ele>299</ele>
        <time>2009-12-09T13:58:28Z</time>
      </trkpt>
      <trkpt lat="45.25209" lon="5.02848">
        <ele>299</ele>
        <time>2009-12-09T13:58:36Z</time>
      </trkpt>
      <trkpt lat="45.25227" lon="5.02897">
        <ele>300.29974365234</ele>
        <time>2009-12-09T13:58:40Z</time>
      </trkpt>
      <trkpt lat="45.25229" lon="5.02903">
        <ele>300.50057983398</ele>
        <time>2009-12-09T13:58:41Z</time>
      </trkpt>
      <trkpt lat="45.25239" lon="5.02931">
        <ele>302.05422973633</ele>
        <time>2009-12-09T13:58:46Z</time>
      </trkpt>
      <trkpt lat="45.25243" lon="5.02942">
        <ele>302.83013916016</ele>
        <time>2009-12-09T13:58:48Z</time>
      </trkpt>
      <trkpt lat="45.2526" lon="5.02995">
        <ele>306.83081054688</ele>
        <time>2009-12-09T13:58:57Z</time>
      </trkpt>
      <trkpt lat="45.25275" lon="5.03046">
        <ele>310.6383972168</ele>
        <time>2009-12-09T13:59:05Z</time>
      </trkpt>
      <trkpt lat="45.2529" lon="5.03093">
        <ele>313.07266235352</ele>
        <time>2009-12-09T13:59:13Z</time>
      </trkpt>
      <trkpt lat="45.25296" lon="5.03124">
        <ele>314.62817382812</ele>
        <time>2009-12-09T13:59:18Z</time>
      </trkpt>
      <trkpt lat="45.25297" lon="5.03157">
        <ele>316.70629882812</ele>
        <time>2009-12-09T13:59:23Z</time>
      </trkpt>
      <trkpt lat="45.25294" lon="5.03161">
        <ele>317.12078857422</ele>
        <time>2009-12-09T13:59:24Z</time>
      </trkpt>
      <trkpt lat="45.25262" lon="5.03192">
        <ele>319.85037231445</ele>
        <time>2009-12-09T13:59:32Z</time>
      </trkpt>
      <trkpt lat="45.25249" lon="5.03203">
        <ele>320.31524658203</ele>
        <time>2009-12-09T13:59:35Z</time>
      </trkpt>
      <trkpt lat="45.25232" lon="5.03219">
        <ele>320.89889526367</ele>
        <time>2009-12-09T13:59:39Z</time>
      </trkpt>
      <trkpt lat="45.25216" lon="5.03231">
        <ele>321.33319091797</ele>
        <time>2009-12-09T13:59:43Z</time>
      </trkpt>
      <trkpt lat="45.25183" lon="5.03238">
        <ele>321.1533203125</ele>
        <time>2009-12-09T13:59:51Z</time>
      </trkpt>
      <trkpt lat="45.25157" lon="5.03238">
        <ele>320.37847900391</ele>
        <time>2009-12-09T13:59:58Z</time>
      </trkpt>
      <trkpt lat="45.25135" lon="5.03248">
        <ele>319.21221923828</ele>
        <time>2009-12-09T14:00:05Z</time>
      </trkpt>
      <trkpt lat="45.25119" lon="5.03266">
        <ele>317.82345581055</ele>
        <time>2009-12-09T14:00:11Z</time>
      </trkpt>
      <trkpt lat="45.25104" lon="5.03291">
        <ele>316.92315673828</ele>
        <time>2009-12-09T14:00:18Z</time>
      </trkpt>
      <trkpt lat="45.25093" lon="5.03318">
        <ele>316.07931518555</ele>
        <time>2009-12-09T14:00:25Z</time>
      </trkpt>
      <trkpt lat="45.25085" lon="5.03348">
        <ele>317.29507446289</ele>
        <time>2009-12-09T14:00:32Z</time>
      </trkpt>
      <trkpt lat="45.2508" lon="5.03382">
        <ele>318.8327331543</ele>
        <time>2009-12-09T14:00:40Z</time>
      </trkpt>
      <trkpt lat="45.25078" lon="5.03403">
        <ele>319.5185546875</ele>
        <time>2009-12-09T14:00:45Z</time>
      </trkpt>
      <trkpt lat="45.25075" lon="5.03426">
        <ele>320.36254882812</ele>
        <time>2009-12-09T14:00:50Z</time>
      </trkpt>
      <trkpt lat="45.25071" lon="5.03456">
        <ele>322.00390625</ele>
        <time>2009-12-09T14:00:57Z</time>
      </trkpt>
      <trkpt lat="45.25069" lon="5.03482">
        <ele>323.30642700195</ele>
        <time>2009-12-09T14:01:03Z</time>
      </trkpt>
      <trkpt lat="45.25068" lon="5.03514">
        <ele>324.36901855469</ele>
        <time>2009-12-09T14:01:10Z</time>
      </trkpt>
      <trkpt lat="45.25068" lon="5.03544">
        <ele>325.5002746582</ele>
        <time>2009-12-09T14:01:17Z</time>
      </trkpt>
      <trkpt lat="45.25069" lon="5.03579">
        <ele>327.6796875</ele>
        <time>2009-12-09T14:01:25Z</time>
      </trkpt>
      <trkpt lat="45.25071" lon="5.03622">
        <ele>329.63861083984</ele>
        <time>2009-12-09T14:01:34Z</time>
      </trkpt>
      <trkpt lat="45.25071" lon="5.03647">
        <ele>330.83923339844</ele>
        <time>2009-12-09T14:01:39Z</time>
      </trkpt>
      <trkpt lat="45.25065" lon="5.03691">
        <ele>332.49481201172</ele>
        <time>2009-12-09T14:01:48Z</time>
      </trkpt>
      <trkpt lat="45.25057" lon="5.03738">
        <ele>334.63558959961</ele>
        <time>2009-12-09T14:01:58Z</time>
      </trkpt>
      <trkpt lat="45.25051" lon="5.03773">
        <ele>336.37231445312</ele>
        <time>2009-12-09T14:02:06Z</time>
      </trkpt>
      <trkpt lat="45.25047" lon="5.03799">
        <ele>337.15979003906</ele>
        <time>2009-12-09T14:02:12Z</time>
      </trkpt>
      <trkpt lat="45.25043" lon="5.03828">
        <ele>338.69226074219</ele>
        <time>2009-12-09T14:02:19Z</time>
      </trkpt>
      <trkpt lat="45.25038" lon="5.03858">
        <ele>339.62750244141</ele>
        <time>2009-12-09T14:02:26Z</time>
      </trkpt>
      <trkpt lat="45.25034" lon="5.03883">
        <ele>341.23226928711</ele>
        <time>2009-12-09T14:02:32Z</time>
      </trkpt>
      <trkpt lat="45.25031" lon="5.03914">
        <ele>343.12609863281</ele>
        <time>2009-12-09T14:02:39Z</time>
      </trkpt>
      <trkpt lat="45.25026" lon="5.03952">
        <ele>346.61505126953</ele>
        <time>2009-12-09T14:02:47Z</time>
      </trkpt>
      <trkpt lat="45.25024" lon="5.03972">
        <ele>348.31338500977</ele>
        <time>2009-12-09T14:02:56Z</time>
      </trkpt>
      <trkpt lat="45.25015" lon="5.0404">
        <ele>351.16925048828</ele>
        <time>2009-12-09T14:03:04Z</time>
      </trkpt>
      <trkpt lat="45.25015" lon="5.04062">
        <ele>352.90783691406</ele>
        <time>2009-12-09T14:03:12Z</time>
      </trkpt>
      <trkpt lat="45.25013" lon="5.04146">
        <ele>357.94537353516</ele>
        <time>2009-12-09T14:03:22Z</time>
      </trkpt>
      <trkpt lat="45.25011" lon="5.04193">
        <ele>359.95736694336</ele>
        <time>2009-12-09T14:03:30Z</time>
      </trkpt>
      <trkpt lat="45.25007" lon="5.04229">
        <ele>361.10531616211</ele>
        <time>2009-12-09T14:03:37Z</time>
      </trkpt>
      <trkpt lat="45.25003" lon="5.04259">
        <ele>360.65893554688</ele>
        <time>2009-12-09T14:03:43Z</time>
      </trkpt>
      <trkpt lat="45.24999" lon="5.04295">
        <ele>359.65441894531</ele>
        <time>2009-12-09T14:03:50Z</time>
      </trkpt>
      <trkpt lat="45.24993" lon="5.04343">
        <ele>359.24975585938</ele>
        <time>2009-12-09T14:03:59Z</time>
      </trkpt>
      <trkpt lat="45.2499" lon="5.04377">
        <ele>359.81451416016</ele>
        <time>2009-12-09T14:04:05Z</time>
      </trkpt>
      <trkpt lat="45.24994" lon="5.04425">
        <ele>362.7702331543</ele>
        <time>2009-12-09T14:04:13Z</time>
      </trkpt>
      <trkpt lat="45.25007" lon="5.04487">
        <ele>369.01135253906</ele>
        <time>2009-12-09T14:04:22Z</time>
      </trkpt>
      <trkpt lat="45.2502" lon="5.04547">
        <ele>374.26684570312</ele>
        <time>2009-12-09T14:04:33Z</time>
      </trkpt>
      <trkpt lat="45.25045" lon="5.04611">
        <ele>380.47634887695</ele>
        <time>2009-12-09T14:04:40Z</time>
      </trkpt>
      <trkpt lat="45.25053" lon="5.0463">
        <ele>382.83627319336</ele>
        <time>2009-12-09T14:04:43Z</time>
      </trkpt>
      <trkpt lat="45.25054" lon="5.04654">
        <ele>384.83312988281</ele>
        <time>2009-12-09T14:04:47Z</time>
      </trkpt>
      <trkpt lat="45.25051" lon="5.04689">
        <ele>386.4196472168</ele>
        <time>2009-12-09T14:04:53Z</time>
      </trkpt>
      <trkpt lat="45.25047" lon="5.04706">
        <ele>386.66311645508</ele>
        <time>2009-12-09T14:04:56Z</time>
      </trkpt>
      <trkpt lat="45.25041" lon="5.04727">
        <ele>387.27252197266</ele>
        <time>2009-12-09T14:05:01Z</time>
      </trkpt>
      <trkpt lat="45.2502" lon="5.04774">
        <ele>386.69564819336</ele>
        <time>2009-12-09T14:05:07Z</time>
      </trkpt>
      <trkpt lat="45.25006" lon="5.04793">
        <ele>384.41738891602</ele>
        <time>2009-12-09T14:05:12Z</time>
      </trkpt>
      <trkpt lat="45.24978" lon="5.04829">
        <ele>381.93283081055</ele>
        <time>2009-12-09T14:05:21Z</time>
      </trkpt>
      <trkpt lat="45.24971" lon="5.04834">
        <ele>380.61737060547</ele>
        <time>2009-12-09T14:05:23Z</time>
      </trkpt>
      <trkpt lat="45.24929" lon="5.04856">
        <ele>371.65664672852</ele>
        <time>2009-12-09T14:05:33Z</time>
      </trkpt>
      <trkpt lat="45.24921" lon="5.0486">
        <ele>369.95376586914</ele>
        <time>2009-12-09T14:05:35Z</time>
      </trkpt>
      <trkpt lat="45.24901" lon="5.04888">
        <ele>369.61706542969</ele>
        <time>2009-12-09T14:05:41Z</time>
      </trkpt>
      <trkpt lat="45.24898" lon="5.04894">
        <ele>369.67877197266</ele>
        <time>2009-12-09T14:05:42Z</time>
      </trkpt>
      <trkpt lat="45.24884" lon="5.04964">
        <ele>375.67733764648</ele>
        <time>2009-12-09T14:05:51Z</time>
      </trkpt>
      <trkpt lat="45.24869" lon="5.05017">
        <ele>377.93368530273</ele>
        <time>2009-12-09T14:05:58Z</time>
      </trkpt>
      <trkpt lat="45.2485" lon="5.05069">
        <ele>378.83612060547</ele>
        <time>2009-12-09T14:06:05Z</time>
      </trkpt>
      <trkpt lat="45.24831" lon="5.05122">
        <ele>379.96328735352</ele>
        <time>2009-12-09T14:06:13Z</time>
      </trkpt>
      <trkpt lat="45.24816" lon="5.05166">
        <ele>381.11590576172</ele>
        <time>2009-12-09T14:06:18Z</time>
      </trkpt>
      <trkpt lat="45.24812" lon="5.05209">
        <ele>384.30404663086</ele>
        <time>2009-12-09T14:06:25Z</time>
      </trkpt>
      <trkpt lat="45.24808" lon="5.05244">
        <ele>386.09692382812</ele>
        <time>2009-12-09T14:06:31Z</time>
      </trkpt>
      <trkpt lat="45.24793" lon="5.05279">
        <ele>387.28311157227</ele>
        <time>2009-12-09T14:06:38Z</time>
      </trkpt>
      <trkpt lat="45.24771" lon="5.05322">
        <ele>386.32693481445</ele>
        <time>2009-12-09T14:06:47Z</time>
      </trkpt>
      <trkpt lat="45.24752" lon="5.05347">
        <ele>383.60321044922</ele>
        <time>2009-12-09T14:06:53Z</time>
      </trkpt>
      <trkpt lat="45.24718" lon="5.05389">
        <ele>383.45016479492</ele>
        <time>2009-12-09T14:07:03Z</time>
      </trkpt>
      <trkpt lat="45.24699" lon="5.05401">
        <ele>381.55090332031</ele>
        <time>2009-12-09T14:07:08Z</time>
      </trkpt>
      <trkpt lat="45.24673" lon="5.05418">
        <ele>380.58535766602</ele>
        <time>2009-12-09T14:07:15Z</time>
      </trkpt>
      <trkpt lat="45.24651" lon="5.05433">
        <ele>380.57513427734</ele>
        <time>2009-12-09T14:07:22Z</time>
      </trkpt>
      <trkpt lat="45.24641" lon="5.05454">
        <ele>381.45962524414</ele>
        <time>2009-12-09T14:07:27Z</time>
      </trkpt>
      <trkpt lat="45.24636" lon="5.05487">
        <ele>383.46221923828</ele>
        <time>2009-12-09T14:07:34Z</time>
      </trkpt>
      <trkpt lat="45.24633" lon="5.05527">
        <ele>386.53015136719</ele>
        <time>2009-12-09T14:07:43Z</time>
      </trkpt>
      <trkpt lat="45.2463" lon="5.05555">
        <ele>387.3591003418</ele>
        <time>2009-12-09T14:07:49Z</time>
      </trkpt>
      <trkpt lat="45.24632" lon="5.05585">
        <ele>390.31848144531</ele>
        <time>2009-12-09T14:07:56Z</time>
      </trkpt>
      <trkpt lat="45.24636" lon="5.05612">
        <ele>391.86602783203</ele>
        <time>2009-12-09T14:08:03Z</time>
      </trkpt>
      <trkpt lat="45.24636" lon="5.05636">
        <ele>393.55352783203</ele>
        <time>2009-12-09T14:08:09Z</time>
      </trkpt>
      <trkpt lat="45.24635" lon="5.05656">
        <ele>394.77075195312</ele>
        <time>2009-12-09T14:08:14Z</time>
      </trkpt>
      <trkpt lat="45.2463" lon="5.05676">
        <ele>395.70803833008</ele>
        <time>2009-12-09T14:08:20Z</time>
      </trkpt>
      <trkpt lat="45.24621" lon="5.05699">
        <ele>396.3186340332</ele>
        <time>2009-12-09T14:08:27Z</time>
      </trkpt>
      <trkpt lat="45.24612" lon="5.05724">
        <ele>396.23510742188</ele>
        <time>2009-12-09T14:08:34Z</time>
      </trkpt>
      <trkpt lat="45.24603" lon="5.05747">
        <ele>397.23727416992</ele>
        <time>2009-12-09T14:08:40Z</time>
      </trkpt>
      <trkpt lat="45.24595" lon="5.0577">
        <ele>398.29302978516</ele>
        <time>2009-12-09T14:08:47Z</time>
      </trkpt>
      <trkpt lat="45.24586" lon="5.05799">
        <ele>399.07043457031</ele>
        <time>2009-12-09T14:08:54Z</time>
      </trkpt>
      <trkpt lat="45.24578" lon="5.05827">
        <ele>401.3298034668</ele>
        <time>2009-12-09T14:09:01Z</time>
      </trkpt>
      <trkpt lat="45.24576" lon="5.05834">
        <ele>402.04852294922</ele>
        <time>2009-12-09T14:09:03Z</time>
      </trkpt>
      <trkpt lat="45.24572" lon="5.05847">
        <ele>402.99267578125</ele>
        <time>2009-12-09T14:09:07Z</time>
      </trkpt>
      <trkpt lat="45.24561" lon="5.05872">
        <ele>405.26406860352</ele>
        <time>2009-12-09T14:09:14Z</time>
      </trkpt>
      <trkpt lat="45.24554" lon="5.05887">
        <ele>406.82406616211</ele>
        <time>2009-12-09T14:09:19Z</time>
      </trkpt>
      <trkpt lat="45.2454" lon="5.05913">
        <ele>408.77172851562</ele>
        <time>2009-12-09T14:09:27Z</time>
      </trkpt>
      <trkpt lat="45.24531" lon="5.05933">
        <ele>409.63272094727</ele>
        <time>2009-12-09T14:09:32Z</time>
      </trkpt>
      <trkpt lat="45.24522" lon="5.0595">
        <ele>410.57958984375</ele>
        <time>2009-12-09T14:09:37Z</time>
      </trkpt>
      <trkpt lat="45.2451" lon="5.05974">
        <ele>412.14221191406</ele>
        <time>2009-12-09T14:09:44Z</time>
      </trkpt>
      <trkpt lat="45.24495" lon="5.06004">
        <ele>413.9787902832</ele>
        <time>2009-12-09T14:09:52Z</time>
      </trkpt>
      <trkpt lat="45.24482" lon="5.06031">
        <ele>414.44912719727</ele>
        <time>2009-12-09T14:09:59Z</time>
      </trkpt>
      <trkpt lat="45.2447" lon="5.06054">
        <ele>415.49548339844</ele>
        <time>2009-12-09T14:10:06Z</time>
      </trkpt>
      <trkpt lat="45.24457" lon="5.0608">
        <ele>418.17749023438</ele>
        <time>2009-12-09T14:10:13Z</time>
      </trkpt>
      <trkpt lat="45.24447" lon="5.06101">
        <ele>419.70513916016</ele>
        <time>2009-12-09T14:10:19Z</time>
      </trkpt>
      <trkpt lat="45.24441" lon="5.06112">
        <ele>420.41900634766</ele>
        <time>2009-12-09T14:10:22Z</time>
      </trkpt>
      <trkpt lat="45.24421" lon="5.06152">
        <ele>425.12255859375</ele>
        <time>2009-12-09T14:10:32Z</time>
      </trkpt>
      <trkpt lat="45.24408" lon="5.06178">
        <ele>427.63995361328</ele>
        <time>2009-12-09T14:10:39Z</time>
      </trkpt>
      <trkpt lat="45.24395" lon="5.06204">
        <ele>429.98388671875</ele>
        <time>2009-12-09T14:10:46Z</time>
      </trkpt>
      <trkpt lat="45.24384" lon="5.06227">
        <ele>431.8283996582</ele>
        <time>2009-12-09T14:10:52Z</time>
      </trkpt>
      <trkpt lat="45.24373" lon="5.06248">
        <ele>434.00302124023</ele>
        <time>2009-12-09T14:10:58Z</time>
      </trkpt>
      <trkpt lat="45.24372" lon="5.06251">
        <ele>434.24865722656</ele>
        <time>2009-12-09T14:11:02Z</time>
      </trkpt>
      <trkpt lat="45.24372" lon="5.06251">
        <ele>434.24865722656</ele>
        <time>2009-12-09T14:11:04Z</time>
      </trkpt>
      <trkpt lat="45.24372" lon="5.06251">
        <ele>434.24865722656</ele>
        <time>2009-12-09T14:11:07Z</time>
      </trkpt>
      <trkpt lat="45.24372" lon="5.06251">
        <ele>434.24865722656</ele>
        <time>2009-12-09T14:12:04Z</time>
      </trkpt>
      <trkpt lat="45.24372" lon="5.06251">
        <ele>434.24865722656</ele>
        <time>2009-12-09T14:12:06Z</time>
      </trkpt>
      <trkpt lat="45.24372" lon="5.06251">
        <ele>434.24865722656</ele>
        <time>2009-12-09T14:13:11Z</time>
      </trkpt>
      <trkpt lat="45.24372" lon="5.06251">
        <ele>434.24865722656</ele>
        <time>2009-12-09T14:13:12Z</time>
      </trkpt>
      <trkpt lat="45.24372" lon="5.06251">
        <ele>434.24865722656</ele>
        <time>2009-12-09T14:13:15Z</time>
      </trkpt>
      <trkpt lat="45.24372" lon="5.06251">
        <ele>434.24865722656</ele>
        <time>2009-12-09T14:13:42Z</time>
      </trkpt>
      <trkpt lat="45.24348" lon="5.06296">
        <ele>436.27914428711</ele>
        <time>2009-12-09T14:13:49Z</time>
      </trkpt>
      <trkpt lat="45.24338" lon="5.06314">
        <ele>437.13714599609</ele>
        <time>2009-12-09T14:13:55Z</time>
      </trkpt>
      <trkpt lat="45.2433" lon="5.06343">
        <ele>438.43887329102</ele>
        <time>2009-12-09T14:14:02Z</time>
      </trkpt>
      <trkpt lat="45.24325" lon="5.06373">
        <ele>439.26248168945</ele>
        <time>2009-12-09T14:14:09Z</time>
      </trkpt>
      <trkpt lat="45.24327" lon="5.06407">
        <ele>440.26193237305</ele>
        <time>2009-12-09T14:14:17Z</time>
      </trkpt>
      <trkpt lat="45.2433" lon="5.06441">
        <ele>442.97009277344</ele>
        <time>2009-12-09T14:14:24Z</time>
      </trkpt>
      <trkpt lat="45.24332" lon="5.06478">
        <ele>445.68185424805</ele>
        <time>2009-12-09T14:14:32Z</time>
      </trkpt>
      <trkpt lat="45.24336" lon="5.0652">
        <ele>449.93588256836</ele>
        <time>2009-12-09T14:14:41Z</time>
      </trkpt>
      <trkpt lat="45.24343" lon="5.06556">
        <ele>451.98559570312</ele>
        <time>2009-12-09T14:14:49Z</time>
      </trkpt>
      <trkpt lat="45.24355" lon="5.06585">
        <ele>453.69326782227</ele>
        <time>2009-12-09T14:14:56Z</time>
      </trkpt>
      <trkpt lat="45.24367" lon="5.06609">
        <ele>453.52450561523</ele>
        <time>2009-12-09T14:15:02Z</time>
      </trkpt>
      <trkpt lat="45.24372" lon="5.06638">
        <ele>455.77075195312</ele>
        <time>2009-12-09T14:15:08Z</time>
      </trkpt>
      <trkpt lat="45.24365" lon="5.06659">
        <ele>458.00836181641</ele>
        <time>2009-12-09T14:15:13Z</time>
      </trkpt>
      <trkpt lat="45.24355" lon="5.06675">
        <ele>459.54998779297</ele>
        <time>2009-12-09T14:15:18Z</time>
      </trkpt>
      <trkpt lat="45.24337" lon="5.06676">
        <ele>460.17999267578</ele>
        <time>2009-12-09T14:15:23Z</time>
      </trkpt>
      <trkpt lat="45.24323" lon="5.06674">
        <ele>461.34381103516</ele>
        <time>2009-12-09T14:15:28Z</time>
      </trkpt>
      <trkpt lat="45.24301" lon="5.06671">
        <ele>463.31811523438</ele>
        <time>2009-12-09T14:15:35Z</time>
      </trkpt>
      <trkpt lat="45.24281" lon="5.06668">
        <ele>463.9309387207</ele>
        <time>2009-12-09T14:15:41Z</time>
      </trkpt>
      <trkpt lat="45.24256" lon="5.06664">
        <ele>466.17572021484</ele>
        <time>2009-12-09T14:15:48Z</time>
      </trkpt>
      <trkpt lat="45.24232" lon="5.06661">
        <ele>467.91400146484</ele>
        <time>2009-12-09T14:15:55Z</time>
      </trkpt>
      <trkpt lat="45.24212" lon="5.06658">
        <ele>469.12249755859</ele>
        <time>2009-12-09T14:16:01Z</time>
      </trkpt>
      <trkpt lat="45.24196" lon="5.06656">
        <ele>470.13873291016</ele>
        <time>2009-12-09T14:16:06Z</time>
      </trkpt>
      <trkpt lat="45.24172" lon="5.06658">
        <ele>472.26159667969</ele>
        <time>2009-12-09T14:16:13Z</time>
      </trkpt>
      <trkpt lat="45.24152" lon="5.06665">
        <ele>474.02969360352</ele>
        <time>2009-12-09T14:16:19Z</time>
      </trkpt>
      <trkpt lat="45.24125" lon="5.06675">
        <ele>475.69268798828</ele>
        <time>2009-12-09T14:16:27Z</time>
      </trkpt>
      <trkpt lat="45.24108" lon="5.0668">
        <ele>476.93563842773</ele>
        <time>2009-12-09T14:16:32Z</time>
      </trkpt>
      <trkpt lat="45.24091" lon="5.06682">
        <ele>478.97811889648</ele>
        <time>2009-12-09T14:16:37Z</time>
      </trkpt>
      <trkpt lat="45.24078" lon="5.06683">
        <ele>480</ele>
        <time>2009-12-09T14:16:41Z</time>
      </trkpt>
      <trkpt lat="45.24058" lon="5.06685">
        <ele>480</ele>
        <time>2009-12-09T14:16:46Z</time>
      </trkpt>
      <trkpt lat="45.24038" lon="5.06687">
        <ele>480</ele>
        <time>2009-12-09T14:16:51Z</time>
      </trkpt>
      <trkpt lat="45.24017" lon="5.06693">
        <ele>480</ele>
        <time>2009-12-09T14:16:56Z</time>
      </trkpt>
      <trkpt lat="45.24001" lon="5.06702">
        <ele>480</ele>
        <time>2009-12-09T14:17:00Z</time>
      </trkpt>
      <trkpt lat="45.23972" lon="5.06728">
        <ele>480</ele>
        <time>2009-12-09T14:17:08Z</time>
      </trkpt>
      <trkpt lat="45.23969" lon="5.06731">
        <ele>480</ele>
        <time>2009-12-09T14:17:09Z</time>
      </trkpt>
      <trkpt lat="45.23943" lon="5.0676">
        <ele>480.02572631836</ele>
        <time>2009-12-09T14:17:17Z</time>
      </trkpt>
      <trkpt lat="45.23926" lon="5.06795">
        <ele>479.79797363281</ele>
        <time>2009-12-09T14:17:25Z</time>
      </trkpt>
      <trkpt lat="45.23924" lon="5.06799">
        <ele>479.8037109375</ele>
        <time>2009-12-09T14:17:26Z</time>
      </trkpt>
      <trkpt lat="45.2391" lon="5.06827">
        <ele>480.24865722656</ele>
        <time>2009-12-09T14:17:33Z</time>
      </trkpt>
      <trkpt lat="45.23896" lon="5.06855">
        <ele>480.54339599609</ele>
        <time>2009-12-09T14:17:39Z</time>
      </trkpt>
      <trkpt lat="45.23877" lon="5.06902">
        <ele>481.83190917969</ele>
        <time>2009-12-09T14:17:47Z</time>
      </trkpt>
      <trkpt lat="45.23865" lon="5.0694">
        <ele>481.90231323242</ele>
        <time>2009-12-09T14:17:53Z</time>
      </trkpt>
      <trkpt lat="45.23862" lon="5.06967">
        <ele>480.34048461914</ele>
        <time>2009-12-09T14:17:57Z</time>
      </trkpt>
      <trkpt lat="45.23859" lon="5.07006">
        <ele>480.21975708008</ele>
        <time>2009-12-09T14:18:03Z</time>
      </trkpt>
      <trkpt lat="45.23855" lon="5.07067">
        <ele>481.03576660156</ele>
        <time>2009-12-09T14:18:12Z</time>
      </trkpt>
      <trkpt lat="45.23849" lon="5.0712">
        <ele>483.80877685547</ele>
        <time>2009-12-09T14:18:20Z</time>
      </trkpt>
      <trkpt lat="45.23842" lon="5.07172">
        <ele>487.13580322266</ele>
        <time>2009-12-09T14:18:28Z</time>
      </trkpt>
      <trkpt lat="45.23834" lon="5.0723">
        <ele>488.88934326172</ele>
        <time>2009-12-09T14:18:37Z</time>
      </trkpt>
      <trkpt lat="45.23825" lon="5.07294">
        <ele>489.48944091797</ele>
        <time>2009-12-09T14:18:46Z</time>
      </trkpt>
      <trkpt lat="45.23818" lon="5.07325">
        <ele>487.73162841797</ele>
        <time>2009-12-09T14:18:50Z</time>
      </trkpt>
      <trkpt lat="45.23804" lon="5.07385">
        <ele>484.37747192383</ele>
        <time>2009-12-09T14:18:57Z</time>
      </trkpt>
      <trkpt lat="45.23788" lon="5.07456">
        <ele>481.22354125977</ele>
        <time>2009-12-09T14:19:05Z</time>
      </trkpt>
      <trkpt lat="45.23779" lon="5.07515">
        <ele>479.92111206055</ele>
        <time>2009-12-09T14:19:12Z</time>
      </trkpt>
      <trkpt lat="45.23774" lon="5.07576">
        <ele>482.06365966797</ele>
        <time>2009-12-09T14:19:20Z</time>
      </trkpt>
      <trkpt lat="45.23771" lon="5.07634">
        <ele>481.65298461914</ele>
        <time>2009-12-09T14:19:28Z</time>
      </trkpt>
      <trkpt lat="45.23774" lon="5.07677">
        <ele>481.30261230469</ele>
        <time>2009-12-09T14:19:35Z</time>
      </trkpt>
      <trkpt lat="45.23777" lon="5.07706">
        <ele>481.08288574219</ele>
        <time>2009-12-09T14:19:41Z</time>
      </trkpt>
      <trkpt lat="45.23781" lon="5.0772">
        <ele>480.87664794922</ele>
        <time>2009-12-09T14:19:47Z</time>
      </trkpt>
      <trkpt lat="45.23785" lon="5.07732">
        <ele>480.73931884766</ele>
        <time>2009-12-09T14:19:53Z</time>
      </trkpt>
      <trkpt lat="45.23789" lon="5.07744">
        <ele>480.60198974609</ele>
        <time>2009-12-09T14:19:59Z</time>
      </trkpt>
      <trkpt lat="45.23792" lon="5.07752">
        <ele>480.49212646484</ele>
        <time>2009-12-09T14:20:03Z</time>
      </trkpt>
      <trkpt lat="45.23794" lon="5.0776">
        <ele>480.40972900391</ele>
        <time>2009-12-09T14:20:06Z</time>
      </trkpt>
      <trkpt lat="45.23799" lon="5.07775">
        <ele>480.23120117188</ele>
        <time>2009-12-09T14:20:11Z</time>
      </trkpt>
      <trkpt lat="45.238" lon="5.07779">
        <ele>480.19000244141</ele>
        <time>2009-12-09T14:20:12Z</time>
      </trkpt>
      <trkpt lat="45.23809" lon="5.07805">
        <ele>480</ele>
        <time>2009-12-09T14:20:19Z</time>
      </trkpt>
      <trkpt lat="45.23816" lon="5.07827">
        <ele>480</ele>
        <time>2009-12-09T14:20:24Z</time>
      </trkpt>
      <trkpt lat="45.23825" lon="5.07856">
        <ele>480</ele>
        <time>2009-12-09T14:20:30Z</time>
      </trkpt>
      <trkpt lat="45.23838" lon="5.07896">
        <ele>480</ele>
        <time>2009-12-09T14:20:38Z</time>
      </trkpt>
      <trkpt lat="45.23842" lon="5.07906">
        <ele>480</ele>
        <time>2009-12-09T14:20:40Z</time>
      </trkpt>
      <trkpt lat="45.23849" lon="5.07944">
        <ele>480.99816894531</ele>
        <time>2009-12-09T14:20:47Z</time>
      </trkpt>
      <trkpt lat="45.23853" lon="5.07962">
        <ele>481</ele>
        <time>2009-12-09T14:20:50Z</time>
      </trkpt>
      <trkpt lat="45.23854" lon="5.07973">
        <ele>481</ele>
        <time>2009-12-09T14:20:52Z</time>
      </trkpt>
      <trkpt lat="45.23856" lon="5.07984">
        <ele>481</ele>
        <time>2009-12-09T14:20:54Z</time>
      </trkpt>
      <trkpt lat="45.2386" lon="5.08005">
        <ele>481</ele>
        <time>2009-12-09T14:20:58Z</time>
      </trkpt>
      <trkpt lat="45.23864" lon="5.08047">
        <ele>480.88287353516</ele>
        <time>2009-12-09T14:21:05Z</time>
      </trkpt>
      <trkpt lat="45.23869" lon="5.08096">
        <ele>481</ele>
        <time>2009-12-09T14:21:12Z</time>
      </trkpt>
      <trkpt lat="45.23879" lon="5.08136">
        <ele>481</ele>
        <time>2009-12-09T14:21:19Z</time>
      </trkpt>
      <trkpt lat="45.23896" lon="5.08185">
        <ele>482.17315673828</ele>
        <time>2009-12-09T14:21:27Z</time>
      </trkpt>
      <trkpt lat="45.23916" lon="5.08244">
        <ele>483.76843261719</ele>
        <time>2009-12-09T14:21:35Z</time>
      </trkpt>
      <trkpt lat="45.23938" lon="5.08306">
        <ele>488.77185058594</ele>
        <time>2009-12-09T14:21:43Z</time>
      </trkpt>
      <trkpt lat="45.23955" lon="5.08368">
        <ele>494.82827758789</ele>
        <time>2009-12-09T14:21:51Z</time>
      </trkpt>
      <trkpt lat="45.23964" lon="5.08422">
        <ele>498.62774658203</ele>
        <time>2009-12-09T14:21:58Z</time>
      </trkpt>
      <trkpt lat="45.23984" lon="5.08502">
        <ele>500</ele>
        <time>2009-12-09T14:22:09Z</time>
      </trkpt>
      <trkpt lat="45.23985" lon="5.08518">
        <ele>500</ele>
        <time>2009-12-09T14:22:11Z</time>
      </trkpt>
      <trkpt lat="45.23981" lon="5.08574">
        <ele>500</ele>
        <time>2009-12-09T14:22:18Z</time>
      </trkpt>
      <trkpt lat="45.23972" lon="5.08652">
        <ele>500</ele>
        <time>2009-12-09T14:22:28Z</time>
      </trkpt>
      <trkpt lat="45.23967" lon="5.08704">
        <ele>500</ele>
        <time>2009-12-09T14:22:35Z</time>
      </trkpt>
      <trkpt lat="45.23962" lon="5.08748">
        <ele>500</ele>
        <time>2009-12-09T14:22:42Z</time>
      </trkpt>
      <trkpt lat="45.2396" lon="5.08789">
        <ele>500</ele>
        <time>2009-12-09T14:22:49Z</time>
      </trkpt>
      <trkpt lat="45.23963" lon="5.08841">
        <ele>500</ele>
        <time>2009-12-09T14:22:57Z</time>
      </trkpt>
      <trkpt lat="45.23964" lon="5.08873">
        <ele>500</ele>
        <time>2009-12-09T14:23:03Z</time>
      </trkpt>
      <trkpt lat="45.23967" lon="5.0888">
        <ele>500</ele>
        <time>2009-12-09T14:23:07Z</time>
      </trkpt>
      <trkpt lat="45.23968" lon="5.08882">
        <ele>500</ele>
        <time>2009-12-09T14:23:11Z</time>
      </trkpt>
      <trkpt lat="45.23956" lon="5.08891">
        <ele>500</ele>
        <time>2009-12-09T14:23:16Z</time>
      </trkpt>
      <trkpt lat="45.23955" lon="5.08892">
        <ele>500</ele>
        <time>2009-12-09T14:23:17Z</time>
      </trkpt>
      <trkpt lat="45.23947" lon="5.08899">
        <ele>500</ele>
        <time>2009-12-09T14:23:25Z</time>
      </trkpt>
      <trkpt lat="45.23938" lon="5.08907">
        <ele>500</ele>
        <time>2009-12-09T14:23:31Z</time>
      </trkpt>
      <trkpt lat="45.23922" lon="5.08919">
        <ele>500</ele>
        <time>2009-12-09T14:23:37Z</time>
      </trkpt>
      <trkpt lat="45.23917" lon="5.08921">
        <ele>499.99584960938</ele>
        <time>2009-12-09T14:23:39Z</time>
      </trkpt>
      <trkpt lat="45.23902" lon="5.08944">
        <ele>498.95281982422</ele>
        <time>2009-12-09T14:23:44Z</time>
      </trkpt>
      <trkpt lat="45.23888" lon="5.08966">
        <ele>497.99621582031</ele>
        <time>2009-12-09T14:23:49Z</time>
      </trkpt>
      <trkpt lat="45.23869" lon="5.08988">
        <ele>498.97766113281</ele>
        <time>2009-12-09T14:23:55Z</time>
      </trkpt>
      <trkpt lat="45.23858" lon="5.08997">
        <ele>499.76077270508</ele>
        <time>2009-12-09T14:23:58Z</time>
      </trkpt>
      <trkpt lat="45.2383" lon="5.09021">
        <ele>500</ele>
        <time>2009-12-09T14:24:06Z</time>
      </trkpt>
      <trkpt lat="45.23805" lon="5.09042">
        <ele>500.005859375</ele>
        <time>2009-12-09T14:24:12Z</time>
      </trkpt>
      <trkpt lat="45.23785" lon="5.0906">
        <ele>500.77139282227</ele>
        <time>2009-12-09T14:24:17Z</time>
      </trkpt>
      <trkpt lat="45.23782" lon="5.09064">
        <ele>500.89404296875</ele>
        <time>2009-12-09T14:24:18Z</time>
      </trkpt>
      <trkpt lat="45.23758" lon="5.09087">
        <ele>501.70062255859</ele>
        <time>2009-12-09T14:24:24Z</time>
      </trkpt>
      <trkpt lat="45.23734" lon="5.0912">
        <ele>502.19415283203</ele>
        <time>2009-12-09T14:24:30Z</time>
      </trkpt>
      <trkpt lat="45.23702" lon="5.0917">
        <ele>503.10482788086</ele>
        <time>2009-12-09T14:24:38Z</time>
      </trkpt>
      <trkpt lat="45.23677" lon="5.09207">
        <ele>504.17059326172</ele>
        <time>2009-12-09T14:24:44Z</time>
      </trkpt>
      <trkpt lat="45.23672" lon="5.09212">
        <ele>504.12384033203</ele>
        <time>2009-12-09T14:24:46Z</time>
      </trkpt>
      <trkpt lat="45.23676" lon="5.09235">
        <ele>504.64443969727</ele>
        <time>2009-12-09T14:24:51Z</time>
      </trkpt>
      <trkpt lat="45.23677" lon="5.0924">
        <ele>504.77435302734</ele>
        <time>2009-12-09T14:24:52Z</time>
      </trkpt>
      <trkpt lat="45.2368" lon="5.09257">
        <ele>505.23764038086</ele>
        <time>2009-12-09T14:24:55Z</time>
      </trkpt>
      <trkpt lat="45.23684" lon="5.09292">
        <ele>506</ele>
        <time>2009-12-09T14:25:01Z</time>
      </trkpt>
      <trkpt lat="45.23687" lon="5.09314">
        <ele>506.31817626953</ele>
        <time>2009-12-09T14:25:05Z</time>
      </trkpt>
      <trkpt lat="45.23692" lon="5.09355">
        <ele>507</ele>
        <time>2009-12-09T14:25:12Z</time>
      </trkpt>
      <trkpt lat="45.23698" lon="5.09386">
        <ele>507.89996337891</ele>
        <time>2009-12-09T14:25:18Z</time>
      </trkpt>
      <trkpt lat="45.23709" lon="5.0942">
        <ele>508.10504150391</ele>
        <time>2009-12-09T14:25:25Z</time>
      </trkpt>
      <trkpt lat="45.23715" lon="5.0944">
        <ele>508.82257080078</ele>
        <time>2009-12-09T14:25:29Z</time>
      </trkpt>
      <trkpt lat="45.23712" lon="5.0946">
        <ele>509.21731567383</ele>
        <time>2009-12-09T14:25:33Z</time>
      </trkpt>
      <trkpt lat="45.23685" lon="5.0949">
        <ele>510</ele>
        <time>2009-12-09T14:25:41Z</time>
      </trkpt>
      <trkpt lat="45.23674" lon="5.09514">
        <ele>510</ele>
        <time>2009-12-09T14:25:46Z</time>
      </trkpt>
      <trkpt lat="45.23656" lon="5.09564">
        <ele>510</ele>
        <time>2009-12-09T14:25:54Z</time>
      </trkpt>
      <trkpt lat="45.23639" lon="5.09613">
        <ele>510</ele>
        <time>2009-12-09T14:26:00Z</time>
      </trkpt>
      <trkpt lat="45.23636" lon="5.09622">
        <ele>510</ele>
        <time>2009-12-09T14:26:01Z</time>
      </trkpt>
      <trkpt lat="45.23616" lon="5.09654">
        <ele>509.56262207031</ele>
        <time>2009-12-09T14:26:05Z</time>
      </trkpt>
      <trkpt lat="45.23577" lon="5.09694">
        <ele>505.28753662109</ele>
        <time>2009-12-09T14:26:11Z</time>
      </trkpt>
      <trkpt lat="45.23559" lon="5.09711">
        <ele>503.99279785156</ele>
        <time>2009-12-09T14:26:14Z</time>
      </trkpt>
      <trkpt lat="45.23539" lon="5.09723">
        <ele>502.22640991211</ele>
        <time>2009-12-09T14:26:21Z</time>
      </trkpt>
      <trkpt lat="45.23478" lon="5.09739">
        <ele>495.38720703125</ele>
        <time>2009-12-09T14:26:27Z</time>
      </trkpt>
      <trkpt lat="45.2343" lon="5.09753">
        <ele>491.62060546875</ele>
        <time>2009-12-09T14:26:34Z</time>
      </trkpt>
      <trkpt lat="45.23414" lon="5.09757">
        <ele>490.15277099609</ele>
        <time>2009-12-09T14:26:36Z</time>
      </trkpt>
      <trkpt lat="45.2337" lon="5.09769">
        <ele>484.70764160156</ele>
        <time>2009-12-09T14:26:41Z</time>
      </trkpt>
      <trkpt lat="45.2331" lon="5.09762">
        <ele>478.22482299805</ele>
        <time>2009-12-09T14:26:47Z</time>
      </trkpt>
      <trkpt lat="45.23273" lon="5.09757">
        <ele>470.74514770508</ele>
        <time>2009-12-09T14:26:51Z</time>
      </trkpt>
      <trkpt lat="45.23216" lon="5.09764">
        <ele>465.66635131836</ele>
        <time>2009-12-09T14:26:57Z</time>
      </trkpt>
      <trkpt lat="45.23184" lon="5.09763">
        <ele>463.90036010742</ele>
        <time>2009-12-09T14:27:01Z</time>
      </trkpt>
      <trkpt lat="45.23154" lon="5.09757">
        <ele>462.18789672852</ele>
        <time>2009-12-09T14:27:06Z</time>
      </trkpt>
      <trkpt lat="45.23119" lon="5.09751">
        <ele>461.01049804688</ele>
        <time>2009-12-09T14:27:11Z</time>
      </trkpt>
      <trkpt lat="45.2308" lon="5.09744">
        <ele>460</ele>
        <time>2009-12-09T14:27:16Z</time>
      </trkpt>
      <trkpt lat="45.23032" lon="5.09728">
        <ele>458.66842651367</ele>
        <time>2009-12-09T14:27:22Z</time>
      </trkpt>
      <trkpt lat="45.23029" lon="5.09727">
        <ele>458.39099121094</ele>
        <time>2009-12-09T14:27:26Z</time>
      </trkpt>
      <trkpt lat="45.22984" lon="5.09712">
        <ele>447.65737915039</ele>
        <time>2009-12-09T14:27:28Z</time>
      </trkpt>
      <trkpt lat="45.22947" lon="5.097">
        <ele>442.60729980469</ele>
        <time>2009-12-09T14:27:32Z</time>
      </trkpt>
      <trkpt lat="45.22926" lon="5.09693">
        <ele>440.34979248047</ele>
        <time>2009-12-09T14:27:37Z</time>
      </trkpt>
      <trkpt lat="45.22862" lon="5.09668">
        <ele>423.41491699219</ele>
        <time>2009-12-09T14:27:41Z</time>
      </trkpt>
      <trkpt lat="45.22837" lon="5.09656">
        <ele>420.30459594727</ele>
        <time>2009-12-09T14:27:43Z</time>
      </trkpt>
      <trkpt lat="45.22788" lon="5.09646">
        <ele>414.81427001953</ele>
        <time>2009-12-09T14:27:47Z</time>
      </trkpt>
      <trkpt lat="45.2276" lon="5.09619">
        <ele>411.22958374023</ele>
        <time>2009-12-09T14:27:50Z</time>
      </trkpt>
      <trkpt lat="45.22721" lon="5.09567">
        <ele>406.92767333984</ele>
        <time>2009-12-09T14:27:53Z</time>
      </trkpt>
      <trkpt lat="45.22711" lon="5.09573">
        <ele>404.47268676758</ele>
        <time>2009-12-09T14:27:57Z</time>
      </trkpt>
      <trkpt lat="45.22699" lon="5.09521">
        <ele>406.11407470703</ele>
        <time>2009-12-09T14:28:01Z</time>
      </trkpt>
      <trkpt lat="45.22698" lon="5.09511">
        <ele>406.28576660156</ele>
        <time>2009-12-09T14:28:02Z</time>
      </trkpt>
      <trkpt lat="45.22693" lon="5.09501">
        <ele>405.78106689453</ele>
        <time>2009-12-09T14:28:03Z</time>
      </trkpt>
      <trkpt lat="45.22688" lon="5.09493">
        <ele>405.65182495117</ele>
        <time>2009-12-09T14:28:04Z</time>
      </trkpt>
      <trkpt lat="45.22668" lon="5.09465">
        <ele>403.55648803711</ele>
        <time>2009-12-09T14:28:09Z</time>
      </trkpt>
      <trkpt lat="45.22668" lon="5.09465">
        <ele>403.55648803711</ele>
        <time>2009-12-09T14:28:11Z</time>
      </trkpt>
      <trkpt lat="45.2267" lon="5.09457">
        <ele>404.35815429688</ele>
        <time>2009-12-09T14:28:13Z</time>
      </trkpt>
      <trkpt lat="45.22663" lon="5.0946">
        <ele>403.30804443359</ele>
        <time>2009-12-09T14:28:49Z</time>
      </trkpt>
      <trkpt lat="45.2266" lon="5.09457">
        <ele>403.32177734375</ele>
        <time>2009-12-09T14:28:51Z</time>
      </trkpt>
      <trkpt lat="45.2265" lon="5.09446">
        <ele>403.34924316406</ele>
        <time>2009-12-09T14:28:55Z</time>
      </trkpt>
      <trkpt lat="45.22641" lon="5.09436">
        <ele>403.6845703125</ele>
        <time>2009-12-09T14:28:58Z</time>
      </trkpt>
      <trkpt lat="45.22628" lon="5.09423">
        <ele>404.26547241211</ele>
        <time>2009-12-09T14:29:02Z</time>
      </trkpt>
      <trkpt lat="45.22611" lon="5.09404">
        <ele>404.43444824219</ele>
        <time>2009-12-09T14:29:08Z</time>
      </trkpt>
      <trkpt lat="45.22588" lon="5.09379">
        <ele>403.99716186523</ele>
        <time>2009-12-09T14:29:15Z</time>
      </trkpt>
      <trkpt lat="45.22562" lon="5.09352">
        <ele>403.30474853516</ele>
        <time>2009-12-09T14:29:22Z</time>
      </trkpt>
      <trkpt lat="45.22546" lon="5.09327">
        <ele>403.00305175781</ele>
        <time>2009-12-09T14:29:27Z</time>
      </trkpt>
      <trkpt lat="45.22549" lon="5.09305">
        <ele>405.0387878418</ele>
        <time>2009-12-09T14:29:30Z</time>
      </trkpt>
      <trkpt lat="45.22565" lon="5.09262">
        <ele>408.91464233398</ele>
        <time>2009-12-09T14:29:36Z</time>
      </trkpt>
      <trkpt lat="45.22572" lon="5.09243">
        <ele>410.04513549805</ele>
        <time>2009-12-09T14:29:38Z</time>
      </trkpt>
      <trkpt lat="45.22569" lon="5.09226">
        <ele>411.18496704102</ele>
        <time>2009-12-09T14:29:40Z</time>
      </trkpt>
      <trkpt lat="45.22552" lon="5.09213">
        <ele>411.22955322266</ele>
        <time>2009-12-09T14:29:43Z</time>
      </trkpt>
      <trkpt lat="45.22518" lon="5.09203">
        <ele>409.76162719727</ele>
        <time>2009-12-09T14:29:49Z</time>
      </trkpt>
      <trkpt lat="45.22487" lon="5.09188">
        <ele>408.82098388672</ele>
        <time>2009-12-09T14:29:55Z</time>
      </trkpt>
      <trkpt lat="45.22466" lon="5.09176">
        <ele>409.36770629883</ele>
        <time>2009-12-09T14:29:59Z</time>
      </trkpt>
      <trkpt lat="45.22436" lon="5.09152">
        <ele>411.33840942383</ele>
        <time>2009-12-09T14:30:06Z</time>
      </trkpt>
      <trkpt lat="45.22402" lon="5.09121">
        <ele>413.44610595703</ele>
        <time>2009-12-09T14:30:14Z</time>
      </trkpt>
      <trkpt lat="45.22369" lon="5.09084">
        <ele>414.79675292969</ele>
        <time>2009-12-09T14:30:22Z</time>
      </trkpt>
      <trkpt lat="45.22332" lon="5.09041">
        <ele>415.41516113281</ele>
        <time>2009-12-09T14:30:31Z</time>
      </trkpt>
      <trkpt lat="45.22313" lon="5.09018">
        <ele>416.22845458984</ele>
        <time>2009-12-09T14:30:36Z</time>
      </trkpt>
      <trkpt lat="45.22297" lon="5.08992">
        <ele>416.96020507812</ele>
        <time>2009-12-09T14:30:41Z</time>
      </trkpt>
      <trkpt lat="45.22276" lon="5.08956">
        <ele>417.97253417969</ele>
        <time>2009-12-09T14:30:48Z</time>
      </trkpt>
      <trkpt lat="45.22247" lon="5.08909">
        <ele>420.20794677734</ele>
        <time>2009-12-09T14:30:57Z</time>
      </trkpt>
      <trkpt lat="45.22216" lon="5.08871">
        <ele>420.35818481445</ele>
        <time>2009-12-09T14:31:05Z</time>
      </trkpt>
      <trkpt lat="45.22189" lon="5.08843">
        <ele>419.92950439453</ele>
        <time>2009-12-09T14:31:12Z</time>
      </trkpt>
      <trkpt lat="45.22159" lon="5.08817">
        <ele>419.73718261719</ele>
        <time>2009-12-09T14:31:18Z</time>
      </trkpt>
      <trkpt lat="45.22126" lon="5.0879">
        <ele>419.99530029297</ele>
        <time>2009-12-09T14:31:24Z</time>
      </trkpt>
      <trkpt lat="45.22093" lon="5.08762">
        <ele>419.04736328125</ele>
        <time>2009-12-09T14:31:30Z</time>
      </trkpt>
      <trkpt lat="45.22075" lon="5.08747">
        <ele>417.49166870117</ele>
        <time>2009-12-09T14:31:33Z</time>
      </trkpt>
      <trkpt lat="45.22054" lon="5.08709">
        <ele>410.81793212891</ele>
        <time>2009-12-09T14:31:38Z</time>
      </trkpt>
      <trkpt lat="45.22041" lon="5.08684">
        <ele>406.73458862305</ele>
        <time>2009-12-09T14:31:42Z</time>
      </trkpt>
      <trkpt lat="45.22036" lon="5.08684">
        <ele>406.02047729492</ele>
        <time>2009-12-09T14:31:43Z</time>
      </trkpt>
      <trkpt lat="45.2203" lon="5.08684">
        <ele>405.19650268555</ele>
        <time>2009-12-09T14:31:44Z</time>
      </trkpt>
      <trkpt lat="45.22" lon="5.08691">
        <ele>403.72479248047</ele>
        <time>2009-12-09T14:31:48Z</time>
      </trkpt>
      <trkpt lat="45.21955" lon="5.08717">
        <ele>400.89791870117</ele>
        <time>2009-12-09T14:31:54Z</time>
      </trkpt>
      <trkpt lat="45.21931" lon="5.08731">
        <ele>397.7785949707</ele>
        <time>2009-12-09T14:31:57Z</time>
      </trkpt>
      <trkpt lat="45.21922" lon="5.08735">
        <ele>396.41851806641</ele>
        <time>2009-12-09T14:31:58Z</time>
      </trkpt>
      <trkpt lat="45.21882" lon="5.08755">
        <ele>391.78509521484</ele>
        <time>2009-12-09T14:32:02Z</time>
      </trkpt>
      <trkpt lat="45.21849" lon="5.08771">
        <ele>387.07852172852</ele>
        <time>2009-12-09T14:32:05Z</time>
      </trkpt>
      <trkpt lat="45.21815" lon="5.08782">
        <ele>382.22576904297</ele>
        <time>2009-12-09T14:32:09Z</time>
      </trkpt>
      <trkpt lat="45.21798" lon="5.08774">
        <ele>376.30102539062</ele>
        <time>2009-12-09T14:32:12Z</time>
      </trkpt>
      <trkpt lat="45.21799" lon="5.08759">
        <ele>377.13082885742</ele>
        <time>2009-12-09T14:32:14Z</time>
      </trkpt>
      <trkpt lat="45.21806" lon="5.08692">
        <ele>376.89709472656</ele>
        <time>2009-12-09T14:32:21Z</time>
      </trkpt>
      <trkpt lat="45.21813" lon="5.08608">
        <ele>374.26803588867</ele>
        <time>2009-12-09T14:32:28Z</time>
      </trkpt>
      <trkpt lat="45.21814" lon="5.08595">
        <ele>373.98822021484</ele>
        <time>2009-12-09T14:32:29Z</time>
      </trkpt>
      <trkpt lat="45.2182" lon="5.08538">
        <ele>371.61694335938</ele>
        <time>2009-12-09T14:32:33Z</time>
      </trkpt>
      <trkpt lat="45.21827" lon="5.08456">
        <ele>369.32577514648</ele>
        <time>2009-12-09T14:32:39Z</time>
      </trkpt>
      <trkpt lat="45.21836" lon="5.0836">
        <ele>366.14834594727</ele>
        <time>2009-12-09T14:32:47Z</time>
      </trkpt>
      <trkpt lat="45.21838" lon="5.08278">
        <ele>361.46383666992</ele>
        <time>2009-12-09T14:32:54Z</time>
      </trkpt>
      <trkpt lat="45.21833" lon="5.08211">
        <ele>362.01062011719</ele>
        <time>2009-12-09T14:33:00Z</time>
      </trkpt>
      <trkpt lat="45.21812" lon="5.08134">
        <ele>360.79055786133</ele>
        <time>2009-12-09T14:33:07Z</time>
      </trkpt>
      <trkpt lat="45.21785" lon="5.0805">
        <ele>360.27276611328</ele>
        <time>2009-12-09T14:33:15Z</time>
      </trkpt>
      <trkpt lat="45.21762" lon="5.07978">
        <ele>360</ele>
        <time>2009-12-09T14:33:22Z</time>
      </trkpt>
      <trkpt lat="45.21724" lon="5.07863">
        <ele>360</ele>
        <time>2009-12-09T14:33:33Z</time>
      </trkpt>
      <trkpt lat="45.21695" lon="5.07773">
        <ele>360</ele>
        <time>2009-12-09T14:33:42Z</time>
      </trkpt>
      <trkpt lat="45.21672" lon="5.07706">
        <ele>360</ele>
        <time>2009-12-09T14:33:49Z</time>
      </trkpt>
      <trkpt lat="45.21661" lon="5.07674">
        <ele>360</ele>
        <time>2009-12-09T14:33:52Z</time>
      </trkpt>
      <trkpt lat="45.21649" lon="5.07631">
        <ele>360</ele>
        <time>2009-12-09T14:33:56Z</time>
      </trkpt>
      <trkpt lat="45.21647" lon="5.07612">
        <ele>360</ele>
        <time>2009-12-09T14:33:58Z</time>
      </trkpt>
      <trkpt lat="45.21651" lon="5.07594">
        <ele>360</ele>
        <time>2009-12-09T14:34:00Z</time>
      </trkpt>
      <trkpt lat="45.2166" lon="5.07559">
        <ele>360</ele>
        <time>2009-12-09T14:34:05Z</time>
      </trkpt>
      <trkpt lat="45.21666" lon="5.07536">
        <ele>360.70465087891</ele>
        <time>2009-12-09T14:34:10Z</time>
      </trkpt>
      <trkpt lat="45.21666" lon="5.07532">
        <ele>360.84884643555</ele>
        <time>2009-12-09T14:34:11Z</time>
      </trkpt>
      <trkpt lat="45.2166" lon="5.07522">
        <ele>361.66918945312</ele>
        <time>2009-12-09T14:34:15Z</time>
      </trkpt>
      <trkpt lat="45.21656" lon="5.07519">
        <ele>361.90606689453</ele>
        <time>2009-12-09T14:34:16Z</time>
      </trkpt>
      <trkpt lat="45.2162" lon="5.07501">
        <ele>363.89392089844</ele>
        <time>2009-12-09T14:34:23Z</time>
      </trkpt>
      <trkpt lat="45.21568" lon="5.07475">
        <ele>366.18334960938</ele>
        <time>2009-12-09T14:34:32Z</time>
      </trkpt>
      <trkpt lat="45.21517" lon="5.07449">
        <ele>364.52020263672</ele>
        <time>2009-12-09T14:34:40Z</time>
      </trkpt>
      <trkpt lat="45.21449" lon="5.07414">
        <ele>360.82043457031</ele>
        <time>2009-12-09T14:34:50Z</time>
      </trkpt>
      <trkpt lat="45.21399" lon="5.07389">
        <ele>356.05389404297</ele>
        <time>2009-12-09T14:34:57Z</time>
      </trkpt>
      <trkpt lat="45.21333" lon="5.07355">
        <ele>354.26876831055</ele>
        <time>2009-12-09T14:35:06Z</time>
      </trkpt>
      <trkpt lat="45.21291" lon="5.07329">
        <ele>349.93322753906</ele>
        <time>2009-12-09T14:35:11Z</time>
      </trkpt>
      <trkpt lat="45.21235" lon="5.07276">
        <ele>348.04479980469</ele>
        <time>2009-12-09T14:35:18Z</time>
      </trkpt>
      <trkpt lat="45.21227" lon="5.07269">
        <ele>348.36911010742</ele>
        <time>2009-12-09T14:35:19Z</time>
      </trkpt>
      <trkpt lat="45.21184" lon="5.0724">
        <ele>347.28689575195</ele>
        <time>2009-12-09T14:35:24Z</time>
      </trkpt>
      <trkpt lat="45.21113" lon="5.07205">
        <ele>345.36260986328</ele>
        <time>2009-12-09T14:35:32Z</time>
      </trkpt>
      <trkpt lat="45.2105" lon="5.07179">
        <ele>342.13339233398</ele>
        <time>2009-12-09T14:35:39Z</time>
      </trkpt>
      <trkpt lat="45.20976" lon="5.07156">
        <ele>340</ele>
        <time>2009-12-09T14:35:47Z</time>
      </trkpt>
      <trkpt lat="45.20933" lon="5.07136">
        <ele>340</ele>
        <time>2009-12-09T14:35:52Z</time>
      </trkpt>
      <trkpt lat="45.2088" lon="5.07098">
        <ele>340</ele>
        <time>2009-12-09T14:35:59Z</time>
      </trkpt>
      <trkpt lat="45.20822" lon="5.07054">
        <ele>340</ele>
        <time>2009-12-09T14:36:07Z</time>
      </trkpt>
      <trkpt lat="45.20779" lon="5.07021">
        <ele>340</ele>
        <time>2009-12-09T14:36:13Z</time>
      </trkpt>
      <trkpt lat="45.20736" lon="5.06974">
        <ele>340</ele>
        <time>2009-12-09T14:36:20Z</time>
      </trkpt>
      <trkpt lat="45.20711" lon="5.06946">
        <ele>340</ele>
        <time>2009-12-09T14:36:25Z</time>
      </trkpt>
      <trkpt lat="45.20711" lon="5.06946">
        <ele>340</ele>
        <time>2009-12-09T14:36:27Z</time>
      </trkpt>
      <trkpt lat="45.20674" lon="5.06887">
        <ele>340</ele>
        <time>2009-12-09T14:36:33Z</time>
      </trkpt>
      <trkpt lat="45.20648" lon="5.06829">
        <ele>340</ele>
        <time>2009-12-09T14:36:40Z</time>
      </trkpt>
      <trkpt lat="45.20621" lon="5.06785">
        <ele>340</ele>
        <time>2009-12-09T14:36:46Z</time>
      </trkpt>
      <trkpt lat="45.20595" lon="5.06744">
        <ele>340</ele>
        <time>2009-12-09T14:36:54Z</time>
      </trkpt>
      <trkpt lat="45.20573" lon="5.0671">
        <ele>340</ele>
        <time>2009-12-09T14:36:57Z</time>
      </trkpt>
      <trkpt lat="45.20538" lon="5.06655">
        <ele>339.35241699219</ele>
        <time>2009-12-09T14:37:06Z</time>
      </trkpt>
      <trkpt lat="45.20514" lon="5.06619">
        <ele>338.5009765625</ele>
        <time>2009-12-09T14:37:12Z</time>
      </trkpt>
      <trkpt lat="45.20483" lon="5.06578">
        <ele>338.44277954102</ele>
        <time>2009-12-09T14:37:19Z</time>
      </trkpt>
      <trkpt lat="45.20446" lon="5.06528">
        <ele>338.05587768555</ele>
        <time>2009-12-09T14:37:27Z</time>
      </trkpt>
      <trkpt lat="45.20424" lon="5.06496">
        <ele>337.66400146484</ele>
        <time>2009-12-09T14:37:32Z</time>
      </trkpt>
      <trkpt lat="45.2042" lon="5.0649">
        <ele>337.58847045898</ele>
        <time>2009-12-09T14:37:33Z</time>
      </trkpt>
      <trkpt lat="45.2039" lon="5.06466">
        <ele>338.00845336914</ele>
        <time>2009-12-09T14:37:39Z</time>
      </trkpt>
      <trkpt lat="45.20352" lon="5.06433">
        <ele>339.09674072266</ele>
        <time>2009-12-09T14:37:46Z</time>
      </trkpt>
      <trkpt lat="45.2031" lon="5.06395">
        <ele>339.76605224609</ele>
        <time>2009-12-09T14:37:53Z</time>
      </trkpt>
      <trkpt lat="45.20255" lon="5.06354">
        <ele>340.29248046875</ele>
        <time>2009-12-09T14:38:01Z</time>
      </trkpt>
      <trkpt lat="45.20219" lon="5.06327">
        <ele>340.45861816406</ele>
        <time>2009-12-09T14:38:06Z</time>
      </trkpt>
      <trkpt lat="45.20187" lon="5.06307">
        <ele>339.4397277832</ele>
        <time>2009-12-09T14:38:13Z</time>
      </trkpt>
      <trkpt lat="45.20097" lon="5.06251">
        <ele>335.94403076172</ele>
        <time>2009-12-09T14:38:22Z</time>
      </trkpt>
      <trkpt lat="45.20034" lon="5.06213">
        <ele>333.05853271484</ele>
        <time>2009-12-09T14:38:29Z</time>
      </trkpt>
      <trkpt lat="45.2001" lon="5.06198">
        <ele>331.57183837891</ele>
        <time>2009-12-09T14:38:32Z</time>
      </trkpt>
      <trkpt lat="45.19939" lon="5.06151">
        <ele>327.01440429688</ele>
        <time>2009-12-09T14:38:41Z</time>
      </trkpt>
      <trkpt lat="45.19894" lon="5.06112">
        <ele>320.66326904297</ele>
        <time>2009-12-09T14:38:47Z</time>
      </trkpt>
      <trkpt lat="45.19878" lon="5.06099">
        <ele>320.52682495117</ele>
        <time>2009-12-09T14:38:49Z</time>
      </trkpt>
      <trkpt lat="45.19855" lon="5.06077">
        <ele>320.17822265625</ele>
        <time>2009-12-09T14:38:52Z</time>
      </trkpt>
      <trkpt lat="45.19799" lon="5.06021">
        <ele>320</ele>
        <time>2009-12-09T14:38:59Z</time>
      </trkpt>
      <trkpt lat="45.19736" lon="5.05959">
        <ele>320</ele>
        <time>2009-12-09T14:39:07Z</time>
      </trkpt>
      <trkpt lat="45.19685" lon="5.05908">
        <ele>320</ele>
        <time>2009-12-09T14:39:14Z</time>
      </trkpt>
      <trkpt lat="45.19677" lon="5.05899">
        <ele>320</ele>
        <time>2009-12-09T14:39:18Z</time>
      </trkpt>
      <trkpt lat="45.19629" lon="5.05814">
        <ele>319.65435791016</ele>
        <time>2009-12-09T14:39:25Z</time>
      </trkpt>
      <trkpt lat="45.19608" lon="5.05737">
        <ele>318.88531494141</ele>
        <time>2009-12-09T14:39:33Z</time>
      </trkpt>
      <trkpt lat="45.19592" lon="5.05677">
        <ele>320.15338134766</ele>
        <time>2009-12-09T14:39:39Z</time>
      </trkpt>
      <trkpt lat="45.19559" lon="5.05631">
        <ele>319.4140625</ele>
        <time>2009-12-09T14:39:45Z</time>
      </trkpt>
      <trkpt lat="45.19522" lon="5.05562">
        <ele>316.95230102539</ele>
        <time>2009-12-09T14:39:52Z</time>
      </trkpt>
      <trkpt lat="45.19477" lon="5.0551">
        <ele>317.65386962891</ele>
        <time>2009-12-09T14:39:59Z</time>
      </trkpt>
      <trkpt lat="45.19428" lon="5.05457">
        <ele>318.55242919922</ele>
        <time>2009-12-09T14:40:10Z</time>
      </trkpt>
      <trkpt lat="45.19372" lon="5.05397">
        <ele>319.82876586914</ele>
        <time>2009-12-09T14:40:17Z</time>
      </trkpt>
      <trkpt lat="45.19292" lon="5.05289">
        <ele>323.19128417969</ele>
        <time>2009-12-09T14:40:28Z</time>
      </trkpt>
      <trkpt lat="45.19205" lon="5.05173">
        <ele>321.20776367188</ele>
        <time>2009-12-09T14:40:41Z</time>
      </trkpt>
      <trkpt lat="45.19149" lon="5.05104">
        <ele>318.61819458008</ele>
        <time>2009-12-09T14:40:49Z</time>
      </trkpt>
      <trkpt lat="45.19082" lon="5.05031">
        <ele>312.04266357422</ele>
        <time>2009-12-09T14:40:58Z</time>
      </trkpt>
      <trkpt lat="45.19019" lon="5.04962">
        <ele>307.36340332031</ele>
        <time>2009-12-09T14:41:07Z</time>
      </trkpt>
      <trkpt lat="45.18954" lon="5.04885">
        <ele>302.69421386719</ele>
        <time>2009-12-09T14:41:17Z</time>
      </trkpt>
      <trkpt lat="45.18872" lon="5.04788">
        <ele>300</ele>
        <time>2009-12-09T14:41:29Z</time>
      </trkpt>
      <trkpt lat="45.18819" lon="5.04726">
        <ele>300</ele>
        <time>2009-12-09T14:41:37Z</time>
      </trkpt>
      <trkpt lat="45.18794" lon="5.04697">
        <ele>300</ele>
        <time>2009-12-09T14:41:41Z</time>
      </trkpt>
      <trkpt lat="45.18776" lon="5.04666">
        <ele>305.20065307617</ele>
        <time>2009-12-09T14:41:45Z</time>
      </trkpt>
      <trkpt lat="45.18776" lon="5.0465">
        <ele>306.81976318359</ele>
        <time>2009-12-09T14:41:48Z</time>
      </trkpt>
      <trkpt lat="45.18776" lon="5.0465">
        <ele>306.81976318359</ele>
        <time>2009-12-09T14:41:49Z</time>
      </trkpt>
      <trkpt lat="45.1872" lon="5.04627">
        <ele>308.60116577148</ele>
        <time>2009-12-09T14:41:57Z</time>
      </trkpt>
      <trkpt lat="45.18665" lon="5.04605">
        <ele>308.37387084961</ele>
        <time>2009-12-09T14:42:05Z</time>
      </trkpt>
      <trkpt lat="45.18576" lon="5.04565">
        <ele>305.45574951172</ele>
        <time>2009-12-09T14:42:17Z</time>
      </trkpt>
      <trkpt lat="45.18493" lon="5.04525">
        <ele>300.2512512207</ele>
        <time>2009-12-09T14:42:28Z</time>
      </trkpt>
      <trkpt lat="45.18423" lon="5.04491">
        <ele>300</ele>
        <time>2009-12-09T14:42:40Z</time>
      </trkpt>
      <trkpt lat="45.18321" lon="5.04442">
        <ele>300</ele>
        <time>2009-12-09T14:42:50Z</time>
      </trkpt>
      <trkpt lat="45.18232" lon="5.04396">
        <ele>300</ele>
        <time>2009-12-09T14:43:01Z</time>
      </trkpt>
      <trkpt lat="45.18151" lon="5.04353">
        <ele>301.63244628906</ele>
        <time>2009-12-09T14:43:11Z</time>
      </trkpt>
      <trkpt lat="45.1811" lon="5.0434">
        <ele>301.44561767578</ele>
        <time>2009-12-09T14:43:16Z</time>
      </trkpt>
      <trkpt lat="45.18057" lon="5.04338">
        <ele>300</ele>
        <time>2009-12-09T14:43:22Z</time>
      </trkpt>
      <trkpt lat="45.18021" lon="5.04337">
        <ele>300</ele>
        <time>2009-12-09T14:43:26Z</time>
      </trkpt>
      <trkpt lat="45.17921" lon="5.04312">
        <ele>306.57919311523</ele>
        <time>2009-12-09T14:43:37Z</time>
      </trkpt>
      <trkpt lat="45.17804" lon="5.04275">
        <ele>303.51208496094</ele>
        <time>2009-12-09T14:43:50Z</time>
      </trkpt>
      <trkpt lat="45.17707" lon="5.04244">
        <ele>296.33529663086</ele>
        <time>2009-12-09T14:44:01Z</time>
      </trkpt>
      <trkpt lat="45.17664" lon="5.04221">
        <ele>291.66589355469</ele>
        <time>2009-12-09T14:44:06Z</time>
      </trkpt>
      <trkpt lat="45.17614" lon="5.04185">
        <ele>292.32565307617</ele>
        <time>2009-12-09T14:44:12Z</time>
      </trkpt>
      <trkpt lat="45.17573" lon="5.04156">
        <ele>290.39050292969</ele>
        <time>2009-12-09T14:44:17Z</time>
      </trkpt>
      <trkpt lat="45.17473" lon="5.0412">
        <ele>280</ele>
        <time>2009-12-09T14:44:28Z</time>
      </trkpt>
      <trkpt lat="45.17367" lon="5.04081">
        <ele>280</ele>
        <time>2009-12-09T14:44:40Z</time>
      </trkpt>
      <trkpt lat="45.17251" lon="5.04036">
        <ele>290.91589355469</ele>
        <time>2009-12-09T14:44:53Z</time>
      </trkpt>
      <trkpt lat="45.17145" lon="5.03994">
        <ele>293.89553833008</ele>
        <time>2009-12-09T14:45:05Z</time>
      </trkpt>
      <trkpt lat="45.1703" lon="5.03948">
        <ele>290.65643310547</ele>
        <time>2009-12-09T14:45:18Z</time>
      </trkpt>
      <trkpt lat="45.16937" lon="5.03912">
        <ele>290.00317382812</ele>
        <time>2009-12-09T14:45:29Z</time>
      </trkpt>
      <trkpt lat="45.16864" lon="5.03883">
        <ele>289.29656982422</ele>
        <time>2009-12-09T14:45:38Z</time>
      </trkpt>
      <trkpt lat="45.16774" lon="5.03847">
        <ele>290.21725463867</ele>
        <time>2009-12-09T14:45:49Z</time>
      </trkpt>
      <trkpt lat="45.16707" lon="5.03821">
        <ele>286.43499755859</ele>
        <time>2009-12-09T14:45:57Z</time>
      </trkpt>
      <trkpt lat="45.16627" lon="5.03789">
        <ele>279.81884765625</ele>
        <time>2009-12-09T14:46:06Z</time>
      </trkpt>
      <trkpt lat="45.16551" lon="5.03762">
        <ele>278.82977294922</ele>
        <time>2009-12-09T14:46:14Z</time>
      </trkpt>
      <trkpt lat="45.16502" lon="5.03762">
        <ele>277.60522460938</ele>
        <time>2009-12-09T14:46:19Z</time>
      </trkpt>
      <trkpt lat="45.16431" lon="5.03765">
        <ele>275.44586181641</ele>
        <time>2009-12-09T14:46:27Z</time>
      </trkpt>
      <trkpt lat="45.16355" lon="5.03771">
        <ele>273.03155517578</ele>
        <time>2009-12-09T14:46:36Z</time>
      </trkpt>
      <trkpt lat="45.16338" lon="5.03772">
        <ele>272.38436889648</ele>
        <time>2009-12-09T14:46:38Z</time>
      </trkpt>
      <trkpt lat="45.1633" lon="5.03773">
        <ele>272.04449462891</ele>
        <time>2009-12-09T14:46:39Z</time>
      </trkpt>
      <trkpt lat="45.16278" lon="5.03782">
        <ele>269.85925292969</ele>
        <time>2009-12-09T14:46:45Z</time>
      </trkpt>
      <trkpt lat="45.16246" lon="5.03803">
        <ele>267.93835449219</ele>
        <time>2009-12-09T14:46:49Z</time>
      </trkpt>
      <trkpt lat="45.16211" lon="5.03839">
        <ele>267</ele>
        <time>2009-12-09T14:46:54Z</time>
      </trkpt>
      <trkpt lat="45.16188" lon="5.03869">
        <ele>266.75604248047</ele>
        <time>2009-12-09T14:46:59Z</time>
      </trkpt>
      <trkpt lat="45.16166" lon="5.03925">
        <ele>266.29235839844</ele>
        <time>2009-12-09T14:47:05Z</time>
      </trkpt>
      <trkpt lat="45.16115" lon="5.03999">
        <ele>265.14678955078</ele>
        <time>2009-12-09T14:47:10Z</time>
      </trkpt>
      <trkpt lat="45.16077" lon="5.04007">
        <ele>264.03256225586</ele>
        <time>2009-12-09T14:47:14Z</time>
      </trkpt>
      <trkpt lat="45.15997" lon="5.0401">
        <ele>261</ele>
        <time>2009-12-09T14:47:22Z</time>
      </trkpt>
      <trkpt lat="45.15927" lon="5.04009">
        <ele>260.1120300293</ele>
        <time>2009-12-09T14:47:29Z</time>
      </trkpt>
      <trkpt lat="45.15799" lon="5.04005">
        <ele>259.79809570312</ele>
        <time>2009-12-09T14:47:42Z</time>
      </trkpt>
      <trkpt lat="45.15715" lon="5.04003">
        <ele>257.75469970703</ele>
        <time>2009-12-09T14:47:51Z</time>
      </trkpt>
      <trkpt lat="45.15636" lon="5.04003">
        <ele>254.89825439453</ele>
        <time>2009-12-09T14:48:00Z</time>
      </trkpt>
      <trkpt lat="45.15572" lon="5.04005">
        <ele>253.16638183594</ele>
        <time>2009-12-09T14:48:07Z</time>
      </trkpt>
      <trkpt lat="45.15508" lon="5.04006">
        <ele>255.16525268555</ele>
        <time>2009-12-09T14:48:14Z</time>
      </trkpt>
      <trkpt lat="45.15448" lon="5.04004">
        <ele>256.15435791016</ele>
        <time>2009-12-09T14:48:21Z</time>
      </trkpt>
      <trkpt lat="45.15397" lon="5.04002">
        <ele>257.08569335938</ele>
        <time>2009-12-09T14:48:28Z</time>
      </trkpt>
      <trkpt lat="45.15358" lon="5.03989">
        <ele>257.60675048828</ele>
        <time>2009-12-09T14:48:34Z</time>
      </trkpt>
      <trkpt lat="45.15304" lon="5.03958">
        <ele>258.03033447266</ele>
        <time>2009-12-09T14:48:43Z</time>
      </trkpt>
      <trkpt lat="45.15245" lon="5.03912">
        <ele>259.03128051758</ele>
        <time>2009-12-09T14:48:53Z</time>
      </trkpt>
      <trkpt lat="45.15168" lon="5.03857">
        <ele>262.53887939453</ele>
        <time>2009-12-09T14:49:05Z</time>
      </trkpt>
      <trkpt lat="45.15119" lon="5.03823">
        <ele>267.42630004883</ele>
        <time>2009-12-09T14:49:13Z</time>
      </trkpt>
      <trkpt lat="45.15076" lon="5.03793">
        <ele>270.3776550293</ele>
        <time>2009-12-09T14:49:21Z</time>
      </trkpt>
      <trkpt lat="45.15023" lon="5.03754">
        <ele>272.47119140625</ele>
        <time>2009-12-09T14:49:32Z</time>
      </trkpt>
      <trkpt lat="45.1498" lon="5.03731">
        <ele>273.83474731445</ele>
        <time>2009-12-09T14:49:41Z</time>
      </trkpt>
      <trkpt lat="45.14936" lon="5.03713">
        <ele>274.41790771484</ele>
        <time>2009-12-09T14:49:50Z</time>
      </trkpt>
      <trkpt lat="45.1489" lon="5.03699">
        <ele>274.15600585938</ele>
        <time>2009-12-09T14:49:59Z</time>
      </trkpt>
      <trkpt lat="45.14862" lon="5.03689">
        <ele>273.80065917969</ele>
        <time>2009-12-09T14:50:04Z</time>
      </trkpt>
      <trkpt lat="45.14845" lon="5.03681">
        <ele>273.50198364258</ele>
        <time>2009-12-09T14:50:07Z</time>
      </trkpt>
      <trkpt lat="45.14845" lon="5.0368">
        <ele>273.48654174805</ele>
        <time>2009-12-09T14:50:10Z</time>
      </trkpt>
      <trkpt lat="45.14768" lon="5.03692">
        <ele>276.34707641602</ele>
        <time>2009-12-09T14:50:19Z</time>
      </trkpt>
      <trkpt lat="45.14717" lon="5.03704">
        <ele>280.69805908203</ele>
        <time>2009-12-09T14:50:26Z</time>
      </trkpt>
      <trkpt lat="45.14672" lon="5.03727">
        <ele>283.03958129883</ele>
        <time>2009-12-09T14:50:32Z</time>
      </trkpt>
      <trkpt lat="45.14615" lon="5.03767">
        <ele>283.59704589844</ele>
        <time>2009-12-09T14:50:40Z</time>
      </trkpt>
      <trkpt lat="45.14569" lon="5.03799">
        <ele>283.37008666992</ele>
        <time>2009-12-09T14:50:47Z</time>
      </trkpt>
      <trkpt lat="45.14525" lon="5.03827">
        <ele>282.69161987305</ele>
        <time>2009-12-09T14:50:54Z</time>
      </trkpt>
      <trkpt lat="45.14519" lon="5.0383">
        <ele>282.615234375</ele>
        <time>2009-12-09T14:50:55Z</time>
      </trkpt>
      <trkpt lat="45.14505" lon="5.03839">
        <ele>282.39849853516</ele>
        <time>2009-12-09T14:51:00Z</time>
      </trkpt>
      <trkpt lat="45.14473" lon="5.03861">
        <ele>282.0397644043</ele>
        <time>2009-12-09T14:51:03Z</time>
      </trkpt>
      <trkpt lat="45.14451" lon="5.0388">
        <ele>282.69458007812</ele>
        <time>2009-12-09T14:51:07Z</time>
      </trkpt>
      <trkpt lat="45.1438" lon="5.03937">
        <ele>281.66204833984</ele>
        <time>2009-12-09T14:51:19Z</time>
      </trkpt>
      <trkpt lat="45.14318" lon="5.03981">
        <ele>280</ele>
        <time>2009-12-09T14:51:28Z</time>
      </trkpt>
      <trkpt lat="45.14261" lon="5.04021">
        <ele>280</ele>
        <time>2009-12-09T14:51:36Z</time>
      </trkpt>
      <trkpt lat="45.14197" lon="5.04067">
        <ele>280</ele>
        <time>2009-12-09T14:51:44Z</time>
      </trkpt>
      <trkpt lat="45.14135" lon="5.04111">
        <ele>280</ele>
        <time>2009-12-09T14:51:51Z</time>
      </trkpt>
      <trkpt lat="45.14031" lon="5.04184">
        <ele>280</ele>
        <time>2009-12-09T14:52:02Z</time>
      </trkpt>
      <trkpt lat="45.13923" lon="5.04261">
        <ele>270.85098266602</ele>
        <time>2009-12-09T14:52:13Z</time>
      </trkpt>
      <trkpt lat="45.13913" lon="5.04268">
        <ele>270.52593994141</ele>
        <time>2009-12-09T14:52:14Z</time>
      </trkpt>
      <trkpt lat="45.13791" lon="5.04355">
        <ele>270.40390014648</ele>
        <time>2009-12-09T14:52:26Z</time>
      </trkpt>
      <trkpt lat="45.13702" lon="5.04418">
        <ele>277.04299926758</ele>
        <time>2009-12-09T14:52:35Z</time>
      </trkpt>
      <trkpt lat="45.13651" lon="5.04454">
        <ele>277.77764892578</ele>
        <time>2009-12-09T14:52:41Z</time>
      </trkpt>
      <trkpt lat="45.13609" lon="5.04484">
        <ele>276.84313964844</ele>
        <time>2009-12-09T14:52:47Z</time>
      </trkpt>
      <trkpt lat="45.1357" lon="5.04512">
        <ele>275.42770385742</ele>
        <time>2009-12-09T14:52:54Z</time>
      </trkpt>
      <trkpt lat="45.1354" lon="5.04532">
        <ele>276</ele>
        <time>2009-12-09T14:53:00Z</time>
      </trkpt>
      <trkpt lat="45.13486" lon="5.04559">
        <ele>276.45370483398</ele>
        <time>2009-12-09T14:53:11Z</time>
      </trkpt>
      <trkpt lat="45.13461" lon="5.04564">
        <ele>277.22961425781</ele>
        <time>2009-12-09T14:53:16Z</time>
      </trkpt>
      <trkpt lat="45.13419" lon="5.04573">
        <ele>278.46557617188</ele>
        <time>2009-12-09T14:53:24Z</time>
      </trkpt>
      <trkpt lat="45.13383" lon="5.0458">
        <ele>279.52301025391</ele>
        <time>2009-12-09T14:53:30Z</time>
      </trkpt>
      <trkpt lat="45.13338" lon="5.04587">
        <ele>280.11764526367</ele>
        <time>2009-12-09T14:53:37Z</time>
      </trkpt>
      <trkpt lat="45.13324" lon="5.04587">
        <ele>280.13995361328</ele>
        <time>2009-12-09T14:53:39Z</time>
      </trkpt>
      <trkpt lat="45.13267" lon="5.0459">
        <ele>280.61920166016</ele>
        <time>2009-12-09T14:53:47Z</time>
      </trkpt>
      <trkpt lat="45.13186" lon="5.04594">
        <ele>285.73049926758</ele>
        <time>2009-12-09T14:53:58Z</time>
      </trkpt>
      <trkpt lat="45.1312" lon="5.04603">
        <ele>290.36804199219</ele>
        <time>2009-12-09T14:54:07Z</time>
      </trkpt>
      <trkpt lat="45.13042" lon="5.04617">
        <ele>295.19592285156</ele>
        <time>2009-12-09T14:54:18Z</time>
      </trkpt>
      <trkpt lat="45.12967" lon="5.04629">
        <ele>298.64370727539</ele>
        <time>2009-12-09T14:54:29Z</time>
      </trkpt>
      <trkpt lat="45.12909" lon="5.04639">
        <ele>298.99389648438</ele>
        <time>2009-12-09T14:54:38Z</time>
      </trkpt>
      <trkpt lat="45.12852" lon="5.04648">
        <ele>299</ele>
        <time>2009-12-09T14:54:47Z</time>
      </trkpt>
      <trkpt lat="45.12766" lon="5.04613">
        <ele>298.05319213867</ele>
        <time>2009-12-09T14:54:59Z</time>
      </trkpt>
      <trkpt lat="45.12696" lon="5.04615">
        <ele>299.04498291016</ele>
        <time>2009-12-09T14:55:08Z</time>
      </trkpt>
      <trkpt lat="45.1261" lon="5.04624">
        <ele>294.41177368164</ele>
        <time>2009-12-09T14:55:18Z</time>
      </trkpt>
      <trkpt lat="45.12521" lon="5.04639">
        <ele>283.50299072266</ele>
        <time>2009-12-09T14:55:28Z</time>
      </trkpt>
      <trkpt lat="45.12418" lon="5.04659">
        <ele>280</ele>
        <time>2009-12-09T14:55:39Z</time>
      </trkpt>
      <trkpt lat="45.12329" lon="5.04676">
        <ele>280</ele>
        <time>2009-12-09T14:55:50Z</time>
      </trkpt>
      <trkpt lat="45.12237" lon="5.04695">
        <ele>280.01950073242</ele>
        <time>2009-12-09T14:55:59Z</time>
      </trkpt>
      <trkpt lat="45.12152" lon="5.04713">
        <ele>282</ele>
        <time>2009-12-09T14:56:09Z</time>
      </trkpt>
      <trkpt lat="45.12085" lon="5.04727">
        <ele>282.23446655273</ele>
        <time>2009-12-09T14:56:18Z</time>
      </trkpt>
      <trkpt lat="45.12008" lon="5.04752">
        <ele>281.27081298828</ele>
        <time>2009-12-09T14:56:28Z</time>
      </trkpt>
      <trkpt lat="45.11919" lon="5.04781">
        <ele>281</ele>
        <time>2009-12-09T14:56:40Z</time>
      </trkpt>
      <trkpt lat="45.11882" lon="5.04792">
        <ele>281</ele>
        <time>2009-12-09T14:56:45Z</time>
      </trkpt>
      <trkpt lat="45.11826" lon="5.04792">
        <ele>280.73394775391</ele>
        <time>2009-12-09T14:56:52Z</time>
      </trkpt>
      <trkpt lat="45.11809" lon="5.04788">
        <ele>280.11596679688</ele>
        <time>2009-12-09T14:56:54Z</time>
      </trkpt>
      <trkpt lat="45.11764" lon="5.04761">
        <ele>279.11734008789</ele>
        <time>2009-12-09T14:56:59Z</time>
      </trkpt>
      <trkpt lat="45.11697" lon="5.04703">
        <ele>277.62979125977</ele>
        <time>2009-12-09T14:57:06Z</time>
      </trkpt>
      <trkpt lat="45.11613" lon="5.04637">
        <ele>271.28729248047</ele>
        <time>2009-12-09T14:57:14Z</time>
      </trkpt>
      <trkpt lat="45.11544" lon="5.04608">
        <ele>267.19760131836</ele>
        <time>2009-12-09T14:57:20Z</time>
      </trkpt>
      <trkpt lat="45.11496" lon="5.04595">
        <ele>264.6510925293</ele>
        <time>2009-12-09T14:57:24Z</time>
      </trkpt>
      <trkpt lat="45.11432" lon="5.0459">
        <ele>262.3083190918</ele>
        <time>2009-12-09T14:57:29Z</time>
      </trkpt>
      <trkpt lat="45.11377" lon="5.04599">
        <ele>260.44976806641</ele>
        <time>2009-12-09T14:57:33Z</time>
      </trkpt>
      <trkpt lat="45.11283" lon="5.04631">
        <ele>259.29959106445</ele>
        <time>2009-12-09T14:57:40Z</time>
      </trkpt>
      <trkpt lat="45.1119" lon="5.0466">
        <ele>258.48095703125</ele>
        <time>2009-12-09T14:57:47Z</time>
      </trkpt>
      <trkpt lat="45.11125" lon="5.04659">
        <ele>259.29287719727</ele>
        <time>2009-12-09T14:57:52Z</time>
      </trkpt>
      <trkpt lat="45.11074" lon="5.04655">
        <ele>257.30902099609</ele>
        <time>2009-12-09T14:57:56Z</time>
      </trkpt>
      <trkpt lat="45.10985" lon="5.04667">
        <ele>250.8766784668</ele>
        <time>2009-12-09T14:58:03Z</time>
      </trkpt>
      <trkpt lat="45.10959" lon="5.04662">
        <ele>249.99404907227</ele>
        <time>2009-12-09T14:58:05Z</time>
      </trkpt>
      <trkpt lat="45.10902" lon="5.04627">
        <ele>251.7785949707</ele>
        <time>2009-12-09T14:58:10Z</time>
      </trkpt>
      <trkpt lat="45.10822" lon="5.04571">
        <ele>247.44320678711</ele>
        <time>2009-12-09T14:58:17Z</time>
      </trkpt>
      <trkpt lat="45.10756" lon="5.04516">
        <ele>242.19052124023</ele>
        <time>2009-12-09T14:58:23Z</time>
      </trkpt>
      <trkpt lat="45.10735" lon="5.04497">
        <ele>240</ele>
        <time>2009-12-09T14:58:25Z</time>
      </trkpt>
      <trkpt lat="45.10707" lon="5.04474">
        <ele>240.11402893066</ele>
        <time>2009-12-09T14:58:29Z</time>
      </trkpt>
      <trkpt lat="45.10634" lon="5.04442">
        <ele>237.97225952148</ele>
        <time>2009-12-09T14:58:34Z</time>
      </trkpt>
      <trkpt lat="45.10541" lon="5.04411">
        <ele>236.68957519531</ele>
        <time>2009-12-09T14:58:42Z</time>
      </trkpt>
      <trkpt lat="45.10437" lon="5.04371">
        <ele>221.2725982666</ele>
        <time>2009-12-09T14:58:51Z</time>
      </trkpt>
      <trkpt lat="45.10381" lon="5.04348">
        <ele>220.70707702637</ele>
        <time>2009-12-09T14:58:56Z</time>
      </trkpt>
      <trkpt lat="45.10326" lon="5.04323">
        <ele>220</ele>
        <time>2009-12-09T14:59:01Z</time>
      </trkpt>
      <trkpt lat="45.10213" lon="5.04281">
        <ele>220</ele>
        <time>2009-12-09T14:59:11Z</time>
      </trkpt>
      <trkpt lat="45.10168" lon="5.04277">
        <ele>220</ele>
        <time>2009-12-09T14:59:15Z</time>
      </trkpt>
      <trkpt lat="45.10112" lon="5.04292">
        <ele>220</ele>
        <time>2009-12-09T14:59:20Z</time>
      </trkpt>
      <trkpt lat="45.10062" lon="5.04322">
        <ele>220</ele>
        <time>2009-12-09T14:59:25Z</time>
      </trkpt>
      <trkpt lat="45.10007" lon="5.04364">
        <ele>220</ele>
        <time>2009-12-09T14:59:31Z</time>
      </trkpt>
      <trkpt lat="45.09946" lon="5.04415">
        <ele>220</ele>
        <time>2009-12-09T14:59:38Z</time>
      </trkpt>
      <trkpt lat="45.09899" lon="5.0444">
        <ele>220</ele>
        <time>2009-12-09T14:59:43Z</time>
      </trkpt>
      <trkpt lat="45.09821" lon="5.04467">
        <ele>220</ele>
        <time>2009-12-09T14:59:51Z</time>
      </trkpt>
      <trkpt lat="45.09767" lon="5.04484">
        <ele>220</ele>
        <time>2009-12-09T14:59:57Z</time>
      </trkpt>
      <trkpt lat="45.09706" lon="5.04503">
        <ele>220</ele>
        <time>2009-12-09T15:00:04Z</time>
      </trkpt>
      <trkpt lat="45.09664" lon="5.04515">
        <ele>220</ele>
        <time>2009-12-09T15:00:09Z</time>
      </trkpt>
      <trkpt lat="45.09635" lon="5.04524">
        <ele>220</ele>
        <time>2009-12-09T15:00:13Z</time>
      </trkpt>
      <trkpt lat="45.0961" lon="5.04532">
        <ele>220</ele>
        <time>2009-12-09T15:00:17Z</time>
      </trkpt>
      <trkpt lat="45.096" lon="5.04538">
        <ele>220</ele>
        <time>2009-12-09T15:00:19Z</time>
      </trkpt>
      <trkpt lat="45.09584" lon="5.04572">
        <ele>220</ele>
        <time>2009-12-09T15:00:23Z</time>
      </trkpt>
      <trkpt lat="45.09558" lon="5.04602">
        <ele>220</ele>
        <time>2009-12-09T15:00:27Z</time>
      </trkpt>
      <trkpt lat="45.09512" lon="5.04628">
        <ele>220.23298645019</ele>
        <time>2009-12-09T15:00:33Z</time>
      </trkpt>
      <trkpt lat="45.09454" lon="5.04657">
        <ele>220.47184753418</ele>
        <time>2009-12-09T15:00:40Z</time>
      </trkpt>
      <trkpt lat="45.09384" lon="5.04692">
        <ele>220.18414306641</ele>
        <time>2009-12-09T15:00:48Z</time>
      </trkpt>
      <trkpt lat="45.09334" lon="5.04729">
        <ele>217.80740356445</ele>
        <time>2009-12-09T15:00:54Z</time>
      </trkpt>
      <trkpt lat="45.09326" lon="5.04735">
        <ele>216.92337036133</ele>
        <time>2009-12-09T15:00:55Z</time>
      </trkpt>
      <trkpt lat="45.09299" lon="5.04767">
        <ele>212.00830078125</ele>
        <time>2009-12-09T15:00:59Z</time>
      </trkpt>
      <trkpt lat="45.09271" lon="5.04785">
        <ele>207.25743103027</ele>
        <time>2009-12-09T15:01:03Z</time>
      </trkpt>
      <trkpt lat="45.09214" lon="5.04802">
        <ele>205.24308776856</ele>
        <time>2009-12-09T15:01:10Z</time>
      </trkpt>
      <trkpt lat="45.09193" lon="5.048">
        <ele>205.42918395996</ele>
        <time>2009-12-09T15:01:14Z</time>
      </trkpt>
      <trkpt lat="45.09172" lon="5.04773">
        <ele>207.31675720215</ele>
        <time>2009-12-09T15:01:16Z</time>
      </trkpt>
      <trkpt lat="45.09153" lon="5.04732">
        <ele>209.66555786133</ele>
        <time>2009-12-09T15:01:21Z</time>
      </trkpt>
      <trkpt lat="45.09139" lon="5.04729">
        <ele>209.75244140625</ele>
        <time>2009-12-09T15:01:23Z</time>
      </trkpt>
      <trkpt lat="45.09131" lon="5.04728">
        <ele>209.52069091797</ele>
        <time>2009-12-09T15:01:24Z</time>
      </trkpt>
      <trkpt lat="45.0908" lon="5.04683">
        <ele>210.65632629394</ele>
        <time>2009-12-09T15:01:32Z</time>
      </trkpt>
      <trkpt lat="45.09073" lon="5.04677">
        <ele>210.64804077148</ele>
        <time>2009-12-09T15:01:33Z</time>
      </trkpt>
      <trkpt lat="45.09052" lon="5.04663">
        <ele>209.84132385254</ele>
        <time>2009-12-09T15:01:36Z</time>
      </trkpt>
      <trkpt lat="45.09043" lon="5.04663">
        <ele>209.20960998535</ele>
        <time>2009-12-09T15:01:37Z</time>
      </trkpt>
      <trkpt lat="45.0901" lon="5.04651">
        <ele>207.25610351562</ele>
        <time>2009-12-09T15:01:41Z</time>
      </trkpt>
      <trkpt lat="45.08983" lon="5.04623">
        <ele>205.14576721191</ele>
        <time>2009-12-09T15:01:45Z</time>
      </trkpt>
      <trkpt lat="45.08968" lon="5.04588">
        <ele>204.22393798828</ele>
        <time>2009-12-09T15:01:49Z</time>
      </trkpt>
      <trkpt lat="45.08966" lon="5.04578">
        <ele>204.34925842285</ele>
        <time>2009-12-09T15:01:50Z</time>
      </trkpt>
      <trkpt lat="45.08965" lon="5.04569">
        <ele>204.47972106934</ele>
        <time>2009-12-09T15:01:54Z</time>
      </trkpt>
      <trkpt lat="45.08952" lon="5.04504">
        <ele>204.93290710449</ele>
        <time>2009-12-09T15:01:58Z</time>
      </trkpt>
      <trkpt lat="45.08946" lon="5.04499">
        <ele>204.25312805176</ele>
        <time>2009-12-09T15:01:59Z</time>
      </trkpt>
      <trkpt lat="45.08918" lon="5.04474">
        <ele>202.1404876709</ele>
        <time>2009-12-09T15:02:05Z</time>
      </trkpt>
      <trkpt lat="45.08857" lon="5.04414">
        <ele>200</ele>
        <time>2009-12-09T15:02:11Z</time>
      </trkpt>
      <trkpt lat="45.08817" lon="5.04378">
        <ele>200</ele>
        <time>2009-12-09T15:02:16Z</time>
      </trkpt>
      <trkpt lat="45.08801" lon="5.04366">
        <ele>199.845703125</ele>
        <time>2009-12-09T15:02:18Z</time>
      </trkpt>
      <trkpt lat="45.08773" lon="5.04342">
        <ele>198.30798339844</ele>
        <time>2009-12-09T15:02:22Z</time>
      </trkpt>
      <trkpt lat="45.08733" lon="5.04323">
        <ele>197.38751220703</ele>
        <time>2009-12-09T15:02:27Z</time>
      </trkpt>
      <trkpt lat="45.08725" lon="5.04319">
        <ele>197.08538818359</ele>
        <time>2009-12-09T15:02:28Z</time>
      </trkpt>
      <trkpt lat="45.0867" lon="5.04298">
        <ele>196.76541137695</ele>
        <time>2009-12-09T15:02:34Z</time>
      </trkpt>
      <trkpt lat="45.08615" lon="5.04274">
        <ele>195.13813781738</ele>
        <time>2009-12-09T15:02:40Z</time>
      </trkpt>
      <trkpt lat="45.08563" lon="5.04251">
        <ele>194.01219177246</ele>
        <time>2009-12-09T15:02:46Z</time>
      </trkpt>
      <trkpt lat="45.08489" lon="5.04218">
        <ele>192.86538696289</ele>
        <time>2009-12-09T15:02:55Z</time>
      </trkpt>
      <trkpt lat="45.0844" lon="5.04188">
        <ele>191.85437011719</ele>
        <time>2009-12-09T15:03:02Z</time>
      </trkpt>
      <trkpt lat="45.0839" lon="5.04157">
        <ele>190.65954589844</ele>
        <time>2009-12-09T15:03:09Z</time>
      </trkpt>
      <trkpt lat="45.08329" lon="5.04119">
        <ele>189</ele>
        <time>2009-12-09T15:03:17Z</time>
      </trkpt>
      <trkpt lat="45.08299" lon="5.04101">
        <ele>188.25671386719</ele>
        <time>2009-12-09T15:03:21Z</time>
      </trkpt>
      <trkpt lat="45.08264" lon="5.0407">
        <ele>186.53015136719</ele>
        <time>2009-12-09T15:03:26Z</time>
      </trkpt>
      <trkpt lat="45.08211" lon="5.04005">
        <ele>185</ele>
        <time>2009-12-09T15:03:34Z</time>
      </trkpt>
      <trkpt lat="45.08174" lon="5.0397">
        <ele>183.94158935547</ele>
        <time>2009-12-09T15:03:39Z</time>
      </trkpt>
      <trkpt lat="45.08138" lon="5.03939">
        <ele>183</ele>
        <time>2009-12-09T15:03:44Z</time>
      </trkpt>
      <trkpt lat="45.08101" lon="5.03877">
        <ele>182.36987304688</ele>
        <time>2009-12-09T15:03:51Z</time>
      </trkpt>
      <trkpt lat="45.08077" lon="5.03835">
        <ele>182</ele>
        <time>2009-12-09T15:03:56Z</time>
      </trkpt>
      <trkpt lat="45.08063" lon="5.03811">
        <ele>181.2106628418</ele>
        <time>2009-12-09T15:03:59Z</time>
      </trkpt>
      <trkpt lat="45.08047" lon="5.03784">
        <ele>181</ele>
        <time>2009-12-09T15:04:03Z</time>
      </trkpt>
      <trkpt lat="45.08031" lon="5.03795">
        <ele>181</ele>
        <time>2009-12-09T15:04:05Z</time>
      </trkpt>
      <trkpt lat="45.0799" lon="5.03827">
        <ele>181</ele>
        <time>2009-12-09T15:04:11Z</time>
      </trkpt>
      <trkpt lat="45.07937" lon="5.03866">
        <ele>181.18991088867</ele>
        <time>2009-12-09T15:04:18Z</time>
      </trkpt>
      <trkpt lat="45.0788" lon="5.0391">
        <ele>181.76748657227</ele>
        <time>2009-12-09T15:04:26Z</time>
      </trkpt>
      <trkpt lat="45.07823" lon="5.03953">
        <ele>182</ele>
        <time>2009-12-09T15:04:34Z</time>
      </trkpt>
      <trkpt lat="45.07764" lon="5.03982">
        <ele>181</ele>
        <time>2009-12-09T15:04:42Z</time>
      </trkpt>
      <trkpt lat="45.07701" lon="5.04014">
        <ele>180.22625732422</ele>
        <time>2009-12-09T15:04:51Z</time>
      </trkpt>
      <trkpt lat="45.07648" lon="5.0403">
        <ele>180</ele>
        <time>2009-12-09T15:04:58Z</time>
      </trkpt>
      <trkpt lat="45.07598" lon="5.04043">
        <ele>180</ele>
        <time>2009-12-09T15:05:04Z</time>
      </trkpt>
      <trkpt lat="45.07492" lon="5.04062">
        <ele>180</ele>
        <time>2009-12-09T15:05:16Z</time>
      </trkpt>
      <trkpt lat="45.07421" lon="5.04062">
        <ele>180</ele>
        <time>2009-12-09T15:05:24Z</time>
      </trkpt>
      <trkpt lat="45.07379" lon="5.04053">
        <ele>179.6494140625</ele>
        <time>2009-12-09T15:05:29Z</time>
      </trkpt>
      <trkpt lat="45.07303" lon="5.04033">
        <ele>179</ele>
        <time>2009-12-09T15:05:38Z</time>
      </trkpt>
      <trkpt lat="45.07212" lon="5.03999">
        <ele>178</ele>
        <time>2009-12-09T15:05:49Z</time>
      </trkpt>
      <trkpt lat="45.07105" lon="5.03959">
        <ele>177.49015808106</ele>
        <time>2009-12-09T15:06:02Z</time>
      </trkpt>
      <trkpt lat="45.07014" lon="5.03926">
        <ele>177</ele>
        <time>2009-12-09T15:06:13Z</time>
      </trkpt>
      <trkpt lat="45.06939" lon="5.039">
        <ele>176.81536865234</ele>
        <time>2009-12-09T15:06:22Z</time>
      </trkpt>
      <trkpt lat="45.06889" lon="5.03895">
        <ele>176</ele>
        <time>2009-12-09T15:06:28Z</time>
      </trkpt>
      <trkpt lat="45.06875" lon="5.03898">
        <ele>176</ele>
        <time>2009-12-09T15:06:30Z</time>
      </trkpt>
      <trkpt lat="45.06853" lon="5.03908">
        <ele>175.72546386719</ele>
        <time>2009-12-09T15:06:34Z</time>
      </trkpt>
      <trkpt lat="45.06839" lon="5.03882">
        <ele>175.18988037109</ele>
        <time>2009-12-09T15:06:36Z</time>
      </trkpt>
      <trkpt lat="45.0681" lon="5.03821">
        <ele>175</ele>
        <time>2009-12-09T15:06:42Z</time>
      </trkpt>
      <trkpt lat="45.06802" lon="5.03798">
        <ele>175</ele>
        <time>2009-12-09T15:06:44Z</time>
      </trkpt>
      <trkpt lat="45.06776" lon="5.03717">
        <ele>175</ele>
        <time>2009-12-09T15:06:51Z</time>
      </trkpt>
      <trkpt lat="45.06747" lon="5.0363">
        <ele>175.88024902344</ele>
        <time>2009-12-09T15:06:59Z</time>
      </trkpt>
      <trkpt lat="45.06715" lon="5.03548">
        <ele>175</ele>
        <time>2009-12-09T15:07:07Z</time>
      </trkpt>
      <trkpt lat="45.06677" lon="5.03448">
        <ele>176</ele>
        <time>2009-12-09T15:07:17Z</time>
      </trkpt>
      <trkpt lat="45.0667" lon="5.03429">
        <ele>176</ele>
        <time>2009-12-09T15:07:19Z</time>
      </trkpt>
      <trkpt lat="45.06652" lon="5.03357">
        <ele>176</ele>
        <time>2009-12-09T15:07:26Z</time>
      </trkpt>
      <trkpt lat="45.06622" lon="5.03245">
        <ele>176.07061767578</ele>
        <time>2009-12-09T15:07:36Z</time>
      </trkpt>
      <trkpt lat="45.06598" lon="5.03159">
        <ele>176.15594482422</ele>
        <time>2009-12-09T15:07:44Z</time>
      </trkpt>
      <trkpt lat="45.0659" lon="5.03112">
        <ele>176.22229003906</ele>
        <time>2009-12-09T15:07:48Z</time>
      </trkpt>
      <trkpt lat="45.06581" lon="5.03043">
        <ele>177</ele>
        <time>2009-12-09T15:07:54Z</time>
      </trkpt>
      <trkpt lat="45.0658" lon="5.03021">
        <ele>177</ele>
        <time>2009-12-09T15:07:56Z</time>
      </trkpt>
      <trkpt lat="45.06576" lon="5.02988">
        <ele>177</ele>
        <time>2009-12-09T15:07:59Z</time>
      </trkpt>
      <trkpt lat="45.06571" lon="5.02936">
        <ele>177</ele>
        <time>2009-12-09T15:08:04Z</time>
      </trkpt>
      <trkpt lat="45.0657" lon="5.02928">
        <ele>177</ele>
        <time>2009-12-09T15:08:05Z</time>
      </trkpt>
      <trkpt lat="45.06566" lon="5.02893">
        <ele>177.53343200684</ele>
        <time>2009-12-09T15:08:10Z</time>
      </trkpt>
      <trkpt lat="45.06566" lon="5.02881">
        <ele>177.72064208984</ele>
        <time>2009-12-09T15:08:12Z</time>
      </trkpt>
      <trkpt lat="45.0652" lon="5.02851">
        <ele>177</ele>
        <time>2009-12-09T15:08:19Z</time>
      </trkpt>
      <trkpt lat="45.06482" lon="5.02819">
        <ele>176.33587646484</ele>
        <time>2009-12-09T15:08:25Z</time>
      </trkpt>
      <trkpt lat="45.06428" lon="5.02774">
        <ele>176</ele>
        <time>2009-12-09T15:08:33Z</time>
      </trkpt>
      <trkpt lat="45.06363" lon="5.02719">
        <ele>173.06494140625</ele>
        <time>2009-12-09T15:08:42Z</time>
      </trkpt>
      <trkpt lat="45.06348" lon="5.02707">
        <ele>173</ele>
        <time>2009-12-09T15:08:44Z</time>
      </trkpt>
      <trkpt lat="45.06308" lon="5.02691">
        <ele>173.01260375977</ele>
        <time>2009-12-09T15:08:49Z</time>
      </trkpt>
      <trkpt lat="45.06287" lon="5.02682">
        <ele>172.318359375</ele>
        <time>2009-12-09T15:08:52Z</time>
      </trkpt>
      <trkpt lat="45.06263" lon="5.02687">
        <ele>171.48065185547</ele>
        <time>2009-12-09T15:08:56Z</time>
      </trkpt>
      <trkpt lat="45.06258" lon="5.02697">
        <ele>171.25135803223</ele>
        <time>2009-12-09T15:08:58Z</time>
      </trkpt>
      <trkpt lat="45.06214" lon="5.02676">
        <ele>170</ele>
        <time>2009-12-09T15:09:06Z</time>
      </trkpt>
      <trkpt lat="45.06125" lon="5.02642">
        <ele>170</ele>
        <time>2009-12-09T15:09:14Z</time>
      </trkpt>
      <trkpt lat="45.06078" lon="5.02624">
        <ele>170</ele>
        <time>2009-12-09T15:09:20Z</time>
      </trkpt>
      <trkpt lat="45.0607" lon="5.02621">
        <ele>170</ele>
        <time>2009-12-09T15:09:21Z</time>
      </trkpt>
      <trkpt lat="45.0605" lon="5.02613">
        <ele>170</ele>
        <time>2009-12-09T15:09:24Z</time>
      </trkpt>
      <trkpt lat="45.06047" lon="5.02612">
        <ele>170</ele>
        <time>2009-12-09T15:09:26Z</time>
      </trkpt>
      <trkpt lat="45.06047" lon="5.02612">
        <ele>170</ele>
        <time>2009-12-09T15:09:32Z</time>
      </trkpt>
      <trkpt lat="45.06063" lon="5.02767">
        <ele>170</ele>
        <time>2009-12-09T15:09:39Z</time>
      </trkpt>
      <trkpt lat="45.06079" lon="5.02806">
        <ele>170</ele>
        <time>2009-12-09T15:09:44Z</time>
      </trkpt>
      <trkpt lat="45.06152" lon="5.02886">
        <ele>170</ele>
        <time>2009-12-09T15:09:49Z</time>
      </trkpt>
      <trkpt lat="45.06147" lon="5.02898">
        <ele>170</ele>
        <time>2009-12-09T15:09:51Z</time>
      </trkpt>
      <trkpt lat="45.06145" lon="5.02905">
        <ele>170</ele>
        <time>2009-12-09T15:09:52Z</time>
      </trkpt>
      <trkpt lat="45.06136" lon="5.0293">
        <ele>170</ele>
        <time>2009-12-09T15:09:56Z</time>
      </trkpt>
      <trkpt lat="45.06134" lon="5.02937">
        <ele>170</ele>
        <time>2009-12-09T15:09:57Z</time>
      </trkpt>
      <trkpt lat="45.0613" lon="5.02948">
        <ele>170</ele>
        <time>2009-12-09T15:09:59Z</time>
      </trkpt>
      <trkpt lat="45.0601" lon="5.0291">
        <ele>169.08135986328</ele>
        <time>2009-12-09T15:10:07Z</time>
      </trkpt>
      <trkpt lat="45.05989" lon="5.02903">
        <ele>169</ele>
        <time>2009-12-09T15:10:11Z</time>
      </trkpt>
      <trkpt lat="45.05983" lon="5.02877">
        <ele>169</ele>
        <time>2009-12-09T15:10:14Z</time>
      </trkpt>
      <trkpt lat="45.05984" lon="5.02834">
        <ele>169</ele>
        <time>2009-12-09T15:10:18Z</time>
      </trkpt>
      <trkpt lat="45.05989" lon="5.02811">
        <ele>169</ele>
        <time>2009-12-09T15:10:20Z</time>
      </trkpt>
      <trkpt lat="45.05997" lon="5.02747">
        <ele>169</ele>
        <time>2009-12-09T15:10:25Z</time>
      </trkpt>
      <trkpt lat="45.05996" lon="5.02734">
        <ele>169</ele>
        <time>2009-12-09T15:10:26Z</time>
      </trkpt>
      <trkpt lat="45.05992" lon="5.02708">
        <ele>169</ele>
        <time>2009-12-09T15:10:28Z</time>
      </trkpt>
      <trkpt lat="45.05944" lon="5.02586">
        <ele>169</ele>
        <time>2009-12-09T15:10:32Z</time>
      </trkpt>
      <trkpt lat="45.05944" lon="5.02586">
        <ele>169</ele>
        <time>2009-12-09T15:10:35Z</time>
      </trkpt>
      <trkpt lat="45.05958" lon="5.02588">
        <ele>169</ele>
        <time>2009-12-09T15:10:39Z</time>
      </trkpt>
      <trkpt lat="45.05928" lon="5.02584">
        <ele>169</ele>
        <time>2009-12-09T15:10:43Z</time>
      </trkpt>
      <trkpt lat="45.0592" lon="5.02583">
        <ele>169</ele>
        <time>2009-12-09T15:10:44Z</time>
      </trkpt>
      <trkpt lat="45.05861" lon="5.02577">
        <ele>168</ele>
        <time>2009-12-09T15:10:51Z</time>
      </trkpt>
      <trkpt lat="45.05824" lon="5.02572">
        <ele>168</ele>
        <time>2009-12-09T15:10:55Z</time>
      </trkpt>
      <trkpt lat="45.05764" lon="5.02539">
        <ele>167.49053955078</ele>
        <time>2009-12-09T15:11:02Z</time>
      </trkpt>
      <trkpt lat="45.05714" lon="5.02506">
        <ele>167</ele>
        <time>2009-12-09T15:11:08Z</time>
      </trkpt>
      <trkpt lat="45.05647" lon="5.02489">
        <ele>166.30200195312</ele>
        <time>2009-12-09T15:11:16Z</time>
      </trkpt>
      <trkpt lat="45.05598" lon="5.02477">
        <ele>166</ele>
        <time>2009-12-09T15:11:22Z</time>
      </trkpt>
      <trkpt lat="45.05534" lon="5.02462">
        <ele>166</ele>
        <time>2009-12-09T15:11:30Z</time>
      </trkpt>
      <trkpt lat="45.05512" lon="5.02453">
        <ele>165.42681884766</ele>
        <time>2009-12-09T15:11:33Z</time>
      </trkpt>
      <trkpt lat="45.05484" lon="5.02441">
        <ele>165</ele>
        <time>2009-12-09T15:11:37Z</time>
      </trkpt>
      <trkpt lat="45.05458" lon="5.02429">
        <ele>165</ele>
        <time>2009-12-09T15:11:41Z</time>
      </trkpt>
      <trkpt lat="45.05446" lon="5.02424">
        <ele>165</ele>
        <time>2009-12-09T15:11:43Z</time>
      </trkpt>
      <trkpt lat="45.05424" lon="5.02414">
        <ele>165</ele>
        <time>2009-12-09T15:11:47Z</time>
      </trkpt>
      <trkpt lat="45.05424" lon="5.02414">
        <ele>165</ele>
        <time>2009-12-09T15:11:48Z</time>
      </trkpt>
      <trkpt lat="45.0542" lon="5.02358">
        <ele>165</ele>
        <time>2009-12-09T15:11:54Z</time>
      </trkpt>
      <trkpt lat="45.05417" lon="5.02293">
        <ele>165</ele>
        <time>2009-12-09T15:11:59Z</time>
      </trkpt>
      <trkpt lat="45.05424" lon="5.02231">
        <ele>165</ele>
        <time>2009-12-09T15:12:05Z</time>
      </trkpt>
      <trkpt lat="45.05429" lon="5.02207">
        <ele>165</ele>
        <time>2009-12-09T15:12:08Z</time>
      </trkpt>
      <trkpt lat="45.05436" lon="5.02183">
        <ele>165</ele>
        <time>2009-12-09T15:12:11Z</time>
      </trkpt>
      <trkpt lat="45.05446" lon="5.02144">
        <ele>165</ele>
        <time>2009-12-09T15:12:16Z</time>
      </trkpt>
      <trkpt lat="45.05458" lon="5.02103">
        <ele>165</ele>
        <time>2009-12-09T15:12:21Z</time>
      </trkpt>
      <trkpt lat="45.05465" lon="5.02077">
        <ele>165</ele>
        <time>2009-12-09T15:12:24Z</time>
      </trkpt>
      <trkpt lat="45.05473" lon="5.0205">
        <ele>165</ele>
        <time>2009-12-09T15:12:27Z</time>
      </trkpt>
      <trkpt lat="45.05482" lon="5.02015">
        <ele>165</ele>
        <time>2009-12-09T15:12:31Z</time>
      </trkpt>
      <trkpt lat="45.05487" lon="5.01997">
        <ele>165</ele>
        <time>2009-12-09T15:12:33Z</time>
      </trkpt>
      <trkpt lat="45.05497" lon="5.01942">
        <ele>165</ele>
        <time>2009-12-09T15:12:40Z</time>
      </trkpt>
      <trkpt lat="45.05512" lon="5.01814">
        <ele>166.11138916016</ele>
        <time>2009-12-09T15:12:48Z</time>
      </trkpt>
      <trkpt lat="45.05527" lon="5.01749">
        <ele>166.98986816406</ele>
        <time>2009-12-09T15:12:54Z</time>
      </trkpt>
      <trkpt lat="45.05561" lon="5.01654">
        <ele>167</ele>
        <time>2009-12-09T15:13:02Z</time>
      </trkpt>
      <trkpt lat="45.05579" lon="5.01566">
        <ele>166</ele>
        <time>2009-12-09T15:13:10Z</time>
      </trkpt>
      <trkpt lat="45.05602" lon="5.01437">
        <ele>165.91679382324</ele>
        <time>2009-12-09T15:13:22Z</time>
      </trkpt>
      <trkpt lat="45.05622" lon="5.01332">
        <ele>165</ele>
        <time>2009-12-09T15:13:32Z</time>
      </trkpt>
      <trkpt lat="45.05633" lon="5.0127">
        <ele>165</ele>
        <time>2009-12-09T15:13:38Z</time>
      </trkpt>
      <trkpt lat="45.05639" lon="5.01236">
        <ele>165.01361083984</ele>
        <time>2009-12-09T15:13:42Z</time>
      </trkpt>
      <trkpt lat="45.05654" lon="5.01235">
        <ele>165.54919433594</ele>
        <time>2009-12-09T15:13:43Z</time>
      </trkpt>
      <trkpt lat="45.05685" lon="5.01229">
        <ele>166</ele>
        <time>2009-12-09T15:13:48Z</time>
      </trkpt>
      <trkpt lat="45.05717" lon="5.01222">
        <ele>165.99528503418</ele>
        <time>2009-12-09T15:13:54Z</time>
      </trkpt>
      <trkpt lat="45.05773" lon="5.01209">
        <ele>166</ele>
        <time>2009-12-09T15:14:05Z</time>
      </trkpt>
      <trkpt lat="45.05807" lon="5.01202">
        <ele>167</ele>
        <time>2009-12-09T15:14:12Z</time>
      </trkpt>
      <trkpt lat="45.05848" lon="5.01193">
        <ele>167.50177001953</ele>
        <time>2009-12-09T15:14:20Z</time>
      </trkpt>
      <trkpt lat="45.05901" lon="5.01182">
        <ele>168.44812011719</ele>
        <time>2009-12-09T15:14:30Z</time>
      </trkpt>
      <trkpt lat="45.05952" lon="5.01171">
        <ele>169</ele>
        <time>2009-12-09T15:14:39Z</time>
      </trkpt>
      <trkpt lat="45.05995" lon="5.01159">
        <ele>169</ele>
        <time>2009-12-09T15:14:47Z</time>
      </trkpt>
      <trkpt lat="45.0602" lon="5.01152">
        <ele>169</ele>
        <time>2009-12-09T15:14:52Z</time>
      </trkpt>
      <trkpt lat="45.0607" lon="5.01139">
        <ele>169.52793884277</ele>
        <time>2009-12-09T15:15:02Z</time>
      </trkpt>
      <trkpt lat="45.06098" lon="5.01131">
        <ele>170.79183959961</ele>
        <time>2009-12-09T15:15:08Z</time>
      </trkpt>
      <trkpt lat="45.06128" lon="5.01119">
        <ele>171.89953613281</ele>
        <time>2009-12-09T15:15:15Z</time>
      </trkpt>
      <trkpt lat="45.06174" lon="5.01101">
        <ele>174.16232299805</ele>
        <time>2009-12-09T15:15:25Z</time>
      </trkpt>
      <trkpt lat="45.06215" lon="5.01085">
        <ele>176.48834228516</ele>
        <time>2009-12-09T15:15:34Z</time>
      </trkpt>
      <trkpt lat="45.06223" lon="5.01081">
        <ele>176.9930267334</ele>
        <time>2009-12-09T15:15:36Z</time>
      </trkpt>
      <trkpt lat="45.06247" lon="5.0108">
        <ele>178.64611816406</ele>
        <time>2009-12-09T15:15:41Z</time>
      </trkpt>
      <trkpt lat="45.06287" lon="5.01087">
        <ele>179</ele>
        <time>2009-12-09T15:15:49Z</time>
      </trkpt>
      <trkpt lat="45.06329" lon="5.01099">
        <ele>179.8564453125</ele>
        <time>2009-12-09T15:15:57Z</time>
      </trkpt>
      <trkpt lat="45.06379" lon="5.01117">
        <ele>180.68254089356</ele>
        <time>2009-12-09T15:16:06Z</time>
      </trkpt>
      <trkpt lat="45.06423" lon="5.01134">
        <ele>180</ele>
        <time>2009-12-09T15:16:14Z</time>
      </trkpt>
      <trkpt lat="45.06472" lon="5.01152">
        <ele>180.97303771973</ele>
        <time>2009-12-09T15:16:23Z</time>
      </trkpt>
      <trkpt lat="45.06518" lon="5.01174">
        <ele>189.60565185547</ele>
        <time>2009-12-09T15:16:32Z</time>
      </trkpt>
      <trkpt lat="45.06556" lon="5.01199">
        <ele>195.1711730957</ele>
        <time>2009-12-09T15:16:40Z</time>
      </trkpt>
      <trkpt lat="45.06567" lon="5.01212">
        <ele>196.04150390625</ele>
        <time>2009-12-09T15:16:43Z</time>
      </trkpt>
      <trkpt lat="45.06597" lon="5.01247">
        <ele>198.36407470703</ele>
        <time>2009-12-09T15:16:51Z</time>
      </trkpt>
      <trkpt lat="45.06633" lon="5.01289">
        <ele>199.80157470703</ele>
        <time>2009-12-09T15:17:00Z</time>
      </trkpt>
      <trkpt lat="45.06657" lon="5.01316">
        <ele>200</ele>
        <time>2009-12-09T15:17:06Z</time>
      </trkpt>
      <trkpt lat="45.06676" lon="5.01322">
        <ele>200</ele>
        <time>2009-12-09T15:17:10Z</time>
      </trkpt>
      <trkpt lat="45.06715" lon="5.01324">
        <ele>200</ele>
        <time>2009-12-09T15:17:18Z</time>
      </trkpt>
      <trkpt lat="45.06765" lon="5.01321">
        <ele>200</ele>
        <time>2009-12-09T15:17:29Z</time>
      </trkpt>
      <trkpt lat="45.06794" lon="5.0132">
        <ele>200</ele>
        <time>2009-12-09T15:17:36Z</time>
      </trkpt>
      <trkpt lat="45.06821" lon="5.01319">
        <ele>200</ele>
        <time>2009-12-09T15:17:43Z</time>
      </trkpt>
      <trkpt lat="45.0685" lon="5.01317">
        <ele>200</ele>
        <time>2009-12-09T15:17:51Z</time>
      </trkpt>
      <trkpt lat="45.06862" lon="5.01317">
        <ele>200</ele>
        <time>2009-12-09T15:17:55Z</time>
      </trkpt>
      <trkpt lat="45.06881" lon="5.01316">
        <ele>200</ele>
        <time>2009-12-09T15:18:01Z</time>
      </trkpt>
      <trkpt lat="45.06897" lon="5.01316">
        <ele>200</ele>
        <time>2009-12-09T15:18:07Z</time>
      </trkpt>
      <trkpt lat="45.06914" lon="5.01314">
        <ele>200</ele>
        <time>2009-12-09T15:18:13Z</time>
      </trkpt>
      <trkpt lat="45.06931" lon="5.0131">
        <ele>200</ele>
        <time>2009-12-09T15:18:19Z</time>
      </trkpt>
      <trkpt lat="45.06942" lon="5.01307">
        <ele>200</ele>
        <time>2009-12-09T15:18:23Z</time>
      </trkpt>
      <trkpt lat="45.0696" lon="5.01301">
        <ele>200.26379394531</ele>
        <time>2009-12-09T15:18:30Z</time>
      </trkpt>
      <trkpt lat="45.06983" lon="5.01292">
        <ele>200</ele>
        <time>2009-12-09T15:18:38Z</time>
      </trkpt>
      <trkpt lat="45.07001" lon="5.01285">
        <ele>200</ele>
        <time>2009-12-09T15:18:45Z</time>
      </trkpt>
      <trkpt lat="45.07013" lon="5.01281">
        <ele>200</ele>
        <time>2009-12-09T15:18:50Z</time>
      </trkpt>
      <trkpt lat="45.07038" lon="5.01271">
        <ele>202.41546630859</ele>
        <time>2009-12-09T15:19:00Z</time>
      </trkpt>
      <trkpt lat="45.07056" lon="5.01264">
        <ele>204.52384948731</ele>
        <time>2009-12-09T15:19:07Z</time>
      </trkpt>
      <trkpt lat="45.07071" lon="5.01258">
        <ele>206.05543518066</ele>
        <time>2009-12-09T15:19:13Z</time>
      </trkpt>
      <trkpt lat="45.07087" lon="5.01247">
        <ele>208.64778137207</ele>
        <time>2009-12-09T15:19:20Z</time>
      </trkpt>
      <trkpt lat="45.07096" lon="5.01238">
        <ele>210.4423828125</ele>
        <time>2009-12-09T15:19:25Z</time>
      </trkpt>
      <trkpt lat="45.07109" lon="5.01227">
        <ele>212.35786437988</ele>
        <time>2009-12-09T15:19:31Z</time>
      </trkpt>
      <trkpt lat="45.07129" lon="5.01204">
        <ele>216.71339416504</ele>
        <time>2009-12-09T15:19:40Z</time>
      </trkpt>
      <trkpt lat="45.07141" lon="5.01189">
        <ele>218.40620422363</ele>
        <time>2009-12-09T15:19:46Z</time>
      </trkpt>
      <trkpt lat="45.07161" lon="5.01165">
        <ele>220.36201477051</ele>
        <time>2009-12-09T15:19:56Z</time>
      </trkpt>
      <trkpt lat="45.07172" lon="5.01153">
        <ele>222.43267822266</ele>
        <time>2009-12-09T15:20:02Z</time>
      </trkpt>
      <trkpt lat="45.07193" lon="5.01135">
        <ele>224.6593170166</ele>
        <time>2009-12-09T15:20:10Z</time>
      </trkpt>
      <trkpt lat="45.07218" lon="5.01116">
        <ele>228.15618896484</ele>
        <time>2009-12-09T15:20:18Z</time>
      </trkpt>
      <trkpt lat="45.07248" lon="5.01092">
        <ele>229.49462890625</ele>
        <time>2009-12-09T15:20:27Z</time>
      </trkpt>
      <trkpt lat="45.07286" lon="5.01066">
        <ele>235.85766601562</ele>
        <time>2009-12-09T15:20:38Z</time>
      </trkpt>
      <trkpt lat="45.07306" lon="5.01054">
        <ele>238.0789642334</ele>
        <time>2009-12-09T15:20:44Z</time>
      </trkpt>
      <trkpt lat="45.07326" lon="5.01041">
        <ele>239.27886962891</ele>
        <time>2009-12-09T15:20:51Z</time>
      </trkpt>
      <trkpt lat="45.07351" lon="5.01024">
        <ele>240.0750579834</ele>
        <time>2009-12-09T15:21:00Z</time>
      </trkpt>
      <trkpt lat="45.0737" lon="5.01012">
        <ele>240.55801391602</ele>
        <time>2009-12-09T15:21:07Z</time>
      </trkpt>
      <trkpt lat="45.07387" lon="5.01001">
        <ele>240.9596862793</ele>
        <time>2009-12-09T15:21:14Z</time>
      </trkpt>
      <trkpt lat="45.07402" lon="5.00991">
        <ele>241.47338867188</ele>
        <time>2009-12-09T15:21:20Z</time>
      </trkpt>
      <trkpt lat="45.07418" lon="5.00984">
        <ele>242.10931396484</ele>
        <time>2009-12-09T15:21:27Z</time>
      </trkpt>
      <trkpt lat="45.07429" lon="5.00982">
        <ele>243.30407714844</ele>
        <time>2009-12-09T15:21:32Z</time>
      </trkpt>
      <trkpt lat="45.07449" lon="5.00979">
        <ele>245.44641113281</ele>
        <time>2009-12-09T15:21:39Z</time>
      </trkpt>
      <trkpt lat="45.07469" lon="5.00976">
        <ele>247.67114257812</ele>
        <time>2009-12-09T15:21:45Z</time>
      </trkpt>
      <trkpt lat="45.07481" lon="5.00974">
        <ele>249.19441223144</ele>
        <time>2009-12-09T15:21:48Z</time>
      </trkpt>
      <trkpt lat="45.07488" lon="5.00972">
        <ele>250.30412292481</ele>
        <time>2009-12-09T15:21:50Z</time>
      </trkpt>
      <trkpt lat="45.07529" lon="5.00972">
        <ele>255.08941650391</ele>
        <time>2009-12-09T15:22:00Z</time>
      </trkpt>
      <trkpt lat="45.0756" lon="5.00972">
        <ele>257.31414794922</ele>
        <time>2009-12-09T15:22:08Z</time>
      </trkpt>
      <trkpt lat="45.07594" lon="5.00977">
        <ele>259.21276855469</ele>
        <time>2009-12-09T15:22:17Z</time>
      </trkpt>
      <trkpt lat="45.07624" lon="5.00982">
        <ele>259.80908203125</ele>
        <time>2009-12-09T15:22:25Z</time>
      </trkpt>
      <trkpt lat="45.07657" lon="5.00988">
        <ele>260</ele>
        <time>2009-12-09T15:22:34Z</time>
      </trkpt>
      <trkpt lat="45.07685" lon="5.00995">
        <ele>260</ele>
        <time>2009-12-09T15:22:42Z</time>
      </trkpt>
      <trkpt lat="45.07719" lon="5.01003">
        <ele>260</ele>
        <time>2009-12-09T15:22:52Z</time>
      </trkpt>
      <trkpt lat="45.0775" lon="5.0101">
        <ele>260</ele>
        <time>2009-12-09T15:23:01Z</time>
      </trkpt>
      <trkpt lat="45.07766" lon="5.01014">
        <ele>260.28448486328</ele>
        <time>2009-12-09T15:23:06Z</time>
      </trkpt>
      <trkpt lat="45.07798" lon="5.01022">
        <ele>261.09951782227</ele>
        <time>2009-12-09T15:23:16Z</time>
      </trkpt>
      <trkpt lat="45.07824" lon="5.01028">
        <ele>261.65179443359</ele>
        <time>2009-12-09T15:23:24Z</time>
      </trkpt>
      <trkpt lat="45.07851" lon="5.01034">
        <ele>262.65075683594</ele>
        <time>2009-12-09T15:23:33Z</time>
      </trkpt>
      <trkpt lat="45.07879" lon="5.01041">
        <ele>264.27905273438</ele>
        <time>2009-12-09T15:23:42Z</time>
      </trkpt>
      <trkpt lat="45.07905" lon="5.01044">
        <ele>265.57336425781</ele>
        <time>2009-12-09T15:23:50Z</time>
      </trkpt>
      <trkpt lat="45.07935" lon="5.01048">
        <ele>266.64453125</ele>
        <time>2009-12-09T15:23:59Z</time>
      </trkpt>
      <trkpt lat="45.07959" lon="5.01044">
        <ele>267.53717041016</ele>
        <time>2009-12-09T15:24:07Z</time>
      </trkpt>
      <trkpt lat="45.07981" lon="5.01034">
        <ele>268.66735839844</ele>
        <time>2009-12-09T15:24:15Z</time>
      </trkpt>
      <trkpt lat="45.07997" lon="5.01027">
        <ele>269.76614379883</ele>
        <time>2009-12-09T15:24:21Z</time>
      </trkpt>
      <trkpt lat="45.08017" lon="5.01018">
        <ele>269.85766601562</ele>
        <time>2009-12-09T15:24:28Z</time>
      </trkpt>
      <trkpt lat="45.08047" lon="5.01004">
        <ele>270.69573974609</ele>
        <time>2009-12-09T15:24:37Z</time>
      </trkpt>
      <trkpt lat="45.08073" lon="5.00991">
        <ele>270.88824462891</ele>
        <time>2009-12-09T15:24:43Z</time>
      </trkpt>
      <trkpt lat="45.08097" lon="5.00981">
        <ele>270.6530456543</ele>
        <time>2009-12-09T15:24:47Z</time>
      </trkpt>
      <trkpt lat="45.08117" lon="5.00971">
        <ele>270.16806030273</ele>
        <time>2009-12-09T15:24:50Z</time>
      </trkpt>
      <trkpt lat="45.08146" lon="5.00952">
        <ele>269.32723999023</ele>
        <time>2009-12-09T15:24:54Z</time>
      </trkpt>
      <trkpt lat="45.08182" lon="5.00923">
        <ele>267.35266113281</ele>
        <time>2009-12-09T15:24:59Z</time>
      </trkpt>
      <trkpt lat="45.08223" lon="5.00888">
        <ele>263.93380737305</ele>
        <time>2009-12-09T15:25:05Z</time>
      </trkpt>
      <trkpt lat="45.08237" lon="5.0088">
        <ele>262.48498535156</ele>
        <time>2009-12-09T15:25:07Z</time>
      </trkpt>
      <trkpt lat="45.0826" lon="5.00873">
        <ele>261.48861694336</ele>
        <time>2009-12-09T15:25:10Z</time>
      </trkpt>
      <trkpt lat="45.08306" lon="5.00872">
        <ele>261.54647827148</ele>
        <time>2009-12-09T15:25:16Z</time>
      </trkpt>
      <trkpt lat="45.0835" lon="5.00871">
        <ele>259.94802856445</ele>
        <time>2009-12-09T15:25:22Z</time>
      </trkpt>
      <trkpt lat="45.08379" lon="5.0087">
        <ele>258.98211669922</ele>
        <time>2009-12-09T15:25:26Z</time>
      </trkpt>
      <trkpt lat="45.08393" lon="5.00869">
        <ele>258.55340576172</ele>
        <time>2009-12-09T15:25:28Z</time>
      </trkpt>
      <trkpt lat="45.08459" lon="5.00856">
        <ele>257.32025146484</ele>
        <time>2009-12-09T15:25:37Z</time>
      </trkpt>
      <trkpt lat="45.08529" lon="5.00843">
        <ele>255.32476806641</ele>
        <time>2009-12-09T15:25:46Z</time>
      </trkpt>
      <trkpt lat="45.0857" lon="5.00836">
        <ele>254.08880615234</ele>
        <time>2009-12-09T15:25:51Z</time>
      </trkpt>
      <trkpt lat="45.0864" lon="5.00823">
        <ele>252.20237731934</ele>
        <time>2009-12-09T15:25:59Z</time>
      </trkpt>
      <trkpt lat="45.08709" lon="5.0081">
        <ele>251.07269287109</ele>
        <time>2009-12-09T15:26:07Z</time>
      </trkpt>
      <trkpt lat="45.08753" lon="5.00802">
        <ele>250.88464355469</ele>
        <time>2009-12-09T15:26:12Z</time>
      </trkpt>
      <trkpt lat="45.08763" lon="5.00801">
        <ele>250.54132080078</ele>
        <time>2009-12-09T15:26:13Z</time>
      </trkpt>
      <trkpt lat="45.08772" lon="5.00801">
        <ele>250.19799804688</ele>
        <time>2009-12-09T15:26:14Z</time>
      </trkpt>
      <trkpt lat="45.08831" lon="5.0082">
        <ele>249.02473449707</ele>
        <time>2009-12-09T15:26:20Z</time>
      </trkpt>
      <trkpt lat="45.08872" lon="5.00836">
        <ele>247.244140625</ele>
        <time>2009-12-09T15:26:24Z</time>
      </trkpt>
      <trkpt lat="45.08931" lon="5.0086">
        <ele>246.10716247559</ele>
        <time>2009-12-09T15:26:30Z</time>
      </trkpt>
      <trkpt lat="45.08958" lon="5.00872">
        <ele>244.68769836426</ele>
        <time>2009-12-09T15:26:33Z</time>
      </trkpt>
      <trkpt lat="45.08994" lon="5.00886">
        <ele>240.99241638184</ele>
        <time>2009-12-09T15:26:37Z</time>
      </trkpt>
      <trkpt lat="45.0901" lon="5.00885">
        <ele>240.32690429688</ele>
        <time>2009-12-09T15:26:39Z</time>
      </trkpt>
      <trkpt lat="45.09028" lon="5.00883">
        <ele>239.98640441894</ele>
        <time>2009-12-09T15:26:41Z</time>
      </trkpt>
      <trkpt lat="45.09087" lon="5.00878">
        <ele>238.86213684082</ele>
        <time>2009-12-09T15:26:48Z</time>
      </trkpt>
      <trkpt lat="45.09129" lon="5.00874">
        <ele>237.98001098633</ele>
        <time>2009-12-09T15:26:53Z</time>
      </trkpt>
      <trkpt lat="45.09193" lon="5.00864">
        <ele>236.83331298828</ele>
        <time>2009-12-09T15:27:01Z</time>
      </trkpt>
      <trkpt lat="45.09243" lon="5.00844">
        <ele>236.49032592773</ele>
        <time>2009-12-09T15:27:08Z</time>
      </trkpt>
      <trkpt lat="45.09285" lon="5.00825">
        <ele>236.32553100586</ele>
        <time>2009-12-09T15:27:14Z</time>
      </trkpt>
      <trkpt lat="45.09321" lon="5.00807">
        <ele>236.33926391602</ele>
        <time>2009-12-09T15:27:19Z</time>
      </trkpt>
      <trkpt lat="45.09398" lon="5.00768">
        <ele>235.35221862793</ele>
        <time>2009-12-09T15:27:29Z</time>
      </trkpt>
      <trkpt lat="45.09458" lon="5.00738">
        <ele>234.50622558594</ele>
        <time>2009-12-09T15:27:37Z</time>
      </trkpt>
      <trkpt lat="45.09505" lon="5.00714">
        <ele>234.54823303223</ele>
        <time>2009-12-09T15:27:44Z</time>
      </trkpt>
      <trkpt lat="45.09572" lon="5.0068">
        <ele>234</ele>
        <time>2009-12-09T15:27:54Z</time>
      </trkpt>
      <trkpt lat="45.09629" lon="5.00652">
        <ele>234.19941711426</ele>
        <time>2009-12-09T15:28:03Z</time>
      </trkpt>
      <trkpt lat="45.09692" lon="5.00619">
        <ele>234.05204772949</ele>
        <time>2009-12-09T15:28:14Z</time>
      </trkpt>
      <trkpt lat="45.09732" lon="5.00606">
        <ele>233</ele>
        <time>2009-12-09T15:28:21Z</time>
      </trkpt>
      <trkpt lat="45.09776" lon="5.00595">
        <ele>233</ele>
        <time>2009-12-09T15:28:28Z</time>
      </trkpt>
      <trkpt lat="45.0983" lon="5.00582">
        <ele>222.87022399902</ele>
        <time>2009-12-09T15:28:35Z</time>
      </trkpt>
      <trkpt lat="45.09891" lon="5.0059">
        <ele>219.8662109375</ele>
        <time>2009-12-09T15:28:43Z</time>
      </trkpt>
      <trkpt lat="45.09913" lon="5.00593">
        <ele>218.27319335938</ele>
        <time>2009-12-09T15:28:46Z</time>
      </trkpt>
      <trkpt lat="45.0994" lon="5.00584">
        <ele>218</ele>
        <time>2009-12-09T15:28:50Z</time>
      </trkpt>
      <trkpt lat="45.09953" lon="5.00575">
        <ele>217.48175048828</ele>
        <time>2009-12-09T15:28:52Z</time>
      </trkpt>
      <trkpt lat="45.09982" lon="5.00577">
        <ele>217.26487731934</ele>
        <time>2009-12-09T15:28:56Z</time>
      </trkpt>
      <trkpt lat="45.10027" lon="5.00602">
        <ele>218.62777709961</ele>
        <time>2009-12-09T15:29:03Z</time>
      </trkpt>
      <trkpt lat="45.1007" lon="5.00616">
        <ele>219.17521667481</ele>
        <time>2009-12-09T15:29:10Z</time>
      </trkpt>
      <trkpt lat="45.10116" lon="5.00631">
        <ele>219.1217956543</ele>
        <time>2009-12-09T15:29:18Z</time>
      </trkpt>
      <trkpt lat="45.10181" lon="5.00659">
        <ele>220</ele>
        <time>2009-12-09T15:29:30Z</time>
      </trkpt>
      <trkpt lat="45.10239" lon="5.00683">
        <ele>220.36247253418</ele>
        <time>2009-12-09T15:29:41Z</time>
      </trkpt>
      <trkpt lat="45.10294" lon="5.00708">
        <ele>221.77397155762</ele>
        <time>2009-12-09T15:29:52Z</time>
      </trkpt>
      <trkpt lat="45.10347" lon="5.00735">
        <ele>222.95477294922</ele>
        <time>2009-12-09T15:30:03Z</time>
      </trkpt>
      <trkpt lat="45.10382" lon="5.00753">
        <ele>223.47637939453</ele>
        <time>2009-12-09T15:30:11Z</time>
      </trkpt>
      <trkpt lat="45.10414" lon="5.0077">
        <ele>224.67520141602</ele>
        <time>2009-12-09T15:30:19Z</time>
      </trkpt>
      <trkpt lat="45.10426" lon="5.00781">
        <ele>225.18249511719</ele>
        <time>2009-12-09T15:30:24Z</time>
      </trkpt>
      <trkpt lat="45.10429" lon="5.00783">
        <ele>225.31747436523</ele>
        <time>2009-12-09T15:30:26Z</time>
      </trkpt>
      <trkpt lat="45.1045" lon="5.00766">
        <ele>224.45841979981</ele>
        <time>2009-12-09T15:30:31Z</time>
      </trkpt>
      <trkpt lat="45.10479" lon="5.00744">
        <ele>224.27798461914</ele>
        <time>2009-12-09T15:30:37Z</time>
      </trkpt>
      <trkpt lat="45.10534" lon="5.00697">
        <ele>232.36428833008</ele>
        <time>2009-12-09T15:30:49Z</time>
      </trkpt>
      <trkpt lat="45.10576" lon="5.0066">
        <ele>239.19030761719</ele>
        <time>2009-12-09T15:30:59Z</time>
      </trkpt>
      <trkpt lat="45.10615" lon="5.00632">
        <ele>243.71553039551</ele>
        <time>2009-12-09T15:31:09Z</time>
      </trkpt>
      <trkpt lat="45.10646" lon="5.00613">
        <ele>252.39477539062</ele>
        <time>2009-12-09T15:31:18Z</time>
      </trkpt>
      <trkpt lat="45.10688" lon="5.00598">
        <ele>255.77288818359</ele>
        <time>2009-12-09T15:31:28Z</time>
      </trkpt>
      <trkpt lat="45.10723" lon="5.0059">
        <ele>259.05194091797</ele>
        <time>2009-12-09T15:31:37Z</time>
      </trkpt>
      <trkpt lat="45.10753" lon="5.00584">
        <ele>262.16116333008</ele>
        <time>2009-12-09T15:31:45Z</time>
      </trkpt>
      <trkpt lat="45.10783" lon="5.00578">
        <ele>265.37832641602</ele>
        <time>2009-12-09T15:31:53Z</time>
      </trkpt>
      <trkpt lat="45.10815" lon="5.00571">
        <ele>267.80044555664</ele>
        <time>2009-12-09T15:32:02Z</time>
      </trkpt>
      <trkpt lat="45.10842" lon="5.00565">
        <ele>269.90112304688</ele>
        <time>2009-12-09T15:32:10Z</time>
      </trkpt>
      <trkpt lat="45.10869" lon="5.00559">
        <ele>270.51330566406</ele>
        <time>2009-12-09T15:32:18Z</time>
      </trkpt>
      <trkpt lat="45.10896" lon="5.00556">
        <ele>269.47048950195</ele>
        <time>2009-12-09T15:32:26Z</time>
      </trkpt>
      <trkpt lat="45.1092" lon="5.0054">
        <ele>267.69848632812</ele>
        <time>2009-12-09T15:32:33Z</time>
      </trkpt>
      <trkpt lat="45.10936" lon="5.00529">
        <ele>265.90243530273</ele>
        <time>2009-12-09T15:32:37Z</time>
      </trkpt>
      <trkpt lat="45.10974" lon="5.00503">
        <ele>262.01892089844</ele>
        <time>2009-12-09T15:32:45Z</time>
      </trkpt>
      <trkpt lat="45.11011" lon="5.00478">
        <ele>256.11929321289</ele>
        <time>2009-12-09T15:32:51Z</time>
      </trkpt>
      <trkpt lat="45.11054" lon="5.00448">
        <ele>250.40899658203</ele>
        <time>2009-12-09T15:32:57Z</time>
      </trkpt>
      <trkpt lat="45.11103" lon="5.00419">
        <ele>244.74760437012</ele>
        <time>2009-12-09T15:33:03Z</time>
      </trkpt>
      <trkpt lat="45.11139" lon="5.00398">
        <ele>241.04806518555</ele>
        <time>2009-12-09T15:33:07Z</time>
      </trkpt>
      <trkpt lat="45.11156" lon="5.00389">
        <ele>239.38861083984</ele>
        <time>2009-12-09T15:33:09Z</time>
      </trkpt>
      <trkpt lat="45.11163" lon="5.00385">
        <ele>238.98005676269</ele>
        <time>2009-12-09T15:33:10Z</time>
      </trkpt>
      <trkpt lat="45.11169" lon="5.00381">
        <ele>238.6784362793</ele>
        <time>2009-12-09T15:33:11Z</time>
      </trkpt>
      <trkpt lat="45.11174" lon="5.00379">
        <ele>238.47457885742</ele>
        <time>2009-12-09T15:33:12Z</time>
      </trkpt>
      <trkpt lat="45.11219" lon="5.0045">
        <ele>239.05145263672</ele>
        <time>2009-12-09T15:33:19Z</time>
      </trkpt>
      <trkpt lat="45.11265" lon="5.00482">
        <ele>238.15628051758</ele>
        <time>2009-12-09T15:33:26Z</time>
      </trkpt>
      <trkpt lat="45.11305" lon="5.00499">
        <ele>238</ele>
        <time>2009-12-09T15:33:32Z</time>
      </trkpt>
      <trkpt lat="45.11351" lon="5.00521">
        <ele>238</ele>
        <time>2009-12-09T15:33:39Z</time>
      </trkpt>
      <trkpt lat="45.11382" lon="5.00548">
        <ele>238</ele>
        <time>2009-12-09T15:33:44Z</time>
      </trkpt>
      <trkpt lat="45.11436" lon="5.00595">
        <ele>238.41647338867</ele>
        <time>2009-12-09T15:33:52Z</time>
      </trkpt>
      <trkpt lat="45.11518" lon="5.00659">
        <ele>239</ele>
        <time>2009-12-09T15:34:04Z</time>
      </trkpt>
      <trkpt lat="45.11597" lon="5.00726">
        <ele>239</ele>
        <time>2009-12-09T15:34:15Z</time>
      </trkpt>
      <trkpt lat="45.1166" lon="5.00777">
        <ele>239</ele>
        <time>2009-12-09T15:34:25Z</time>
      </trkpt>
      <trkpt lat="45.11712" lon="5.00812">
        <ele>238.35845947266</ele>
        <time>2009-12-09T15:34:33Z</time>
      </trkpt>
      <trkpt lat="45.11766" lon="5.0084">
        <ele>237</ele>
        <time>2009-12-09T15:34:40Z</time>
      </trkpt>
      <trkpt lat="45.1181" lon="5.00862">
        <ele>237.03637695312</ele>
        <time>2009-12-09T15:34:46Z</time>
      </trkpt>
      <trkpt lat="45.11843" lon="5.00888">
        <ele>237.95648193359</ele>
        <time>2009-12-09T15:34:52Z</time>
      </trkpt>
      <trkpt lat="45.1188" lon="5.00922">
        <ele>239.87646484375</ele>
        <time>2009-12-09T15:35:00Z</time>
      </trkpt>
      <trkpt lat="45.11919" lon="5.00961">
        <ele>241.20700073242</ele>
        <time>2009-12-09T15:35:09Z</time>
      </trkpt>
      <trkpt lat="45.11952" lon="5.00994">
        <ele>242.50326538086</ele>
        <time>2009-12-09T15:35:17Z</time>
      </trkpt>
      <trkpt lat="45.11979" lon="5.01021">
        <ele>243.32836914062</ele>
        <time>2009-12-09T15:35:25Z</time>
      </trkpt>
      <trkpt lat="45.12008" lon="5.0106">
        <ele>244.01550292969</ele>
        <time>2009-12-09T15:35:35Z</time>
      </trkpt>
      <trkpt lat="45.1203" lon="5.01101">
        <ele>245.49166870117</ele>
        <time>2009-12-09T15:35:43Z</time>
      </trkpt>
      <trkpt lat="45.12054" lon="5.01154">
        <ele>246.64065551758</ele>
        <time>2009-12-09T15:35:52Z</time>
      </trkpt>
      <trkpt lat="45.12082" lon="5.01208">
        <ele>247.53210449219</ele>
        <time>2009-12-09T15:36:01Z</time>
      </trkpt>
      <trkpt lat="45.12121" lon="5.01253">
        <ele>242.02970886231</ele>
        <time>2009-12-09T15:36:10Z</time>
      </trkpt>
      <trkpt lat="45.12167" lon="5.01303">
        <ele>240.90132141113</ele>
        <time>2009-12-09T15:36:20Z</time>
      </trkpt>
      <trkpt lat="45.12218" lon="5.01356">
        <ele>248.2878112793</ele>
        <time>2009-12-09T15:36:31Z</time>
      </trkpt>
      <trkpt lat="45.12255" lon="5.01394">
        <ele>255.15542602539</ele>
        <time>2009-12-09T15:36:39Z</time>
      </trkpt>
      <trkpt lat="45.12292" lon="5.01432">
        <ele>255.55505371094</ele>
        <time>2009-12-09T15:36:47Z</time>
      </trkpt>
      <trkpt lat="45.12328" lon="5.01485">
        <ele>256.44848632812</ele>
        <time>2009-12-09T15:36:56Z</time>
      </trkpt>
      <trkpt lat="45.12374" lon="5.01558">
        <ele>257.09552001953</ele>
        <time>2009-12-09T15:37:08Z</time>
      </trkpt>
      <trkpt lat="45.12409" lon="5.01613">
        <ele>258.01913452148</ele>
        <time>2009-12-09T15:37:17Z</time>
      </trkpt>
      <trkpt lat="45.12439" lon="5.0166">
        <ele>258.74847412109</ele>
        <time>2009-12-09T15:37:25Z</time>
      </trkpt>
      <trkpt lat="45.1248" lon="5.01725">
        <ele>259.71411132812</ele>
        <time>2009-12-09T15:37:37Z</time>
      </trkpt>
      <trkpt lat="45.12513" lon="5.01778">
        <ele>259.52139282227</ele>
        <time>2009-12-09T15:37:46Z</time>
      </trkpt>
      <trkpt lat="45.1255" lon="5.01836">
        <ele>259.48303222656</ele>
        <time>2009-12-09T15:37:55Z</time>
      </trkpt>
      <trkpt lat="45.12585" lon="5.01877">
        <ele>256.50177001953</ele>
        <time>2009-12-09T15:38:02Z</time>
      </trkpt>
      <trkpt lat="45.12627" lon="5.01905">
        <ele>256.25366210938</ele>
        <time>2009-12-09T15:38:08Z</time>
      </trkpt>
      <trkpt lat="45.12659" lon="5.01926">
        <ele>256.34603881836</ele>
        <time>2009-12-09T15:38:12Z</time>
      </trkpt>
      <trkpt lat="45.12676" lon="5.01937">
        <ele>256.49917602539</ele>
        <time>2009-12-09T15:38:14Z</time>
      </trkpt>
      <trkpt lat="45.12711" lon="5.0196">
        <ele>256.23907470703</ele>
        <time>2009-12-09T15:38:18Z</time>
      </trkpt>
      <trkpt lat="45.12729" lon="5.01972">
        <ele>255.28056335449</ele>
        <time>2009-12-09T15:38:23Z</time>
      </trkpt>
      <trkpt lat="45.12816" lon="5.02029">
        <ele>246.46166992188</ele>
        <time>2009-12-09T15:38:30Z</time>
      </trkpt>
      <trkpt lat="45.12827" lon="5.02037">
        <ele>244.86865234375</ele>
        <time>2009-12-09T15:38:32Z</time>
      </trkpt>
      <trkpt lat="45.12827" lon="5.02037">
        <ele>244.86865234375</ele>
        <time>2009-12-09T15:38:35Z</time>
      </trkpt>
      <trkpt lat="45.12912" lon="5.02075">
        <ele>240</ele>
        <time>2009-12-09T15:38:41Z</time>
      </trkpt>
      <trkpt lat="45.12994" lon="5.02089">
        <ele>240</ele>
        <time>2009-12-09T15:38:50Z</time>
      </trkpt>
      <trkpt lat="45.13072" lon="5.02102">
        <ele>239.22926330566</ele>
        <time>2009-12-09T15:38:59Z</time>
      </trkpt>
      <trkpt lat="45.13096" lon="5.02104">
        <ele>236.86965942383</ele>
        <time>2009-12-09T15:39:02Z</time>
      </trkpt>
      <trkpt lat="45.13135" lon="5.02087">
        <ele>232.57298278809</ele>
        <time>2009-12-09T15:39:07Z</time>
      </trkpt>
      <trkpt lat="45.13154" lon="5.02067">
        <ele>232</ele>
        <time>2009-12-09T15:39:10Z</time>
      </trkpt>
      <trkpt lat="45.13162" lon="5.02048">
        <ele>231.77279663086</ele>
        <time>2009-12-09T15:39:12Z</time>
      </trkpt>
      <trkpt lat="45.1316" lon="5.01991">
        <ele>231</ele>
        <time>2009-12-09T15:39:18Z</time>
      </trkpt>
      <trkpt lat="45.13157" lon="5.01983">
        <ele>231</ele>
        <time>2009-12-09T15:39:19Z</time>
      </trkpt>
      <trkpt lat="45.13144" lon="5.0195">
        <ele>230.18547058106</ele>
        <time>2009-12-09T15:39:23Z</time>
      </trkpt>
      <trkpt lat="45.13138" lon="5.01933">
        <ele>230.11572265625</ele>
        <time>2009-12-09T15:39:25Z</time>
      </trkpt>
      <trkpt lat="45.13114" lon="5.01875">
        <ele>231.75860595703</ele>
        <time>2009-12-09T15:39:32Z</time>
      </trkpt>
      <trkpt lat="45.13096" lon="5.01828">
        <ele>234.18789672852</ele>
        <time>2009-12-09T15:39:37Z</time>
      </trkpt>
      <trkpt lat="45.13089" lon="5.01771">
        <ele>233.91326904297</ele>
        <time>2009-12-09T15:39:42Z</time>
      </trkpt>
      <trkpt lat="45.13089" lon="5.01741">
        <ele>233.64569091797</ele>
        <time>2009-12-09T15:39:47Z</time>
      </trkpt>
      <trkpt lat="45.13083" lon="5.01663">
        <ele>232.8768157959</ele>
        <time>2009-12-09T15:39:53Z</time>
      </trkpt>
      <trkpt lat="45.13064" lon="5.0159">
        <ele>232.45390319824</ele>
        <time>2009-12-09T15:40:00Z</time>
      </trkpt>
      <trkpt lat="45.13047" lon="5.01531">
        <ele>231.72933959961</ele>
        <time>2009-12-09T15:40:06Z</time>
      </trkpt>
      <trkpt lat="45.13038" lon="5.01505">
        <ele>231.74011230469</ele>
        <time>2009-12-09T15:40:09Z</time>
      </trkpt>
      <trkpt lat="45.13034" lon="5.01497">
        <ele>231.76094055176</ele>
        <time>2009-12-09T15:40:10Z</time>
      </trkpt>
      <trkpt lat="45.13025" lon="5.01479">
        <ele>232.103515625</ele>
        <time>2009-12-09T15:40:16Z</time>
      </trkpt>
      <trkpt lat="45.12986" lon="5.01401">
        <ele>231.43408203125</ele>
        <time>2009-12-09T15:40:21Z</time>
      </trkpt>
      <trkpt lat="45.12973" lon="5.01376">
        <ele>231.46110534668</ele>
        <time>2009-12-09T15:40:27Z</time>
      </trkpt>
      <trkpt lat="45.12919" lon="5.01257">
        <ele>221.23944091797</ele>
        <time>2009-12-09T15:40:36Z</time>
      </trkpt>
      <trkpt lat="45.12877" lon="5.01172">
        <ele>219.08486938477</ele>
        <time>2009-12-09T15:40:45Z</time>
      </trkpt>
      <trkpt lat="45.12844" lon="5.0114">
        <ele>219.01724243164</ele>
        <time>2009-12-09T15:40:50Z</time>
      </trkpt>
      <trkpt lat="45.128" lon="5.01104">
        <ele>219.71649169922</ele>
        <time>2009-12-09T15:40:56Z</time>
      </trkpt>
      <trkpt lat="45.12744" lon="5.01061">
        <ele>222.43286132812</ele>
        <time>2009-12-09T15:41:03Z</time>
      </trkpt>
      <trkpt lat="45.12713" lon="5.01032">
        <ele>224.00001525879</ele>
        <time>2009-12-09T15:41:07Z</time>
      </trkpt>
      <trkpt lat="45.12679" lon="5.0099">
        <ele>222.82008361816</ele>
        <time>2009-12-09T15:41:12Z</time>
      </trkpt>
      <trkpt lat="45.12627" lon="5.00908">
        <ele>220.28746032715</ele>
        <time>2009-12-09T15:41:21Z</time>
      </trkpt>
      <trkpt lat="45.12589" lon="5.00849">
        <ele>219</ele>
        <time>2009-12-09T15:41:28Z</time>
      </trkpt>
      <trkpt lat="45.12554" lon="5.00793">
        <ele>219.02732849121</ele>
        <time>2009-12-09T15:41:35Z</time>
      </trkpt>
      <trkpt lat="45.12512" lon="5.00729">
        <ele>219</ele>
        <time>2009-12-09T15:41:43Z</time>
      </trkpt>
      <trkpt lat="45.12455" lon="5.00664">
        <ele>219</ele>
        <time>2009-12-09T15:41:52Z</time>
      </trkpt>
      <trkpt lat="45.12413" lon="5.00622">
        <ele>219.10446166992</ele>
        <time>2009-12-09T15:41:58Z</time>
      </trkpt>
      <trkpt lat="45.12384" lon="5.00592">
        <ele>219.11108398438</ele>
        <time>2009-12-09T15:42:02Z</time>
      </trkpt>
      <trkpt lat="45.12325" lon="5.00516">
        <ele>219.04071044922</ele>
        <time>2009-12-09T15:42:11Z</time>
      </trkpt>
      <trkpt lat="45.12291" lon="5.00463">
        <ele>218.89151000977</ele>
        <time>2009-12-09T15:42:17Z</time>
      </trkpt>
      <trkpt lat="45.12248" lon="5.00398">
        <ele>218.43670654297</ele>
        <time>2009-12-09T15:42:24Z</time>
      </trkpt>
      <trkpt lat="45.12198" lon="5.00343">
        <ele>219.46842956543</ele>
        <time>2009-12-09T15:42:31Z</time>
      </trkpt>
      <trkpt lat="45.12157" lon="5.003">
        <ele>221.34088134766</ele>
        <time>2009-12-09T15:42:37Z</time>
      </trkpt>
      <trkpt lat="45.12126" lon="5.00249">
        <ele>222.71726989746</ele>
        <time>2009-12-09T15:42:43Z</time>
      </trkpt>
      <trkpt lat="45.12101" lon="5.00184">
        <ele>222.45782470703</ele>
        <time>2009-12-09T15:42:50Z</time>
      </trkpt>
      <trkpt lat="45.12085" lon="5.00106">
        <ele>220.60536193848</ele>
        <time>2009-12-09T15:42:57Z</time>
      </trkpt>
      <trkpt lat="45.12067" lon="5.00053">
        <ele>218.48370361328</ele>
        <time>2009-12-09T15:43:02Z</time>
      </trkpt>
      <trkpt lat="45.1204" lon="4.99989">
        <ele>218.4568939209</ele>
        <time>2009-12-09T15:43:08Z</time>
      </trkpt>
      <trkpt lat="45.12005" lon="4.99936">
        <ele>217.41862487793</ele>
        <time>2009-12-09T15:43:15Z</time>
      </trkpt>
      <trkpt lat="45.11976" lon="4.99887">
        <ele>213.82888793945</ele>
        <time>2009-12-09T15:43:21Z</time>
      </trkpt>
      <trkpt lat="45.11966" lon="4.99848">
        <ele>211.62249755859</ele>
        <time>2009-12-09T15:43:26Z</time>
      </trkpt>
      <trkpt lat="45.11969" lon="4.99781">
        <ele>209.15174865723</ele>
        <time>2009-12-09T15:43:34Z</time>
      </trkpt>
      <trkpt lat="45.11965" lon="4.99748">
        <ele>208.37756347656</ele>
        <time>2009-12-09T15:43:38Z</time>
      </trkpt>
      <trkpt lat="45.11974" lon="4.99713">
        <ele>207.75231933594</ele>
        <time>2009-12-09T15:43:42Z</time>
      </trkpt>
      <trkpt lat="45.11998" lon="4.99669">
        <ele>207.91714477539</ele>
        <time>2009-12-09T15:43:47Z</time>
      </trkpt>
      <trkpt lat="45.12024" lon="4.99621">
        <ele>207.97340393066</ele>
        <time>2009-12-09T15:43:52Z</time>
      </trkpt>
      <trkpt lat="45.12055" lon="4.99566">
        <ele>207.20042419434</ele>
        <time>2009-12-09T15:43:58Z</time>
      </trkpt>
      <trkpt lat="45.12098" lon="4.9949">
        <ele>207.21711730957</ele>
        <time>2009-12-09T15:44:06Z</time>
      </trkpt>
      <trkpt lat="45.12132" lon="4.99415">
        <ele>208.73880004883</ele>
        <time>2009-12-09T15:44:13Z</time>
      </trkpt>
      <trkpt lat="45.12153" lon="4.99336">
        <ele>208.53967285156</ele>
        <time>2009-12-09T15:44:20Z</time>
      </trkpt>
      <trkpt lat="45.12181" lon="4.9923">
        <ele>208.77624511719</ele>
        <time>2009-12-09T15:44:30Z</time>
      </trkpt>
      <trkpt lat="45.12202" lon="4.99152">
        <ele>210.46522521973</ele>
        <time>2009-12-09T15:44:38Z</time>
      </trkpt>
      <trkpt lat="45.12211" lon="4.99113">
        <ele>211.29730224609</ele>
        <time>2009-12-09T15:44:42Z</time>
      </trkpt>
      <trkpt lat="45.12218" lon="4.99075">
        <ele>212.44227600098</ele>
        <time>2009-12-09T15:44:47Z</time>
      </trkpt>
      <trkpt lat="45.12218" lon="4.99075">
        <ele>212.44227600098</ele>
        <time>2009-12-09T15:44:50Z</time>
      </trkpt>
      <trkpt lat="45.12231" lon="4.99041">
        <ele>215.35740661621</ele>
        <time>2009-12-09T15:44:53Z</time>
      </trkpt>
      <trkpt lat="45.12194" lon="4.99037">
        <ele>210.45245361328</ele>
        <time>2009-12-09T15:44:58Z</time>
      </trkpt>
      <trkpt lat="45.12151" lon="4.98983">
        <ele>206.39614868164</ele>
        <time>2009-12-09T15:45:05Z</time>
      </trkpt>
      <trkpt lat="45.12107" lon="4.98915">
        <ele>204.13259887695</ele>
        <time>2009-12-09T15:45:12Z</time>
      </trkpt>
      <trkpt lat="45.12073" lon="4.98839">
        <ele>203.83061218262</ele>
        <time>2009-12-09T15:45:19Z</time>
      </trkpt>
      <trkpt lat="45.12046" lon="4.98764">
        <ele>203.62818908691</ele>
        <time>2009-12-09T15:45:26Z</time>
      </trkpt>
      <trkpt lat="45.12027" lon="4.98689">
        <ele>203.46557617188</ele>
        <time>2009-12-09T15:45:33Z</time>
      </trkpt>
      <trkpt lat="45.12016" lon="4.986">
        <ele>203.88131713867</ele>
        <time>2009-12-09T15:45:41Z</time>
      </trkpt>
      <trkpt lat="45.12017" lon="4.98512">
        <ele>205.02919006348</ele>
        <time>2009-12-09T15:45:49Z</time>
      </trkpt>
      <trkpt lat="45.1202" lon="4.9847">
        <ele>205.24133300781</ele>
        <time>2009-12-09T15:45:53Z</time>
      </trkpt>
      <trkpt lat="45.12042" lon="4.98436">
        <ele>205.5068359375</ele>
        <time>2009-12-09T15:45:57Z</time>
      </trkpt>
      <trkpt lat="45.12042" lon="4.98436">
        <ele>205.5068359375</ele>
        <time>2009-12-09T15:46:00Z</time>
      </trkpt>
      <trkpt lat="45.12049" lon="4.98373">
        <ele>204.5362701416</ele>
        <time>2009-12-09T15:46:03Z</time>
      </trkpt>
      <trkpt lat="45.12061" lon="4.9828">
        <ele>204.54629516602</ele>
        <time>2009-12-09T15:46:11Z</time>
      </trkpt>
      <trkpt lat="45.12067" lon="4.98209">
        <ele>205.58824157715</ele>
        <time>2009-12-09T15:46:17Z</time>
      </trkpt>
      <trkpt lat="45.12059" lon="4.98139">
        <ele>205.43698120117</ele>
        <time>2009-12-09T15:46:23Z</time>
      </trkpt>
      <trkpt lat="45.12038" lon="4.9804">
        <ele>202.66284179688</ele>
        <time>2009-12-09T15:46:31Z</time>
      </trkpt>
      <trkpt lat="45.12014" lon="4.97928">
        <ele>199.76441955566</ele>
        <time>2009-12-09T15:46:40Z</time>
      </trkpt>
      <trkpt lat="45.11995" lon="4.97824">
        <ele>197.99311828613</ele>
        <time>2009-12-09T15:46:48Z</time>
      </trkpt>
      <trkpt lat="45.11977" lon="4.97731">
        <ele>197.5450592041</ele>
        <time>2009-12-09T15:46:55Z</time>
      </trkpt>
      <trkpt lat="45.11976" lon="4.97723">
        <ele>197.42436218262</ele>
        <time>2009-12-09T15:46:56Z</time>
      </trkpt>
      <trkpt lat="45.11976" lon="4.97723">
        <ele>197.42436218262</ele>
        <time>2009-12-09T15:47:00Z</time>
      </trkpt>
      <trkpt lat="45.1197" lon="4.97692">
        <ele>196.89607238769</ele>
        <time>2009-12-09T15:47:04Z</time>
      </trkpt>
      <trkpt lat="45.11962" lon="4.97645">
        <ele>196.5574798584</ele>
        <time>2009-12-09T15:47:09Z</time>
      </trkpt>
      <trkpt lat="45.11951" lon="4.9758">
        <ele>197.04919433594</ele>
        <time>2009-12-09T15:47:15Z</time>
      </trkpt>
      <trkpt lat="45.11937" lon="4.97506">
        <ele>196.71055603027</ele>
        <time>2009-12-09T15:47:21Z</time>
      </trkpt>
      <trkpt lat="45.11916" lon="4.97387">
        <ele>195.99534606934</ele>
        <time>2009-12-09T15:47:30Z</time>
      </trkpt>
      <trkpt lat="45.11893" lon="4.97258">
        <ele>196.36598205566</ele>
        <time>2009-12-09T15:47:40Z</time>
      </trkpt>
      <trkpt lat="45.11879" lon="4.97163">
        <ele>196.66423034668</ele>
        <time>2009-12-09T15:47:48Z</time>
      </trkpt>
      <trkpt lat="45.1188" lon="4.97119">
        <ele>196.93444824219</ele>
        <time>2009-12-09T15:47:52Z</time>
      </trkpt>
      <trkpt lat="45.11883" lon="4.97093">
        <ele>197.14785766602</ele>
        <time>2009-12-09T15:47:55Z</time>
      </trkpt>
      <trkpt lat="45.11883" lon="4.97093">
        <ele>197.15084838867</ele>
        <time>2009-12-09T15:47:58Z</time>
      </trkpt>
      <trkpt lat="45.11883" lon="4.97063">
        <ele>197.64297485352</ele>
        <time>2009-12-09T15:48:00Z</time>
      </trkpt>
      <trkpt lat="45.11874" lon="4.97049">
        <ele>197.80621337891</ele>
        <time>2009-12-09T15:48:03Z</time>
      </trkpt>
      <trkpt lat="45.11817" lon="4.96966">
        <ele>197.94671630859</ele>
        <time>2009-12-09T15:48:13Z</time>
      </trkpt>
      <trkpt lat="45.11774" lon="4.96895">
        <ele>196.71078491211</ele>
        <time>2009-12-09T15:48:21Z</time>
      </trkpt>
      <trkpt lat="45.1176" lon="4.96867">
        <ele>196.02969360352</ele>
        <time>2009-12-09T15:48:24Z</time>
      </trkpt>
      <trkpt lat="45.1176" lon="4.96833">
        <ele>195.37928771973</ele>
        <time>2009-12-09T15:48:27Z</time>
      </trkpt>
      <trkpt lat="45.11755" lon="4.96827">
        <ele>195.24771118164</ele>
        <time>2009-12-09T15:48:28Z</time>
      </trkpt>
      <trkpt lat="45.11715" lon="4.96804">
        <ele>195.625</ele>
        <time>2009-12-09T15:48:33Z</time>
      </trkpt>
      <trkpt lat="45.1167" lon="4.96726">
        <ele>195.44358825684</ele>
        <time>2009-12-09T15:48:41Z</time>
      </trkpt>
      <trkpt lat="45.11634" lon="4.96636">
        <ele>194.58264160156</ele>
        <time>2009-12-09T15:48:49Z</time>
      </trkpt>
      <trkpt lat="45.11604" lon="4.96562">
        <ele>195.42546081543</ele>
        <time>2009-12-09T15:48:56Z</time>
      </trkpt>
      <trkpt lat="45.11584" lon="4.96516">
        <ele>195.01539611816</ele>
        <time>2009-12-09T15:49:01Z</time>
      </trkpt>
      <trkpt lat="45.1158" lon="4.96479">
        <ele>195.56900024414</ele>
        <time>2009-12-09T15:49:05Z</time>
      </trkpt>
      <trkpt lat="45.11581" lon="4.96452">
        <ele>196.62857055664</ele>
        <time>2009-12-09T15:49:09Z</time>
      </trkpt>
      <trkpt lat="45.11581" lon="4.96447">
        <ele>196.81767272949</ele>
        <time>2009-12-09T15:49:11Z</time>
      </trkpt>
      <trkpt lat="45.11581" lon="4.96445">
        <ele>196.87666320801</ele>
        <time>2009-12-09T15:49:14Z</time>
      </trkpt>
      <trkpt lat="45.11581" lon="4.96445">
        <ele>196.87666320801</ele>
        <time>2009-12-09T15:49:37Z</time>
      </trkpt>
      <trkpt lat="45.11554" lon="4.96466">
        <ele>194.97727966309</ele>
        <time>2009-12-09T15:49:42Z</time>
      </trkpt>
      <trkpt lat="45.11547" lon="4.96455">
        <ele>195.14265441894</ele>
        <time>2009-12-09T15:49:46Z</time>
      </trkpt>
      <trkpt lat="45.11581" lon="4.96431">
        <ele>197.42616271973</ele>
        <time>2009-12-09T15:49:49Z</time>
      </trkpt>
      <trkpt lat="45.11581" lon="4.96429">
        <ele>197.47978210449</ele>
        <time>2009-12-09T15:49:50Z</time>
      </trkpt>
      <trkpt lat="45.11546" lon="4.96453">
        <ele>195.15037536621</ele>
        <time>2009-12-09T15:49:55Z</time>
      </trkpt>
      <trkpt lat="45.11549" lon="4.96457">
        <ele>195.11192321777</ele>
        <time>2009-12-09T15:50:14Z</time>
      </trkpt>
    </trkseg>
  </trk>
</gpx>